AXCT XCTrack 0.5.1 - translations: 2015-10-01 00:58:58 on asus Nexus 7 6.0
HPPLTPILOT:lorenzo nadali
HOSITSite:Decollo
HPCCLCOMPETITION CLASS:FAI-3 (PG)
HPGTYGLIDERTYPE:OZONE Enzo
HODTM100GPSDATUM:WGS-84
HFALG:GEO
HFDTE111215
LXCTDEVICE eyJjYXBhYmlsaXRpZXMiOnsibWVtQ2xhc3MiOjE5MiwibWVtTGFyZ2VDbGFz
LXCTDEVICE cyI6NTEyLCJuYW4iOnRydWV9LCJkZXZpY2UiOnsiYW5kcm9pZElkIjoiOWE5
LXCTDEVICE NjQyM2M3NDcwZWFlYiIsImJvYXJkIjoiZGViIiwiYnVpbGRJZCI6Ik1SQTU4
LXCTDEVICE ViIsImNwdUFCSSI6ImFybWVhYmktdjdhIiwiY3B1QUJJMiI6ImFybWVhYmki
LXCTDEVICE LCJkZXZpY2VTdHJpbmciOiJhc3VzIE5leHVzIDcgNi4wIiwiZGlzcGxheSI6
LXCTDEVICE eyJoIjoxMTA0LCJtbSI6MTIuNTk4NDI1LCJ3IjoxOTIwfSwiZmluZ2VycHJp
LXCTDEVICE bnQiOiJnb29nbGUvcmF6b3JnL2RlYjo2LjAvTVJBNThWLzIzMjQyMzU6dXNl
LXCTDEVICE ci9yZWxlYXNlLWtleXMiLCJoYXJkd2FyZSI6ImZsbyIsIm1hbnVmYWN0dXJl
LXCTDEVICE ciI6ImFzdXMiLCJwcm9kdWN0IjoicmF6b3JnIiwic2RrIjoyM30sInhjdHJh
LXCTDEVICE Y2siOnsidmVyc2lvbkNvZGUiOjQ4LCJ2ZXJzaW9uTmFtZSI6IjAuNS4xIC0g
LXCTDEVICE dHJhbnNsYXRpb25zOiAyMDE1LTEwLTAxIDAwOjU4OjU4In19
B1423242808683N01644156WA0000000770
B1423252808680N01644158WA0000000768
B1423262808675N01644164WA0000000768
B1423272808673N01644167WA0000000770
B1423282808672N01644170WA0000000768
B1423292808670N01644172WA0000000766
B1423302808668N01644176WA0000000766
B1423312808667N01644179WA0000000769
B1423322808668N01644181WA0000000769
B1423332808668N01644184WA0000000768
B1423342808669N01644186WA0000000770
B1423352808668N01644189WA0000000769
B1423362808669N01644191WA0000000766
B1423372808668N01644195WA0000000762
B1423382808668N01644197WA0000000762
B1423392808669N01644201WA0000000759
B1423402808670N01644203WA0000000762
B1423412808671N01644205WA0000000761
B1423422808672N01644208WA0000000758
B1423432808673N01644212WA0000000757
B1423442808674N01644217WA0000000757
B1423452808673N01644224WA0000000758
B1423462808673N01644228WA0000000756
B1423472808674N01644232WA0000000757
B1423482808674N01644236WA0000000757
B1423492808674N01644241WA0000000757
B1423502808673N01644246WA0000000757
B1423512808672N01644250WA0000000756
B1423522808670N01644256WA0000000756
B1423532808669N01644260WA0000000756
B1423542808668N01644264WA0000000755
B1423552808667N01644268WA0000000755
B1423562808665N01644271WA0000000756
B1423572808664N01644274WA0000000757
B1423582808663N01644278WA0000000756
B1424002808662N01644283WA0000000756
B1424012808661N01644287WA0000000755
B1424022808657N01644291WA0000000754
B1424032808653N01644291WA0000000754
B1424042808648N01644288WA0000000756
B1424052808644N01644282WA0000000756
B1424062808641N01644275WA0000000755
B1424072808640N01644268WA0000000755
B1424082808640N01644261WA0000000757
B1424092808640N01644255WA0000000759
B1424102808641N01644248WA0000000759
B1424112808643N01644241WA0000000760
B1424122808645N01644234WA0000000762
B1424132808646N01644228WA0000000766
B1424142808646N01644223WA0000000769
B1424152808647N01644217WA0000000771
B1424162808647N01644210WA0000000771
B1424172808648N01644202WA0000000771
B1424182808647N01644195WA0000000772
B1424192808645N01644189WA0000000772
B1424202808642N01644184WA0000000771
B1424212808637N01644182WA0000000770
B1424222808631N01644181WA0000000769
B1424232808626N01644182WA0000000768
B1424242808623N01644185WA0000000769
B1424252808621N01644188WA0000000771
B1424262808620N01644191WA0000000772
B1424272808619N01644195WA0000000773
B1424282808618N01644199WA0000000774
B1424292808617N01644203WA0000000774
B1424302808618N01644207WA0000000776
B1424312808619N01644210WA0000000778
B1424322808621N01644214WA0000000780
B1424332808622N01644217WA0000000780
B1424342808624N01644221WA0000000782
B1424352808623N01644225WA0000000785
B1424362808620N01644226WA0000000787
B1424372808615N01644225WA0000000786
B1424382808609N01644222WA0000000784
B1424392808605N01644216WA0000000784
B1424402808603N01644210WA0000000786
B1424412808602N01644202WA0000000788
B1424422808604N01644195WA0000000790
B1424432808607N01644188WA0000000791
B1424442808612N01644181WA0000000792
B1424452808616N01644176WA0000000794
B1424462808621N01644172WA0000000797
B1424472808626N01644169WA0000000798
B1424482808632N01644168WA0000000799
B1424492808639N01644166WA0000000799
B1424502808646N01644166WA0000000800
B1424512808651N01644168WA0000000803
B1424522808656N01644169WA0000000807
B1424532808660N01644171WA0000000810
B1424542808664N01644171WA0000000814
B1424552808669N01644171WA0000000818
B1424562808673N01644170WA0000000820
B1424572808677N01644170WA0000000822
B1424582808680N01644171WA0000000825
B1424592808682N01644174WA0000000827
B1425002808685N01644177WA0000000828
B1425012808687N01644179WA0000000832
B1425022808690N01644180WA0000000834
B1425032808693N01644180WA0000000835
B1425042808696N01644181WA0000000835
B1425052808701N01644181WA0000000834
B1425062808706N01644180WA0000000834
B1425072808711N01644177WA0000000835
B1425082808715N01644173WA0000000835
B1425092808718N01644167WA0000000836
B1425102808719N01644159WA0000000836
B1425112808717N01644152WA0000000835
B1425122808713N01644146WA0000000833
B1425132808708N01644141WA0000000832
B1425142808704N01644139WA0000000833
B1425152808700N01644137WA0000000834
B1425162808696N01644135WA0000000836
B1425172808693N01644132WA0000000838
B1425182808689N01644129WA0000000839
B1425192808684N01644125WA0000000839
B1425202808680N01644121WA0000000842
B1425212808677N01644118WA0000000845
B1425222808674N01644115WA0000000848
B1425232808671N01644112WA0000000850
B1425242808668N01644108WA0000000851
B1425252808666N01644102WA0000000852
B1425262808665N01644095WA0000000854
B1425272808666N01644087WA0000000856
B1425282808670N01644080WA0000000857
B1425292808676N01644075WA0000000858
B1425302808683N01644072WA0000000859
B1425312808689N01644072WA0000000860
B1425322808694N01644073WA0000000863
B1425332808697N01644076WA0000000864
B1425342808699N01644080WA0000000864
B1425352808700N01644084WA0000000865
B1425362808700N01644089WA0000000867
B1425372808699N01644092WA0000000868
B1425382808698N01644095WA0000000870
B1425392808696N01644097WA0000000872
B1425402808693N01644100WA0000000872
B1425412808690N01644102WA0000000874
B1425422808688N01644104WA0000000876
B1425432808685N01644106WA0000000879
B1425442808683N01644108WA0000000882
B1425452808680N01644110WA0000000883
B1425462808678N01644112WA0000000885
B1425472808675N01644113WA0000000887
B1425482808671N01644114WA0000000889
B1425492808667N01644113WA0000000892
B1425502808663N01644112WA0000000894
B1425512808659N01644109WA0000000896
B1425522808655N01644106WA0000000898
B1425532808653N01644100WA0000000898
B1425542808651N01644092WA0000000898
B1425552808653N01644084WA0000000897
B1425562808657N01644077WA0000000897
B1425572808662N01644071WA0000000898
B1425582808670N01644065WA0000000900
B1426002808681N01644062WA0000000903
B1426012808687N01644061WA0000000908
B1426022808691N01644061WA0000000912
B1426032808695N01644061WA0000000916
B1426042808700N01644062WA0000000918
B1426052808705N01644063WA0000000920
B1426062808710N01644065WA0000000921
B1426072808715N01644067WA0000000922
B1426082808718N01644070WA0000000925
B1426092808719N01644074WA0000000928
B1426102808719N01644079WA0000000929
B1426112808717N01644083WA0000000931
B1426122808714N01644086WA0000000933
B1426132808710N01644087WA0000000935
B1426142808706N01644086WA0000000936
B1426152808701N01644084WA0000000937
B1426162808696N01644080WA0000000939
B1426172808693N01644076WA0000000942
B1426182808690N01644070WA0000000945
B1426192808689N01644064WA0000000947
B1426202808689N01644058WA0000000950
B1426212808689N01644052WA0000000953
B1426222808691N01644045WA0000000955
B1426232808694N01644040WA0000000956
B1426242808699N01644035WA0000000957
B1426252808706N01644031WA0000000957
B1426262808713N01644029WA0000000958
B1426272808719N01644029WA0000000961
B1426282808725N01644029WA0000000965
B1426292808729N01644031WA0000000968
B1426302808731N01644033WA0000000972
B1426312808734N01644037WA0000000974
B1426322808735N01644041WA0000000976
B1426332808737N01644046WA0000000978
B1426342808738N01644050WA0000000981
B1426352808738N01644054WA0000000984
B1426362808736N01644057WA0000000987
B1426372808732N01644059WA0000000989
B1426382808728N01644060WA0000000990
B1426392808724N01644058WA0000000992
B1426402808720N01644055WA0000000993
B1426412808716N01644050WA0000000995
B1426422808714N01644045WA0000000997
B1426432808713N01644039WA0000000999
B1426442808713N01644032WA0000001002
B1426452808715N01644026WA0000001005
B1426462808719N01644020WA0000001007
B1426472808724N01644016WA0000001008
B1426482808730N01644013WA0000001009
B1426492808737N01644012WA0000001012
B1426502808742N01644013WA0000001016
B1426512808746N01644014WA0000001021
B1426522808750N01644015WA0000001024
B1426532808754N01644017WA0000001027
B1426542808757N01644019WA0000001029
B1426552808760N01644023WA0000001030
B1426562808763N01644027WA0000001031
B1426572808763N01644033WA0000001031
B1426582808762N01644038WA0000001030
B1426592808755N01644040WA0000001030
B1427002808750N01644040WA0000001031
B1427012808746N01644038WA0000001034
B1427022808743N01644036WA0000001037
B1427032808742N01644032WA0000001040
B1427042808740N01644028WA0000001041
B1427052808738N01644023WA0000001041
B1427062808735N01644018WA0000001042
B1427072808733N01644012WA0000001043
B1427082808732N01644006WA0000001045
B1427092808731N01644000WA0000001047
B1427102808730N01643994WA0000001050
B1427112808728N01643989WA0000001052
B1427122808725N01643985WA0000001052
B1427132808722N01643981WA0000001053
B1427142808718N01643977WA0000001056
B1427152808716N01643974WA0000001060
B1427162808716N01643970WA0000001065
B1427172808715N01643967WA0000001068
B1427182808714N01643962WA0000001069
B1427192808712N01643957WA0000001068
B1427202808708N01643951WA0000001066
B1427212808704N01643945WA0000001064
B1427222808701N01643941WA0000001064
B1427232808698N01643939WA0000001064
B1427242808695N01643936WA0000001063
B1427252808693N01643933WA0000001061
B1427262808690N01643930WA0000001059
B1427272808687N01643927WA0000001058
B1427282808685N01643925WA0000001057
B1427292808681N01643926WA0000001056
B1427302808678N01643928WA0000001055
B1427312808675N01643931WA0000001056
B1427322808672N01643933WA0000001057
B1427332808670N01643936WA0000001059
B1427342808667N01643937WA0000001060
B1427352808663N01643938WA0000001060
B1427362808660N01643938WA0000001059
B1427372808655N01643938WA0000001058
B1427382808651N01643937WA0000001058
B1427392808646N01643936WA0000001058
B1427402808642N01643933WA0000001058
B1427412808638N01643929WA0000001058
B1427422808635N01643923WA0000001057
B1427432808631N01643917WA0000001056
B1427442808629N01643911WA0000001056
B1427452808626N01643905WA0000001055
B1427462808624N01643900WA0000001057
B1427472808622N01643894WA0000001058
B1427482808620N01643888WA0000001058
B1427492808618N01643881WA0000001057
B1427502808616N01643874WA0000001056
B1427512808614N01643868WA0000001057
B1427522808612N01643863WA0000001058
B1427532808610N01643857WA0000001058
B1427542808607N01643851WA0000001057
B1427552808604N01643845WA0000001056
B1427562808602N01643837WA0000001056
B1427572808602N01643829WA0000001056
B1427582808605N01643813WA0000001058
B1428002808607N01643806WA0000001059
B1428012808608N01643801WA0000001062
B1428022808609N01643796WA0000001066
B1428032808610N01643791WA0000001069
B1428042808612N01643784WA0000001071
B1428052808613N01643777WA0000001071
B1428062808613N01643769WA0000001072
B1428072808613N01643762WA0000001075
B1428082808610N01643756WA0000001077
B1428092808607N01643751WA0000001078
B1428102808604N01643746WA0000001079
B1428112808600N01643743WA0000001080
B1428122808596N01643742WA0000001079
B1428132808591N01643744WA0000001078
B1428142808588N01643749WA0000001076
B1428152808586N01643754WA0000001075
B1428162808590N01643757WA0000001075
B1428172808592N01643759WA0000001079
B1428182808596N01643759WA0000001081
B1428192808601N01643759WA0000001082
B1428202808607N01643758WA0000001082
B1428212808612N01643756WA0000001083
B1428222808618N01643752WA0000001085
B1428232808623N01643748WA0000001087
B1428242808627N01643742WA0000001088
B1428252808630N01643736WA0000001090
B1428262808632N01643730WA0000001092
B1428272808633N01643723WA0000001092
B1428282808632N01643715WA0000001092
B1428292808630N01643709WA0000001094
B1428302808627N01643704WA0000001095
B1428312808624N01643701WA0000001097
B1428322808620N01643699WA0000001097
B1428332808616N01643697WA0000001096
B1428342808611N01643697WA0000001096
B1428352808608N01643699WA0000001095
B1428362808605N01643702WA0000001094
B1428372808604N01643706WA0000001092
B1428382808604N01643711WA0000001091
B1428392808604N01643716WA0000001089
B1428402808605N01643719WA0000001089
B1428412808606N01643722WA0000001091
B1428422808607N01643725WA0000001092
B1428432808608N01643727WA0000001092
B1428442808609N01643730WA0000001092
B1428452808610N01643734WA0000001090
B1428462808611N01643739WA0000001089
B1428472808612N01643745WA0000001089
B1428482808612N01643750WA0000001089
B1428492808611N01643754WA0000001092
B1428502808611N01643757WA0000001095
B1428512808609N01643758WA0000001098
B1428522808608N01643759WA0000001101
B1428532808606N01643760WA0000001102
B1428542808603N01643760WA0000001103
B1428552808600N01643761WA0000001103
B1428562808598N01643763WA0000001105
B1428572808597N01643767WA0000001107
B1428582808597N01643772WA0000001107
B1428592808600N01643777WA0000001107
B1429002808605N01643780WA0000001108
B1429012808611N01643780WA0000001109
B1429022808617N01643778WA0000001111
B1429032808622N01643775WA0000001112
B1429042808627N01643772WA0000001114
B1429052808632N01643769WA0000001116
B1429062808636N01643766WA0000001117
B1429072808642N01643762WA0000001119
B1429082808647N01643759WA0000001120
B1429092808651N01643754WA0000001122
B1429102808654N01643750WA0000001125
B1429112808656N01643745WA0000001129
B1429122808659N01643742WA0000001132
B1429132808662N01643738WA0000001133
B1429142808666N01643733WA0000001133
B1429152808669N01643727WA0000001133
B1429162808671N01643720WA0000001132
B1429172808670N01643712WA0000001131
B1429182808667N01643705WA0000001131
B1429192808663N01643699WA0000001131
B1429202808659N01643695WA0000001133
B1429212808654N01643694WA0000001134
B1429222808650N01643694WA0000001135
B1429232808647N01643694WA0000001136
B1429242808643N01643694WA0000001137
B1429252808640N01643691WA0000001137
B1429262808637N01643688WA0000001136
B1429272808634N01643684WA0000001134
B1429282808630N01643677WA0000001132
B1429292808627N01643671WA0000001132
B1429302808623N01643666WA0000001132
B1429312808623N01643661WA0000001132
B1429322808622N01643655WA0000001132
B1429332808619N01643650WA0000001131
B1429342808617N01643645WA0000001131
B1429352808615N01643640WA0000001131
B1429362808613N01643636WA0000001130
B1429372808610N01643631WA0000001130
B1429382808608N01643627WA0000001128
B1429392808605N01643622WA0000001123
B1429402808602N01643619WA0000001123
B1429412808599N01643616WA0000001121
B1429422808595N01643612WA0000001119
B1429432808592N01643609WA0000001117
B1429442808588N01643605WA0000001116
B1429452808585N01643601WA0000001115
B1429462808583N01643595WA0000001114
B1429472808581N01643589WA0000001114
B1429482808579N01643583WA0000001112
B1429492808578N01643578WA0000001112
B1429502808577N01643573WA0000001112
B1429512808576N01643567WA0000001107
B1429522808574N01643560WA0000001108
B1429532808573N01643554WA0000001107
B1429542808571N01643541WA0000001105
B1429562808571N01643536WA0000001106
B1429572808571N01643532WA0000001106
B1429582808571N01643527WA0000001108
B1429592808570N01643521WA0000001105
B1430002808569N01643515WA0000001103
B1430012808569N01643508WA0000001102
B1430022808569N01643502WA0000001101
B1430032808568N01643497WA0000001099
B1430042808567N01643491WA0000001097
B1430052808566N01643485WA0000001095
B1430062808565N01643480WA0000001094
B1430072808564N01643474WA0000001092
B1430082808562N01643468WA0000001089
B1430092808560N01643462WA0000001088
B1430102808558N01643457WA0000001087
B1430112808556N01643452WA0000001087
B1430122808553N01643448WA0000001087
B1430132808551N01643443WA0000001086
B1430142808549N01643438WA0000001085
B1430152808547N01643434WA0000001084
B1430162808544N01643428WA0000001082
B1430172808542N01643424WA0000001080
B1430182808540N01643419WA0000001078
B1430192808539N01643414WA0000001076
B1430202808538N01643409WA0000001076
B1430212808538N01643405WA0000001076
B1430222808538N01643401WA0000001077
B1430232808538N01643397WA0000001077
B1430242808537N01643392WA0000001077
B1430252808536N01643386WA0000001077
B1430262808536N01643379WA0000001076
B1430272808536N01643373WA0000001078
B1430282808536N01643369WA0000001080
B1430292808536N01643365WA0000001083
B1430302808536N01643362WA0000001084
B1430312808536N01643357WA0000001083
B1430322808535N01643352WA0000001081
B1430332808533N01643346WA0000001079
B1430342808531N01643341WA0000001078
B1430352808529N01643338WA0000001080
B1430362808527N01643335WA0000001081
B1430372808524N01643333WA0000001082
B1430382808523N01643329WA0000001081
B1430392808521N01643323WA0000001080
B1430402808520N01643317WA0000001078
B1430412808519N01643311WA0000001077
B1430422808519N01643306WA0000001078
B1430432808520N01643302WA0000001078
B1430442808521N01643297WA0000001078
B1430452808522N01643292WA0000001078
B1430462808522N01643287WA0000001078
B1430472808522N01643281WA0000001077
B1430482808522N01643276WA0000001077
B1430492808522N01643272WA0000001076
B1430502808521N01643268WA0000001075
B1430512808520N01643263WA0000001073
B1430522808519N01643258WA0000001069
B1430532808519N01643253WA0000001066
B1430542808519N01643247WA0000001065
B1430552808519N01643242WA0000001064
B1430562808518N01643238WA0000001063
B1430572808516N01643233WA0000001061
B1430582808514N01643228WA0000001058
B1430592808511N01643223WA0000001057
B1431002808508N01643219WA0000001055
B1431012808505N01643213WA0000001055
B1431022808502N01643208WA0000001054
B1431032808500N01643203WA0000001052
B1431042808497N01643197WA0000001052
B1431052808495N01643191WA0000001052
B1431062808493N01643184WA0000001051
B1431072808491N01643178WA0000001052
B1431082808490N01643172WA0000001052
B1431092808489N01643166WA0000001052
B1431102808490N01643159WA0000001051
B1431112808491N01643153WA0000001050
B1431122808492N01643146WA0000001051
B1431132808492N01643141WA0000001052
B1431142808491N01643137WA0000001054
B1431152808490N01643133WA0000001056
B1431162808489N01643130WA0000001059
B1431172808489N01643125WA0000001060
B1431182808490N01643119WA0000001060
B1431192808491N01643113WA0000001058
B1431202808493N01643108WA0000001057
B1431212808496N01643101WA0000001057
B1431222808497N01643096WA0000001057
B1431232808498N01643090WA0000001057
B1431242808499N01643084WA0000001058
B1431252808501N01643079WA0000001060
B1431262808503N01643073WA0000001061
B1431272808504N01643068WA0000001062
B1431282808505N01643063WA0000001062
B1431292808504N01643057WA0000001061
B1431302808502N01643051WA0000001059
B1431312808500N01643045WA0000001057
B1431322808498N01643039WA0000001056
B1431332808496N01643034WA0000001056
B1431342808494N01643029WA0000001055
B1431352808492N01643024WA0000001054
B1431362808489N01643021WA0000001054
B1431372808485N01643018WA0000001052
B1431382808480N01643018WA0000001052
B1431392808476N01643018WA0000001051
B1431402808471N01643020WA0000001049
B1431412808467N01643023WA0000001049
B1431422808463N01643025WA0000001048
B1431432808459N01643028WA0000001047
B1431442808455N01643030WA0000001047
B1431452808451N01643031WA0000001046
B1431462808447N01643032WA0000001046
B1431472808442N01643032WA0000001044
B1431482808439N01643031WA0000001042
B1431492808435N01643029WA0000001042
B1431502808432N01643027WA0000001040
B1431512808430N01643023WA0000001038
B1431522808427N01643018WA0000001037
B1431532808425N01643013WA0000001035
B1431542808423N01643002WA0000001032
B1431562808422N01642996WA0000001033
B1431572808421N01642991WA0000001032
B1431582808420N01642985WA0000001030
B1431592808420N01642978WA0000001028
B1432002808420N01642972WA0000001027
B1432012808420N01642964WA0000001027
B1432022808420N01642958WA0000001026
B1432032808418N01642952WA0000001026
B1432042808416N01642947WA0000001026
B1432052808414N01642943WA0000001026
B1432062808412N01642939WA0000001026
B1432072808411N01642935WA0000001026
B1432082808411N01642930WA0000001026
B1432092808411N01642924WA0000001025
B1432102808411N01642917WA0000001025
B1432112808411N01642911WA0000001024
B1432122808410N01642905WA0000001023
B1432132808410N01642900WA0000001022
B1432142808409N01642895WA0000001021
B1432152808407N01642890WA0000001019
B1432162808406N01642884WA0000001018
B1432172808404N01642877WA0000001016
B1432182808403N01642870WA0000001015
B1432192808402N01642863WA0000001014
B1432202808400N01642857WA0000001015
B1432212808400N01642852WA0000001016
B1432222808400N01642847WA0000001017
B1432232808400N01642842WA0000001018
B1432242808401N01642836WA0000001017
B1432252808401N01642830WA0000001015
B1432262808402N01642823WA0000001014
B1432272808403N01642815WA0000001013
B1432282808404N01642809WA0000001014
B1432292808406N01642803WA0000001015
B1432302808408N01642798WA0000001016
B1432312808411N01642794WA0000001016
B1432322808412N01642789WA0000001015
B1432332808413N01642783WA0000001014
B1432342808414N01642778WA0000001013
B1432352808416N01642773WA0000001013
B1432362808418N01642769WA0000001014
B1432372808420N01642764WA0000001015
B1432382808423N01642760WA0000001017
B1432392808426N01642755WA0000001017
B1432402808428N01642751WA0000001018
B1432412808430N01642746WA0000001018
B1432422808430N01642741WA0000001019
B1432432808430N01642736WA0000001020
B1432442808431N01642732WA0000001021
B1432452808433N01642727WA0000001022
B1432462808435N01642723WA0000001024
B1432472808437N01642718WA0000001026
B1432482808439N01642714WA0000001028
B1432492808439N01642709WA0000001030
B1432502808440N01642705WA0000001031
B1432512808439N01642700WA0000001032
B1432522808439N01642695WA0000001033
B1432532808438N01642691WA0000001036
B1432542808438N01642688WA0000001039
B1432552808437N01642686WA0000001042
B1432562808437N01642684WA0000001044
B1432572808435N01642682WA0000001045
B1432582808433N01642680WA0000001045
B1432592808432N01642676WA0000001045
B1433002808430N01642673WA0000001045
B1433012808429N01642669WA0000001045
B1433022808427N01642666WA0000001045
B1433032808424N01642664WA0000001044
B1433042808420N01642664WA0000001041
B1433052808414N01642664WA0000001038
B1433062808407N01642664WA0000001035
B1433072808402N01642664WA0000001034
B1433082808398N01642665WA0000001035
B1433092808395N01642667WA0000001037
B1433102808393N01642670WA0000001038
B1433112808391N01642675WA0000001037
B1433122808388N01642679WA0000001037
B1433132808385N01642683WA0000001036
B1433142808383N01642686WA0000001036
B1433152808381N01642690WA0000001036
B1433162808379N01642693WA0000001037
B1433172808378N01642698WA0000001037
B1433182808378N01642704WA0000001036
B1433192808379N01642710WA0000001037
B1433202808381N01642715WA0000001039
B1433212808384N01642719WA0000001042
B1433222808387N01642722WA0000001045
B1433232808390N01642725WA0000001046
B1433242808393N01642728WA0000001047
B1433252808396N01642732WA0000001046
B1433262808399N01642737WA0000001045
B1433272808403N01642742WA0000001045
B1433282808408N01642745WA0000001046
B1433292808414N01642747WA0000001046
B1433302808420N01642746WA0000001045
B1433312808427N01642742WA0000001045
B1433322808432N01642736WA0000001044
B1433332808435N01642730WA0000001044
B1433342808437N01642724WA0000001045
B1433352808438N01642719WA0000001046
B1433362808438N01642714WA0000001048
B1433372808437N01642710WA0000001050
B1433382808437N01642706WA0000001053
B1433392808437N01642702WA0000001054
B1433402808438N01642698WA0000001055
B1433412808439N01642693WA0000001055
B1433422808441N01642688WA0000001055
B1433432808442N01642682WA0000001053
B1433442808441N01642678WA0000001052
B1433452808439N01642674WA0000001050
B1433462808436N01642671WA0000001049
B1433472808433N01642668WA0000001047
B1433482808428N01642667WA0000001047
B1433492808425N01642667WA0000001048
B1433502808422N01642667WA0000001049
B1433512808418N01642669WA0000001050
B1433522808415N01642672WA0000001049
B1433532808411N01642674WA0000001049
B1433542808405N01642675WA0000001051
B1433562808401N01642674WA0000001052
B1433572808397N01642673WA0000001053
B1433582808394N01642674WA0000001055
B1433592808390N01642674WA0000001055
B1434002808386N01642675WA0000001057
B1434012808382N01642673WA0000001059
B1434022808378N01642672WA0000001060
B1434032808374N01642670WA0000001062
B1434042808371N01642669WA0000001063
B1434052808367N01642670WA0000001066
B1434062808365N01642674WA0000001066
B1434072808364N01642680WA0000001065
B1434082808366N01642687WA0000001063
B1434092808370N01642694WA0000001061
B1434102808376N01642699WA0000001059
B1434112808383N01642701WA0000001058
B1434122808390N01642699WA0000001056
B1434132808397N01642695WA0000001054
B1434142808402N01642689WA0000001052
B1434152808405N01642683WA0000001051
B1434162808407N01642677WA0000001051
B1434172808407N01642670WA0000001052
B1434182808405N01642664WA0000001053
B1434192808402N01642658WA0000001055
B1434202808400N01642653WA0000001058
B1434212808397N01642649WA0000001062
B1434222808394N01642646WA0000001066
B1434232808390N01642646WA0000001069
B1434242808385N01642648WA0000001069
B1434252808380N01642650WA0000001069
B1434262808377N01642654WA0000001070
B1434272808375N01642657WA0000001072
B1434282808376N01642661WA0000001073
B1434292808378N01642667WA0000001071
B1434302808381N01642672WA0000001069
B1434312808386N01642678WA0000001065
B1434322808394N01642680WA0000001064
B1434332808401N01642681WA0000001063
B1434342808409N01642681WA0000001062
B1434352808414N01642672WA0000001061
B1434362808419N01642667WA0000001060
B1434372808419N01642660WA0000001059
B1434382808421N01642655WA0000001061
B1434392808422N01642650WA0000001062
B1434402808424N01642644WA0000001062
B1434412808426N01642638WA0000001061
B1434422808427N01642630WA0000001061
B1434432808428N01642624WA0000001062
B1434442808428N01642618WA0000001065
B1434452808428N01642612WA0000001067
B1434462808428N01642607WA0000001068
B1434472808429N01642601WA0000001068
B1434482808430N01642594WA0000001068
B1434492808431N01642588WA0000001068
B1434502808432N01642582WA0000001069
B1434512808434N01642578WA0000001071
B1434522808436N01642573WA0000001071
B1434532808438N01642568WA0000001070
B1434542808440N01642562WA0000001069
B1434552808441N01642555WA0000001068
B1434562808440N01642549WA0000001068
B1434572808440N01642543WA0000001067
B1434582808438N01642538WA0000001069
B1434592808437N01642534WA0000001071
B1435002808437N01642530WA0000001072
B1435012808436N01642525WA0000001074
B1435022808436N01642520WA0000001076
B1435032808437N01642516WA0000001076
B1435042808437N01642511WA0000001076
B1435052808436N01642507WA0000001075
B1435062808433N01642503WA0000001075
B1435072808430N01642499WA0000001073
B1435082808425N01642498WA0000001072
B1435092808421N01642499WA0000001071
B1435102808418N01642501WA0000001071
B1435112808416N01642503WA0000001071
B1435122808414N01642505WA0000001072
B1435132808413N01642508WA0000001074
B1435142808412N01642509WA0000001075
B1435152808410N01642511WA0000001076
B1435162808408N01642514WA0000001075
B1435172808406N01642516WA0000001074
B1435182808404N01642519WA0000001074
B1435192808403N01642523WA0000001074
B1435202808403N01642526WA0000001073
B1435212808404N01642532WA0000001072
B1435222808405N01642537WA0000001072
B1435232808405N01642542WA0000001072
B1435242808404N01642546WA0000001071
B1435252808401N01642549WA0000001068
B1435262808398N01642551WA0000001066
B1435272808395N01642552WA0000001065
B1435282808391N01642552WA0000001063
B1435292808387N01642552WA0000001061
B1435302808382N01642552WA0000001060
B1435312808379N01642550WA0000001060
B1435322808377N01642547WA0000001060
B1435332808376N01642542WA0000001060
B1435342808375N01642538WA0000001059
B1435352808375N01642533WA0000001058
B1435362808374N01642530WA0000001059
B1435372808374N01642526WA0000001059
B1435382808373N01642522WA0000001058
B1435392808373N01642518WA0000001057
B1435402808373N01642513WA0000001055
B1435412808374N01642508WA0000001052
B1435422808374N01642503WA0000001049
B1435432808372N01642498WA0000001047
B1435442808370N01642494WA0000001045
B1435452808366N01642492WA0000001044
B1435462808363N01642491WA0000001043
B1435472808361N01642490WA0000001042
B1435482808358N01642490WA0000001041
B1435492808355N01642490WA0000001039
B1435502808352N01642490WA0000001037
B1435512808348N01642490WA0000001035
B1435522808344N01642491WA0000001033
B1435532808340N01642493WA0000001031
B1435542808333N01642498WA0000001028
B1435562808329N01642500WA0000001028
B1435572808324N01642501WA0000001028
B1435582808319N01642502WA0000001027
B1435592808316N01642503WA0000001028
B1436002808313N01642505WA0000001030
B1436012808310N01642506WA0000001031
B1436022808307N01642507WA0000001031
B1436032808304N01642508WA0000001031
B1436042808300N01642509WA0000001029
B1436052808296N01642509WA0000001029
B1436062808291N01642509WA0000001028
B1436072808287N01642509WA0000001030
B1436082808283N01642509WA0000001031
B1436092808280N01642509WA0000001031
B1436102808276N01642510WA0000001032
B1436112808272N01642510WA0000001031
B1436122808268N01642510WA0000001031
B1436132808263N01642510WA0000001031
B1436142808260N01642512WA0000001032
B1436152808256N01642513WA0000001032
B1436162808252N01642514WA0000001030
B1436172808248N01642515WA0000001029
B1436182808244N01642515WA0000001027
B1436192808240N01642514WA0000001026
B1436202808236N01642513WA0000001025
B1436212808232N01642513WA0000001024
B1436222808229N01642513WA0000001023
B1436232808225N01642513WA0000001022
B1436242808221N01642513WA0000001021
B1436252808217N01642512WA0000001019
B1436262808212N01642512WA0000001019
B1436272808208N01642512WA0000001018
B1436282808203N01642513WA0000001018
B1436292808199N01642515WA0000001017
B1436302808195N01642518WA0000001015
B1436312808190N01642521WA0000001014
B1436322808185N01642524WA0000001012
B1436332808180N01642526WA0000001012
B1436342808176N01642528WA0000001012
B1436352808172N01642531WA0000001012
B1436362808168N01642534WA0000001011
B1436372808164N01642536WA0000001009
B1436382808159N01642538WA0000001007
B1436392808154N01642539WA0000001005
B1436402808148N01642540WA0000001004
B1436412808143N01642541WA0000001003
B1436422808138N01642541WA0000001004
B1436432808134N01642542WA0000001004
B1436442808129N01642542WA0000001003
B1436452808123N01642542WA0000001002
B1436462808117N01642542WA0000001000
B1436472808111N01642541WA0000000999
B1436482808105N01642540WA0000000998
B1436492808100N01642539WA0000000997
B1436502808094N01642538WA0000000997
B1436512808089N01642537WA0000000997
B1436522808084N01642536WA0000000997
B1436532808078N01642534WA0000000996
B1436542808073N01642533WA0000000995
B1436552808067N01642531WA0000000995
B1436562808063N01642531WA0000000998
B1436572808062N01642533WA0000001003
B1436582808061N01642537WA0000001006
B1436592808062N01642542WA0000001006
B1437002808062N01642548WA0000001005
B1437012808060N01642552WA0000001005
B1437022808056N01642553WA0000001005
B1437032808052N01642550WA0000001004
B1437042808048N01642546WA0000001003
B1437052808046N01642540WA0000001004
B1437062808045N01642536WA0000001006
B1437072808043N01642532WA0000001008
B1437082808042N01642528WA0000001010
B1437092808040N01642524WA0000001011
B1437102808037N01642519WA0000001012
B1437112808035N01642514WA0000001013
B1437122808032N01642508WA0000001013
B1437132808029N01642503WA0000001015
B1437142808027N01642498WA0000001017
B1437152808025N01642492WA0000001018
B1437162808022N01642487WA0000001019
B1437172808020N01642481WA0000001020
B1437182808018N01642476WA0000001022
B1437192808015N01642471WA0000001023
B1437202808012N01642467WA0000001025
B1437212808009N01642466WA0000001027
B1437222808006N01642466WA0000001027
B1437232808002N01642468WA0000001026
B1437242807998N01642471WA0000001025
B1437252807994N01642474WA0000001025
B1437262807991N01642475WA0000001026
B1437272807987N01642473WA0000001027
B1437282807983N01642470WA0000001026
B1437292807980N01642466WA0000001026
B1437302807978N01642462WA0000001026
B1437312807976N01642457WA0000001026
B1437322807974N01642452WA0000001026
B1437332807974N01642444WA0000001026
B1437342807973N01642437WA0000001025
B1437352807973N01642430WA0000001027
B1437362807973N01642424WA0000001029
B1437372807973N01642419WA0000001032
B1437382807973N01642414WA0000001034
B1437392807974N01642409WA0000001035
B1437402807974N01642403WA0000001036
B1437412807973N01642397WA0000001036
B1437422807971N01642392WA0000001038
B1437432807969N01642387WA0000001038
B1437442807966N01642383WA0000001038
B1437452807965N01642377WA0000001039
B1437462807966N01642370WA0000001039
B1437472807969N01642363WA0000001038
B1437482807973N01642357WA0000001039
B1437492807979N01642352WA0000001039
B1437502807986N01642349WA0000001039
B1437512807993N01642349WA0000001040
B1437522807999N01642351WA0000001040
B1437532808004N01642355WA0000001041
B1437542808009N01642364WA0000001044
B1437562808009N01642369WA0000001044
B1437572808008N01642373WA0000001046
B1437582808006N01642377WA0000001047
B1438002808004N01642385WA0000001052
B1438012808004N01642390WA0000001052
B1438022808006N01642395WA0000001054
B1438032808007N01642400WA0000001055
B1438042808006N01642405WA0000001058
B1438052808004N01642408WA0000001058
B1438062808000N01642410WA0000001058
B1438072807994N01642411WA0000001058
B1438082807990N01642408WA0000001059
B1438092807986N01642404WA0000001061
B1438102807985N01642398WA0000001063
B1438112807985N01642392WA0000001064
B1438122807986N01642385WA0000001064
B1438132807988N01642378WA0000001066
B1438142807992N01642373WA0000001067
B1438152807997N01642368WA0000001067
B1438162808002N01642364WA0000001068
B1438172808008N01642362WA0000001069
B1438182808014N01642360WA0000001070
B1438192808021N01642360WA0000001070
B1438202808027N01642363WA0000001071
B1438212808032N01642366WA0000001072
B1438222808035N01642372WA0000001073
B1438232808035N01642377WA0000001073
B1438242808033N01642382WA0000001074
B1438252808030N01642386WA0000001075
B1438262808027N01642388WA0000001077
B1438272808024N01642390WA0000001078
B1438282808021N01642392WA0000001080
B1438292808018N01642392WA0000001080
B1438302808013N01642392WA0000001081
B1438312808009N01642392WA0000001080
B1438322808004N01642390WA0000001082
B1438332808001N01642387WA0000001083
B1438342807998N01642383WA0000001085
B1438352807995N01642379WA0000001087
B1438362807993N01642375WA0000001088
B1438372807992N01642371WA0000001089
B1438382807990N01642367WA0000001090
B1438392807989N01642362WA0000001090
B1438402807988N01642358WA0000001092
B1438412807988N01642353WA0000001092
B1438422807988N01642347WA0000001093
B1438432807988N01642341WA0000001093
B1438442807987N01642335WA0000001095
B1438452807985N01642331WA0000001096
B1438462807983N01642330WA0000001098
B1438472807980N01642330WA0000001099
B1438482807977N01642331WA0000001100
B1438492807974N01642333WA0000001103
B1438502807972N01642334WA0000001106
B1438512807970N01642335WA0000001110
B1438522807967N01642334WA0000001112
B1438532807964N01642333WA0000001113
B1438542807960N01642331WA0000001114
B1438552807957N01642328WA0000001116
B1438562807955N01642322WA0000001117
B1438572807956N01642315WA0000001118
B1438582807959N01642308WA0000001118
B1438592807963N01642303WA0000001120
B1439002807969N01642298WA0000001122
B1439012807975N01642296WA0000001124
B1439022807981N01642294WA0000001125
B1439032807986N01642292WA0000001128
B1439042807992N01642291WA0000001130
B1439052807998N01642290WA0000001132
B1439062808005N01642291WA0000001134
B1439072808011N01642293WA0000001136
B1439082808016N01642297WA0000001138
B1439092808018N01642303WA0000001139
B1439102808019N01642309WA0000001142
B1439112808019N01642316WA0000001146
B1439122808019N01642320WA0000001149
B1439132808019N01642324WA0000001152
B1439142808020N01642327WA0000001154
B1439152808020N01642331WA0000001156
B1439162808020N01642336WA0000001156
B1439172808019N01642340WA0000001157
B1439182808017N01642344WA0000001160
B1439192808014N01642345WA0000001162
B1439202808010N01642345WA0000001163
B1439212808007N01642343WA0000001163
B1439222808004N01642340WA0000001164
B1439232808001N01642336WA0000001166
B1439242807999N01642331WA0000001166
B1439252807998N01642324WA0000001166
B1439262807997N01642318WA0000001167
B1439272807997N01642313WA0000001170
B1439282807997N01642308WA0000001173
B1439292807997N01642304WA0000001176
B1439302807997N01642299WA0000001177
B1439312807998N01642293WA0000001178
B1439322808000N01642287WA0000001178
B1439332808002N01642282WA0000001181
B1439342808006N01642278WA0000001184
B1439352808010N01642275WA0000001186
B1439362808015N01642274WA0000001188
B1439372808020N01642274WA0000001188
B1439382808025N01642274WA0000001189
B1439392808030N01642275WA0000001189
B1439402808036N01642278WA0000001190
B1439412808041N01642281WA0000001191
B1439422808046N01642285WA0000001192
B1439432808051N01642288WA0000001192
B1439442808055N01642293WA0000001193
B1439452808059N01642299WA0000001193
B1439462808061N01642306WA0000001193
B1439472808062N01642313WA0000001194
B1439482808061N01642319WA0000001194
B1439492808059N01642324WA0000001196
B1439502808057N01642328WA0000001197
B1439512808055N01642331WA0000001199
B1439522808054N01642333WA0000001200
B1439532808052N01642336WA0000001201
B1439542808050N01642337WA0000001203
B1439552808046N01642337WA0000001203
B1439562808042N01642336WA0000001202
B1439572808039N01642333WA0000001202
B1439582808035N01642330WA0000001202
B1439592808033N01642326WA0000001204
B1440002808031N01642321WA0000001204
B1440012808029N01642316WA0000001205
B1440022808029N01642311WA0000001206
B1440032808028N01642306WA0000001208
B1440042808028N01642301WA0000001209
B1440052808027N01642296WA0000001211
B1440062808026N01642292WA0000001214
B1440072808027N01642288WA0000001217
B1440082808028N01642284WA0000001221
B1440092808029N01642280WA0000001223
B1440102808031N01642275WA0000001226
B1440112808032N01642271WA0000001229
B1440122808033N01642267WA0000001232
B1440132808034N01642263WA0000001233
B1440142808035N01642260WA0000001234
B1440152808038N01642257WA0000001234
B1440162808042N01642253WA0000001233
B1440172808047N01642251WA0000001232
B1440182808053N01642251WA0000001232
B1440192808059N01642254WA0000001232
B1440202808063N01642260WA0000001231
B1440212808064N01642268WA0000001229
B1440222808063N01642276WA0000001227
B1440232808059N01642281WA0000001226
B1440242808056N01642284WA0000001228
B1440252808053N01642284WA0000001230
B1440262808051N01642284WA0000001232
B1440272808048N01642283WA0000001233
B1440282808046N01642281WA0000001233
B1440292808042N01642280WA0000001234
B1440302808038N01642278WA0000001237
B1440312808036N01642276WA0000001241
B1440322808034N01642273WA0000001246
B1440332808033N01642269WA0000001251
B1440342808032N01642266WA0000001255
B1440352808031N01642262WA0000001258
B1440362808029N01642259WA0000001260
B1440372808028N01642254WA0000001261
B1440382808029N01642249WA0000001261
B1440392808030N01642243WA0000001261
B1440402808035N01642239WA0000001260
B1440412808041N01642237WA0000001258
B1440422808047N01642238WA0000001257
B1440432808052N01642241WA0000001256
B1440442808056N01642246WA0000001257
B1440452808059N01642251WA0000001257
B1440462808062N01642263WA0000001258
B1440482808063N01642270WA0000001258
B1440492808063N01642277WA0000001258
B1440502808061N01642283WA0000001260
B1440512808059N01642287WA0000001263
B1440522808057N01642292WA0000001266
B1440532808056N01642298WA0000001270
B1440542808057N01642304WA0000001274
B1440552808058N01642310WA0000001278
B1440562808060N01642315WA0000001280
B1440572808060N01642321WA0000001282
B1440582808058N01642326WA0000001284
B1440592808054N01642330WA0000001285
B1441002808049N01642333WA0000001285
B1441012808044N01642333WA0000001286
B1441022808039N01642331WA0000001288
B1441032808036N01642328WA0000001290
B1441042808034N01642323WA0000001291
B1441052808032N01642318WA0000001292
B1441062808031N01642312WA0000001293
B1441072808030N01642306WA0000001294
B1441082808031N01642301WA0000001295
B1441092808032N01642296WA0000001298
B1441102808034N01642293WA0000001303
B1441112808036N01642291WA0000001307
B1441122808039N01642290WA0000001311
B1441132808042N01642289WA0000001312
B1441142808046N01642288WA0000001312
B1441152808050N01642288WA0000001312
B1441162808055N01642288WA0000001313
B1441172808059N01642291WA0000001314
B1441182808063N01642294WA0000001317
B1441192808067N01642298WA0000001319
B1441202808070N01642303WA0000001319
B1441212808073N01642308WA0000001320
B1441222808077N01642314WA0000001323
B1441232808082N01642318WA0000001326
B1441242808088N01642320WA0000001327
B1441252808092N01642323WA0000001330
B1441262808097N01642326WA0000001332
B1441272808100N01642332WA0000001333
B1441282808102N01642339WA0000001333
B1441292808105N01642346WA0000001333
B1441302808108N01642354WA0000001333
B1441312808110N01642360WA0000001335
B1441322808112N01642367WA0000001337
B1441332808111N01642373WA0000001338
B1441342808109N01642379WA0000001336
B1441352808107N01642385WA0000001333
B1441362808105N01642391WA0000001334
B1441372808103N01642396WA0000001333
B1441382808102N01642401WA0000001333
B1441392808101N01642407WA0000001333
B1441402808100N01642412WA0000001331
B1441412808098N01642418WA0000001330
B1441422808096N01642422WA0000001329
B1441432808092N01642426WA0000001329
B1441442808088N01642429WA0000001328
B1441452808083N01642430WA0000001328
B1441462808079N01642430WA0000001328
B1441472808074N01642430WA0000001328
B1441482808070N01642428WA0000001327
B1441492808066N01642427WA0000001327
B1441502808062N01642425WA0000001324
B1441512808059N01642422WA0000001323
B1441522808057N01642419WA0000001321
B1441532808054N01642416WA0000001320
B1441542808052N01642412WA0000001319
B1441552808050N01642409WA0000001319
B1441562808048N01642406WA0000001319
B1441572808047N01642403WA0000001318
B1441582808047N01642398WA0000001317
B1441592808046N01642394WA0000001315
B1442002808045N01642390WA0000001314
B1442012808044N01642387WA0000001313
B1442022808043N01642384WA0000001313
B1442032808042N01642382WA0000001313
B1442042808042N01642380WA0000001314
B1442052808043N01642378WA0000001313
B1442062808043N01642376WA0000001312
B1442072808042N01642374WA0000001311
B1442082808040N01642373WA0000001310
B1442092808037N01642373WA0000001308
B1442102808035N01642373WA0000001308
B1442112808033N01642373WA0000001306
B1442122808031N01642372WA0000001304
B1442132808029N01642370WA0000001301
B1442142808027N01642367WA0000001298
B1442152808025N01642364WA0000001295
B1442162808023N01642361WA0000001293
B1442172808022N01642358WA0000001292
B1442182808022N01642355WA0000001291
B1442192808023N01642351WA0000001289
B1442202808025N01642347WA0000001286
B1442212808027N01642344WA0000001284
B1442222808029N01642340WA0000001284
B1442232808031N01642337WA0000001285
B1442242808033N01642334WA0000001284
B1442252808035N01642331WA0000001283
B1442262808037N01642328WA0000001280
B1442272808038N01642325WA0000001278
B1442282808040N01642321WA0000001277
B1442292808041N01642317WA0000001276
B1442302808041N01642314WA0000001276
B1442312808042N01642310WA0000001276
B1442322808042N01642306WA0000001275
B1442332808043N01642301WA0000001275
B1442342808044N01642297WA0000001273
B1442352808045N01642292WA0000001272
B1442362808045N01642287WA0000001271
B1442372808046N01642282WA0000001270
B1442382808046N01642278WA0000001270
B1442392808046N01642273WA0000001269
B1442402808048N01642269WA0000001268
B1442412808050N01642264WA0000001267
B1442422808052N01642260WA0000001267
B1442432808054N01642256WA0000001266
B1442442808056N01642251WA0000001265
B1442452808058N01642246WA0000001263
B1442462808063N01642238WA0000001258
B1442482808067N01642233WA0000001259
B1442492808070N01642228WA0000001258
B1442502808073N01642225WA0000001257
B1442512808075N01642221WA0000001256
B1442522808077N01642217WA0000001255
B1442532808078N01642211WA0000001253
B1442542808078N01642206WA0000001251
B1442552808078N01642201WA0000001250
B1442562808077N01642197WA0000001249
B1442572808076N01642192WA0000001248
B1442582808075N01642188WA0000001246
B1442592808074N01642184WA0000001244
B1443002808073N01642179WA0000001242
B1443012808073N01642174WA0000001241
B1443022808072N01642168WA0000001239
B1443032808072N01642163WA0000001238
B1443042808072N01642157WA0000001236
B1443052808073N01642152WA0000001236
B1443062808074N01642147WA0000001234
B1443072808074N01642143WA0000001233
B1443082808073N01642138WA0000001230
B1443092808072N01642132WA0000001229
B1443102808071N01642126WA0000001226
B1443112808070N01642120WA0000001225
B1443122808069N01642115WA0000001225
B1443132808069N01642109WA0000001225
B1443142808069N01642104WA0000001225
B1443152808069N01642099WA0000001225
B1443162808069N01642093WA0000001224
B1443172808068N01642088WA0000001223
B1443182808067N01642082WA0000001223
B1443192808066N01642077WA0000001223
B1443202808065N01642072WA0000001223
B1443212808064N01642067WA0000001222
B1443222808062N01642062WA0000001221
B1443232808060N01642056WA0000001218
B1443242808058N01642051WA0000001215
B1443252808055N01642045WA0000001213
B1443262808053N01642040WA0000001212
B1443272808051N01642035WA0000001212
B1443282808049N01642030WA0000001212
B1443292808047N01642025WA0000001212
B1443302808045N01642019WA0000001211
B1443312808044N01642013WA0000001209
B1443322808043N01642007WA0000001209
B1443332808044N01642001WA0000001210
B1443342808045N01641995WA0000001210
B1443352808046N01641989WA0000001210
B1443362808047N01641983WA0000001210
B1443372808048N01641976WA0000001209
B1443382808049N01641969WA0000001209
B1443392808051N01641963WA0000001210
B1443402808054N01641957WA0000001211
B1443412808057N01641950WA0000001211
B1443422808061N01641944WA0000001211
B1443432808064N01641938WA0000001211
B1443442808066N01641932WA0000001211
B1443452808068N01641926WA0000001212
B1443462808069N01641920WA0000001213
B1443472808071N01641914WA0000001213
B1443482808073N01641908WA0000001213
B1443492808075N01641902WA0000001213
B1443502808076N01641896WA0000001214
B1443512808077N01641890WA0000001214
B1443522808077N01641884WA0000001215
B1443532808078N01641878WA0000001213
B1443542808079N01641872WA0000001211
B1443552808082N01641864WA0000001209
B1443562808087N01641857WA0000001206
B1443572808093N01641851WA0000001204
B1443582808099N01641847WA0000001203
B1443592808104N01641844WA0000001203
B1444002808108N01641842WA0000001204
B1444012808113N01641841WA0000001205
B1444022808118N01641840WA0000001205
B1444032808122N01641838WA0000001204
B1444042808128N01641836WA0000001203
B1444052808133N01641835WA0000001202
B1444062808138N01641833WA0000001202
B1444072808143N01641832WA0000001201
B1444082808148N01641831WA0000001199
B1444092808153N01641831WA0000001197
B1444102808158N01641833WA0000001194
B1444112808162N01641838WA0000001191
B1444122808164N01641844WA0000001188
B1444132808163N01641850WA0000001187
B1444142808160N01641854WA0000001187
B1444152808158N01641856WA0000001187
B1444162808156N01641857WA0000001188
B1444172808153N01641859WA0000001187
B1444182808149N01641862WA0000001186
B1444192808145N01641865WA0000001185
B1444202808141N01641867WA0000001185
B1444212808137N01641868WA0000001185
B1444222808133N01641869WA0000001186
B1444232808129N01641869WA0000001187
B1444242808126N01641869WA0000001187
B1444252808122N01641868WA0000001186
B1444262808119N01641867WA0000001185
B1444272808115N01641865WA0000001184
B1444282808111N01641863WA0000001183
B1444292808107N01641861WA0000001183
B1444302808104N01641860WA0000001183
B1444312808101N01641859WA0000001182
B1444322808098N01641858WA0000001180
B1444332808094N01641857WA0000001178
B1444342808090N01641856WA0000001176
B1444352808086N01641856WA0000001173
B1444362808082N01641855WA0000001171
B1444372808078N01641854WA0000001168
B1444382808074N01641853WA0000001166
B1444392808070N01641852WA0000001165
B1444402808067N01641852WA0000001162
B1444412808063N01641851WA0000001160
B1444422808059N01641851WA0000001158
B1444432808054N01641850WA0000001155
B1444442808050N01641849WA0000001153
B1444452808046N01641847WA0000001151
B1444462808038N01641842WA0000001146
B1444482808033N01641838WA0000001146
B1444492808029N01641835WA0000001145
B1444502808024N01641833WA0000001142
B1444512808019N01641832WA0000001139
B1444522808014N01641831WA0000001138
B1444532808009N01641830WA0000001137
B1444542808004N01641829WA0000001135
B1444552807999N01641828WA0000001133
B1444562807995N01641829WA0000001132
B1444572807991N01641832WA0000001132
B1444582807990N01641836WA0000001132
B1444592807990N01641841WA0000001132
B1445002807988N01641846WA0000001130
B1445012807985N01641850WA0000001129
B1445022807982N01641853WA0000001127
B1445032807978N01641856WA0000001126
B1445042807974N01641859WA0000001125
B1445052807970N01641862WA0000001125
B1445062807968N01641866WA0000001124
B1445072807965N01641870WA0000001124
B1445082807963N01641875WA0000001124
B1445092807961N01641880WA0000001122
B1445102807958N01641886WA0000001121
B1445112807955N01641891WA0000001120
B1445122807952N01641896WA0000001120
B1445132807949N01641900WA0000001120
B1445142807947N01641905WA0000001119
B1445152807944N01641909WA0000001118
B1445162807940N01641912WA0000001117
B1445172807936N01641915WA0000001114
B1445182807932N01641916WA0000001112
B1445192807928N01641919WA0000001109
B1445202807924N01641922WA0000001106
B1445212807920N01641924WA0000001104
B1445222807916N01641927WA0000001103
B1445232807912N01641930WA0000001102
B1445242807907N01641932WA0000001100
B1445252807903N01641935WA0000001099
B1445262807899N01641938WA0000001098
B1445272807895N01641942WA0000001096
B1445282807891N01641945WA0000001095
B1445292807887N01641948WA0000001096
B1445302807883N01641951WA0000001095
B1445312807879N01641954WA0000001095
B1445322807876N01641958WA0000001094
B1445332807872N01641963WA0000001092
B1445342807867N01641967WA0000001090
B1445352807862N01641970WA0000001090
B1445362807858N01641973WA0000001090
B1445372807854N01641975WA0000001091
B1445382807850N01641979WA0000001091
B1445392807847N01641982WA0000001090
B1445402807843N01641986WA0000001088
B1445412807838N01641989WA0000001086
B1445422807833N01641993WA0000001084
B1445432807828N01641995WA0000001083
B1445442807823N01641996WA0000001082
B1445452807817N01641998WA0000001083
B1445462807812N01642000WA0000001083
B1445472807807N01642002WA0000001082
B1445482807802N01642005WA0000001083
B1445492807797N01642007WA0000001083
B1445502807792N01642007WA0000001084
B1445512807788N01642008WA0000001084
B1445522807784N01642008WA0000001084
B1445532807781N01642009WA0000001085
B1445542807778N01642011WA0000001084
B1445552807776N01642014WA0000001083
B1445562807772N01642018WA0000001080
B1445572807768N01642021WA0000001077
B1445582807763N01642023WA0000001075
B1445592807758N01642023WA0000001075
B1446002807753N01642023WA0000001074
B1446012807748N01642023WA0000001074
B1446022807743N01642023WA0000001073
B1446032807738N01642024WA0000001072
B1446042807733N01642024WA0000001070
B1446052807728N01642025WA0000001069
B1446062807723N01642026WA0000001068
B1446072807718N01642027WA0000001065
B1446082807714N01642029WA0000001063
B1446092807709N01642031WA0000001061
B1446102807704N01642034WA0000001058
B1446112807699N01642036WA0000001057
B1446122807695N01642037WA0000001055
B1446132807689N01642038WA0000001053
B1446142807684N01642039WA0000001050
B1446152807678N01642040WA0000001048
B1446162807672N01642042WA0000001046
B1446172807668N01642044WA0000001045
B1446182807663N01642045WA0000001044
B1446192807659N01642047WA0000001042
B1446202807654N01642048WA0000001039
B1446212807647N01642048WA0000001036
B1446222807641N01642049WA0000001033
B1446232807636N01642051WA0000001031
B1446242807632N01642054WA0000001031
B1446252807627N01642056WA0000001030
B1446262807623N01642059WA0000001029
B1446272807618N01642061WA0000001028
B1446282807612N01642062WA0000001026
B1446292807607N01642064WA0000001024
B1446302807601N01642066WA0000001024
B1446312807596N01642067WA0000001025
B1446322807592N01642069WA0000001024
B1446332807587N01642071WA0000001023
B1446342807582N01642073WA0000001022
B1446352807578N01642075WA0000001020
B1446362807576N01642078WA0000001019
B1446372807573N01642081WA0000001019
B1446382807570N01642083WA0000001019
B1446392807566N01642084WA0000001018
B1446402807562N01642085WA0000001016
B1446412807558N01642085WA0000001014
B1446422807554N01642087WA0000001012
B1446432807550N01642089WA0000001010
B1446442807546N01642091WA0000001009
B1446452807543N01642093WA0000001008
B1446462807540N01642096WA0000001006
B1446482807531N01642101WA0000001001
B1446492807528N01642102WA0000001002
B1446502807525N01642104WA0000001002
B1446512807523N01642106WA0000001003
B1446522807520N01642108WA0000001002
B1446532807517N01642109WA0000000999
B1446542807513N01642111WA0000000997
B1446552807509N01642112WA0000000993
B1446562807505N01642115WA0000000990
B1446572807501N01642117WA0000000989
B1446582807497N01642118WA0000000987
B1446592807494N01642120WA0000000985
B1447002807490N01642122WA0000000984
B1447012807486N01642125WA0000000982
B1447022807482N01642126WA0000000980
B1447032807478N01642128WA0000000977
B1447042807473N01642129WA0000000975
B1447052807468N01642130WA0000000975
B1447062807465N01642130WA0000000974
B1447072807461N01642131WA0000000973
B1447082807457N01642132WA0000000972
B1447092807453N01642133WA0000000971
B1447102807449N01642135WA0000000968
B1447112807444N01642137WA0000000966
B1447122807439N01642139WA0000000964
B1447132807434N01642141WA0000000963
B1447142807430N01642143WA0000000962
B1447152807426N01642144WA0000000962
B1447162807422N01642145WA0000000962
B1447172807418N01642147WA0000000961
B1447182807413N01642148WA0000000960
B1447192807408N01642148WA0000000960
B1447202807403N01642149WA0000000959
B1447212807398N01642150WA0000000961
B1447222807394N01642151WA0000000963
B1447232807390N01642151WA0000000964
B1447242807385N01642153WA0000000964
B1447252807381N01642155WA0000000964
B1447262807376N01642155WA0000000965
B1447272807371N01642156WA0000000966
B1447282807366N01642154WA0000000967
B1447292807361N01642151WA0000000967
B1447302807356N01642149WA0000000967
B1447312807351N01642149WA0000000966
B1447322807347N01642150WA0000000965
B1447332807344N01642152WA0000000963
B1447342807340N01642154WA0000000962
B1447352807337N01642156WA0000000961
B1447362807332N01642156WA0000000960
B1447372807328N01642156WA0000000959
B1447382807324N01642155WA0000000959
B1447392807321N01642154WA0000000959
B1447402807317N01642154WA0000000959
B1447412807313N01642153WA0000000958
B1447422807308N01642153WA0000000959
B1447432807304N01642152WA0000000959
B1447442807301N01642149WA0000000960
B1447452807297N01642147WA0000000960
B1447462807294N01642143WA0000000959
B1447472807291N01642139WA0000000959
B1447482807288N01642135WA0000000958
B1447492807284N01642131WA0000000958
B1447502807280N01642128WA0000000958
B1447512807275N01642127WA0000000958
B1447522807270N01642126WA0000000958
B1447532807265N01642126WA0000000958
B1447542807261N01642126WA0000000960
B1447552807257N01642127WA0000000960
B1447562807253N01642127WA0000000962
B1447572807249N01642127WA0000000964
B1447582807245N01642126WA0000000966
B1447592807242N01642126WA0000000969
B1448002807239N01642125WA0000000972
B1448012807236N01642124WA0000000973
B1448022807233N01642125WA0000000974
B1448032807230N01642127WA0000000976
B1448042807227N01642129WA0000000979
B1448052807225N01642132WA0000000981
B1448062807224N01642135WA0000000983
B1448072807224N01642139WA0000000986
B1448082807224N01642141WA0000000989
B1448092807225N01642143WA0000000991
B1448102807226N01642146WA0000000991
B1448112807228N01642151WA0000000990
B1448122807230N01642155WA0000000990
B1448132807234N01642159WA0000000990
B1448142807239N01642161WA0000000991
B1448152807246N01642160WA0000000990
B1448162807253N01642156WA0000000988
B1448172807258N01642150WA0000000987
B1448182807261N01642142WA0000000988
B1448192807261N01642136WA0000000989
B1448202807261N01642130WA0000000991
B1448212807261N01642124WA0000000994
B1448222807261N01642119WA0000000996
B1448232807262N01642114WA0000000998
B1448242807261N01642108WA0000000998
B1448252807259N01642104WA0000000998
B1448262807255N01642100WA0000000999
B1448272807250N01642099WA0000000999
B1448282807246N01642102WA0000001000
B1448292807243N01642106WA0000001003
B1448302807243N01642111WA0000001006
B1448312807244N01642115WA0000001010
B1448322807248N01642119WA0000001013
B1448332807253N01642121WA0000001015
B1448342807260N01642121WA0000001016
B1448352807266N01642119WA0000001016
B1448362807269N01642110WA0000001016
B1448372807270N01642102WA0000001017
B1448382807268N01642096WA0000001019
B1448392807264N01642092WA0000001021
B1448402807259N01642091WA0000001024
B1448412807255N01642092WA0000001027
B1448422807251N01642093WA0000001029
B1448432807247N01642094WA0000001032
B1448442807244N01642096WA0000001035
B1448452807241N01642099WA0000001038
B1448462807239N01642103WA0000001040
B1448482807235N01642112WA0000001045
B1448492807238N01642116WA0000001045
B1448502807241N01642119WA0000001046
B1448512807245N01642123WA0000001047
B1448522807249N01642126WA0000001046
B1448532807255N01642126WA0000001047
B1448542807261N01642126WA0000001048
B1448552807266N01642120WA0000001048
B1448562807269N01642114WA0000001048
B1448572807269N01642107WA0000001048
B1448582807269N01642101WA0000001049
B1448592807266N01642097WA0000001052
B1449002807263N01642094WA0000001054
B1449012807259N01642094WA0000001056
B1449022807255N01642095WA0000001059
B1449032807251N01642096WA0000001063
B1449042807249N01642098WA0000001067
B1449052807247N01642100WA0000001071
B1449062807246N01642102WA0000001073
B1449072807244N01642104WA0000001075
B1449082807242N01642107WA0000001075
B1449092807241N01642111WA0000001075
B1449102807240N01642116WA0000001074
B1449112807242N01642122WA0000001073
B1449122807246N01642128WA0000001073
B1449132807250N01642134WA0000001075
B1449142807255N01642136WA0000001078
B1449152807259N01642136WA0000001082
B1449162807263N01642133WA0000001084
B1449172807268N01642130WA0000001085
B1449182807272N01642126WA0000001087
B1449192807277N01642122WA0000001087
B1449202807281N01642117WA0000001088
B1449212807284N01642112WA0000001090
B1449222807285N01642107WA0000001091
B1449232807287N01642101WA0000001092
B1449242807288N01642096WA0000001094
B1449252807290N01642091WA0000001096
B1449262807291N01642087WA0000001098
B1449272807292N01642083WA0000001099
B1449282807291N01642078WA0000001099
B1449292807289N01642073WA0000001100
B1449302807285N01642070WA0000001101
B1449312807282N01642069WA0000001103
B1449322807278N01642069WA0000001106
B1449332807276N01642071WA0000001109
B1449342807274N01642074WA0000001112
B1449352807272N01642077WA0000001113
B1449362807270N01642080WA0000001114
B1449372807267N01642082WA0000001115
B1449382807265N01642084WA0000001118
B1449392807265N01642086WA0000001121
B1449402807264N01642089WA0000001121
B1449412807264N01642093WA0000001123
B1449422807265N01642097WA0000001125
B1449432807268N01642102WA0000001125
B1449442807273N01642105WA0000001126
B1449452807280N01642107WA0000001126
B1449462807286N01642106WA0000001128
B1449472807291N01642103WA0000001129
B1449482807296N01642098WA0000001131
B1449492807299N01642092WA0000001133
B1449502807302N01642087WA0000001136
B1449512807304N01642081WA0000001139
B1449522807306N01642076WA0000001141
B1449532807308N01642072WA0000001144
B1449542807310N01642068WA0000001147
B1449552807312N01642065WA0000001149
B1449562807313N01642062WA0000001151
B1449572807314N01642059WA0000001151
B1449582807314N01642055WA0000001151
B1449592807311N01642053WA0000001151
B1450002807307N01642053WA0000001150
B1450012807303N01642054WA0000001149
B1450022807299N01642057WA0000001150
B1450032807297N01642061WA0000001151
B1450042807296N01642066WA0000001153
B1450052807297N01642071WA0000001154
B1450062807298N01642076WA0000001155
B1450072807299N01642081WA0000001155
B1450082807301N01642086WA0000001155
B1450092807304N01642092WA0000001155
B1450102807310N01642096WA0000001155
B1450112807316N01642098WA0000001157
B1450122807322N01642098WA0000001160
B1450132807328N01642097WA0000001163
B1450142807333N01642097WA0000001165
B1450152807339N01642097WA0000001167
B1450162807345N01642096WA0000001167
B1450172807351N01642095WA0000001166
B1450182807358N01642093WA0000001166
B1450192807363N01642090WA0000001166
B1450202807367N01642087WA0000001166
B1450212807372N01642084WA0000001166
B1450222807375N01642081WA0000001166
B1450232807379N01642077WA0000001165
B1450242807383N01642073WA0000001164
B1450252807387N01642069WA0000001165
B1450262807390N01642066WA0000001168
B1450272807393N01642064WA0000001172
B1450282807396N01642061WA0000001174
B1450292807399N01642058WA0000001175
B1450302807403N01642054WA0000001176
B1450312807407N01642050WA0000001176
B1450322807411N01642046WA0000001176
B1450332807415N01642042WA0000001177
B1450342807417N01642038WA0000001177
B1450352807418N01642033WA0000001178
B1450362807418N01642029WA0000001179
B1450372807417N01642024WA0000001182
B1450382807417N01642020WA0000001184
B1450392807417N01642017WA0000001186
B1450402807417N01642013WA0000001188
B1450412807417N01642011WA0000001189
B1450422807416N01642008WA0000001190
B1450432807414N01642006WA0000001191
B1450442807411N01642004WA0000001192
B1450452807410N01642000WA0000001194
B1450462807409N01641996WA0000001196
B1450472807409N01641991WA0000001197
B1450482807408N01641987WA0000001199
B1450502807406N01641981WA0000001207
B1450512807405N01641978WA0000001207
B1450522807404N01641974WA0000001208
B1450532807403N01641970WA0000001211
B1450542807404N01641964WA0000001211
B1450552807405N01641958WA0000001210
B1450562807405N01641953WA0000001210
B1450572807405N01641948WA0000001212
B1450582807404N01641943WA0000001212
B1450592807403N01641938WA0000001212
B1451002807403N01641932WA0000001212
B1451012807404N01641926WA0000001212
B1451022807404N01641921WA0000001214
B1451032807404N01641917WA0000001215
B1451042807403N01641912WA0000001217
B1451052807403N01641907WA0000001218
B1451062807403N01641903WA0000001217
B1451072807403N01641898WA0000001216
B1451082807403N01641893WA0000001214
B1451092807403N01641887WA0000001213
B1451102807403N01641882WA0000001212
B1451112807402N01641876WA0000001214
B1451122807400N01641872WA0000001217
B1451132807398N01641868WA0000001220
B1451142807397N01641863WA0000001222
B1451152807395N01641858WA0000001224
B1451162807395N01641852WA0000001226
B1451172807396N01641846WA0000001227
B1451182807396N01641840WA0000001228
B1451192807396N01641834WA0000001230
B1451202807395N01641830WA0000001230
B1451212807391N01641826WA0000001230
B1451222807388N01641825WA0000001230
B1451232807383N01641826WA0000001231
B1451242807379N01641828WA0000001232
B1451252807376N01641831WA0000001234
B1451262807373N01641834WA0000001235
B1451272807371N01641838WA0000001237
B1451282807369N01641842WA0000001238
B1451292807368N01641846WA0000001239
B1451302807367N01641850WA0000001239
B1451312807368N01641855WA0000001240
B1451322807371N01641861WA0000001241
B1451332807377N01641866WA0000001241
B1451342807383N01641868WA0000001241
B1451352807390N01641867WA0000001242
B1451362807395N01641864WA0000001243
B1451372807397N01641859WA0000001243
B1451382807397N01641854WA0000001243
B1451392807396N01641848WA0000001242
B1451402807395N01641843WA0000001243
B1451412807395N01641839WA0000001245
B1451422807395N01641835WA0000001246
B1451432807396N01641830WA0000001247
B1451442807396N01641826WA0000001247
B1451452807396N01641822WA0000001247
B1451462807396N01641818WA0000001248
B1451472807396N01641814WA0000001249
B1451482807396N01641809WA0000001250
B1451492807396N01641804WA0000001250
B1451502807396N01641799WA0000001250
B1451512807397N01641793WA0000001251
B1451522807397N01641789WA0000001254
B1451532807397N01641784WA0000001258
B1451542807396N01641781WA0000001261
B1451552807395N01641777WA0000001263
B1451562807394N01641774WA0000001264
B1451572807392N01641770WA0000001265
B1451582807391N01641767WA0000001267
B1451592807390N01641765WA0000001269
B1452002807389N01641763WA0000001271
B1452012807388N01641760WA0000001271
B1452022807389N01641757WA0000001270
B1452032807389N01641754WA0000001268
B1452042807390N01641752WA0000001265
B1452052807389N01641749WA0000001263
B1452062807386N01641747WA0000001261
B1452072807383N01641745WA0000001257
B1452082807378N01641744WA0000001253
B1452092807375N01641747WA0000001252
B1452102807372N01641749WA0000001255
B1452112807371N01641750WA0000001256
B1452122807370N01641751WA0000001256
B1452132807368N01641752WA0000001256
B1452142807363N01641752WA0000001256
B1452152807359N01641753WA0000001253
B1452162807353N01641753WA0000001254
B1452172807350N01641753WA0000001255
B1452182807348N01641754WA0000001260
B1452192807346N01641756WA0000001261
B1452202807343N01641758WA0000001261
B1452212807338N01641760WA0000001258
B1452222807333N01641761WA0000001256
B1452232807327N01641760WA0000001256
B1452242807323N01641760WA0000001257
B1452252807320N01641761WA0000001260
B1452262807318N01641761WA0000001259
B1452272807316N01641762WA0000001258
B1452282807312N01641761WA0000001255
B1452292807307N01641759WA0000001251
B1452302807302N01641758WA0000001248
B1452312807298N01641758WA0000001249
B1452322807295N01641758WA0000001250
B1452332807294N01641759WA0000001252
B1452342807293N01641760WA0000001252
B1452352807291N01641761WA0000001250
B1452362807287N01641762WA0000001246
B1452372807283N01641761WA0000001244
B1452382807280N01641758WA0000001242
B1452392807278N01641754WA0000001241
B1452402807278N01641750WA0000001240
B1452412807279N01641745WA0000001240
B1452422807280N01641741WA0000001239
B1452432807281N01641737WA0000001238
B1452442807283N01641732WA0000001237
B1452452807284N01641727WA0000001235
B1452462807284N01641723WA0000001233
B1452472807283N01641718WA0000001231
B1452482807280N01641714WA0000001229
B1452492807275N01641710WA0000001228
B1452512807273N01641709WA0000001229
B1452522807271N01641708WA0000001228
B1452532807270N01641707WA0000001228
B1452542807268N01641704WA0000001226
B1452552807267N01641701WA0000001225
B1452562807266N01641698WA0000001223
B1452572807265N01641694WA0000001220
B1452582807263N01641691WA0000001219
B1452592807260N01641690WA0000001217
B1453002807257N01641689WA0000001217
B1453012807254N01641687WA0000001218
B1453022807253N01641685WA0000001221
B1453032807253N01641681WA0000001223
B1453042807254N01641677WA0000001222
B1453052807254N01641674WA0000001222
B1453062807253N01641671WA0000001221
B1453072807251N01641668WA0000001221
B1453082807250N01641665WA0000001221
B1453092807249N01641663WA0000001221
B1453102807247N01641660WA0000001220
B1453112807245N01641657WA0000001219
B1453122807243N01641654WA0000001219
B1453132807241N01641652WA0000001218
B1453142807239N01641650WA0000001220
B1453152807237N01641649WA0000001222
B1453162807235N01641651WA0000001222
B1453172807232N01641653WA0000001221
B1453182807228N01641655WA0000001220
B1453192807225N01641655WA0000001219
B1453202807221N01641654WA0000001219
B1453212807218N01641653WA0000001220
B1453222807215N01641653WA0000001222
B1453232807212N01641654WA0000001223
B1453242807209N01641658WA0000001223
B1453252807205N01641661WA0000001223
B1453262807201N01641663WA0000001223
B1453272807198N01641665WA0000001224
B1453282807196N01641666WA0000001225
B1453292807193N01641667WA0000001227
B1453302807190N01641669WA0000001226
B1453312807188N01641671WA0000001227
B1453322807186N01641672WA0000001228
B1453332807184N01641671WA0000001229
B1453342807182N01641669WA0000001228
B1453352807181N01641667WA0000001228
B1453362807179N01641665WA0000001228
B1453372807178N01641663WA0000001228
B1453382807177N01641661WA0000001228
B1453392807176N01641658WA0000001228
B1453402807175N01641656WA0000001229
B1453412807174N01641653WA0000001228
B1453422807173N01641649WA0000001227
B1453432807172N01641645WA0000001226
B1453442807170N01641641WA0000001225
B1453452807168N01641637WA0000001224
B1453462807166N01641635WA0000001225
B1453472807163N01641633WA0000001226
B1453482807161N01641631WA0000001227
B1453492807160N01641628WA0000001228
B1453502807160N01641625WA0000001228
B1453512807159N01641621WA0000001227
B1453522807157N01641616WA0000001225
B1453532807155N01641611WA0000001224
B1453542807152N01641608WA0000001224
B1453552807149N01641605WA0000001224
B1453562807147N01641603WA0000001226
B1453572807144N01641600WA0000001227
B1453582807142N01641598WA0000001229
B1453592807141N01641596WA0000001230
B1454002807139N01641594WA0000001232
B1454012807137N01641593WA0000001233
B1454022807135N01641591WA0000001234
B1454032807133N01641588WA0000001235
B1454042807131N01641585WA0000001235
B1454052807128N01641584WA0000001236
B1454062807125N01641583WA0000001236
B1454072807122N01641582WA0000001237
B1454082807119N01641582WA0000001237
B1454092807116N01641582WA0000001238
B1454102807114N01641580WA0000001239
B1454112807113N01641577WA0000001241
B1454122807113N01641573WA0000001241
B1454132807113N01641568WA0000001240
B1454142807112N01641564WA0000001240
B1454152807110N01641561WA0000001240
B1454162807108N01641558WA0000001241
B1454172807106N01641555WA0000001242
B1454182807105N01641552WA0000001243
B1454192807104N01641548WA0000001244
B1454202807105N01641543WA0000001245
B1454212807106N01641538WA0000001246
B1454222807108N01641533WA0000001247
B1454232807109N01641529WA0000001248
B1454242807111N01641524WA0000001249
B1454252807111N01641520WA0000001250
B1454262807112N01641516WA0000001252
B1454272807112N01641512WA0000001253
B1454282807112N01641508WA0000001253
B1454292807112N01641504WA0000001254
B1454302807111N01641500WA0000001255
B1454312807108N01641498WA0000001257
B1454322807105N01641498WA0000001256
B1454332807101N01641498WA0000001256
B1454342807098N01641501WA0000001258
B1454352807095N01641505WA0000001259
B1454362807095N01641512WA0000001259
B1454372807096N01641519WA0000001259
B1454382807098N01641526WA0000001258
B1454392807102N01641532WA0000001258
B1454402807108N01641537WA0000001257
B1454412807115N01641539WA0000001256
B1454422807123N01641539WA0000001256
B1454432807129N01641536WA0000001256
B1454442807134N01641532WA0000001257
B1454452807137N01641528WA0000001259
B1454462807140N01641523WA0000001260
B1454472807142N01641519WA0000001262
B1454482807145N01641514WA0000001263
B1454502807152N01641506WA0000001263
B1454512807155N01641501WA0000001263
B1454522807157N01641496WA0000001264
B1454532807157N01641491WA0000001263
B1454542807156N01641486WA0000001263
B1454552807156N01641481WA0000001264
B1454562807156N01641477WA0000001266
B1454572807157N01641473WA0000001266
B1454582807160N01641469WA0000001267
B1454592807162N01641464WA0000001267
B1455002807164N01641459WA0000001267
B1455012807164N01641453WA0000001268
B1455022807162N01641447WA0000001269
B1455032807160N01641442WA0000001270
B1455042807158N01641437WA0000001271
B1455052807156N01641433WA0000001273
B1455062807155N01641430WA0000001275
B1455072807154N01641427WA0000001277
B1455082807152N01641424WA0000001279
B1455092807150N01641422WA0000001280
B1455102807148N01641420WA0000001280
B1455112807145N01641417WA0000001282
B1455122807144N01641414WA0000001284
B1455132807142N01641410WA0000001288
B1455142807143N01641407WA0000001290
B1455152807144N01641404WA0000001292
B1455162807146N01641399WA0000001293
B1455172807148N01641395WA0000001293
B1455182807150N01641390WA0000001293
B1455192807152N01641386WA0000001293
B1455202807154N01641381WA0000001294
B1455212807155N01641376WA0000001295
B1455222807156N01641372WA0000001298
B1455232807156N01641367WA0000001300
B1455242807158N01641362WA0000001303
B1455252807159N01641356WA0000001304
B1455262807161N01641351WA0000001306
B1455272807162N01641345WA0000001309
B1455282807164N01641339WA0000001312
B1455292807167N01641335WA0000001315
B1455302807170N01641330WA0000001318
B1455312807173N01641326WA0000001321
B1455322807177N01641321WA0000001324
B1455332807179N01641316WA0000001328
B1455342807182N01641312WA0000001333
B1455352807184N01641308WA0000001337
B1455362807188N01641305WA0000001340
B1455372807193N01641302WA0000001342
B1455382807198N01641297WA0000001343
B1455392807202N01641292WA0000001346
B1455402807204N01641287WA0000001350
B1455412807205N01641283WA0000001355
B1455422807206N01641280WA0000001359
B1455432807208N01641277WA0000001365
B1455442807210N01641274WA0000001369
B1455452807213N01641269WA0000001371
B1455462807214N01641265WA0000001374
B1455472807215N01641260WA0000001375
B1455482807215N01641255WA0000001377
B1455492807214N01641251WA0000001379
B1455502807211N01641252WA0000001380
B1455512807208N01641253WA0000001383
B1455522807205N01641256WA0000001385
B1455532807202N01641260WA0000001387
B1455542807200N01641266WA0000001389
B1455552807202N01641274WA0000001390
B1455562807206N01641281WA0000001391
B1455572807210N01641287WA0000001394
B1455582807216N01641291WA0000001398
B1455592807222N01641294WA0000001402
B1456002807228N01641296WA0000001407
B1456012807235N01641296WA0000001410
B1456022807242N01641297WA0000001414
B1456032807249N01641298WA0000001420
B1456042807255N01641299WA0000001427
B1456052807261N01641300WA0000001434
B1456062807267N01641300WA0000001439
B1456072807273N01641299WA0000001444
B1456082807280N01641297WA0000001448
B1456092807287N01641294WA0000001451
B1456102807292N01641289WA0000001455
B1456112807296N01641283WA0000001459
B1456122807297N01641277WA0000001464
B1456132807297N01641272WA0000001470
B1456142807296N01641269WA0000001476
B1456152807296N01641267WA0000001483
B1456162807295N01641266WA0000001487
B1456172807293N01641265WA0000001491
B1456182807291N01641264WA0000001494
B1456192807289N01641262WA0000001497
B1456202807286N01641263WA0000001500
B1456212807283N01641267WA0000001501
B1456222807280N01641270WA0000001507
B1456232807279N01641275WA0000001511
B1456242807279N01641280WA0000001515
B1456252807279N01641286WA0000001518
B1456262807280N01641291WA0000001521
B1456272807282N01641297WA0000001523
B1456282807286N01641303WA0000001526
B1456292807291N01641307WA0000001529
B1456302807298N01641311WA0000001532
B1456312807304N01641313WA0000001535
B1456322807310N01641314WA0000001537
B1456332807316N01641314WA0000001543
B1456342807322N01641313WA0000001550
B1456352807327N01641312WA0000001555
B1456362807333N01641310WA0000001559
B1456372807341N01641307WA0000001564
B1456382807348N01641305WA0000001570
B1456392807354N01641302WA0000001576
B1456402807359N01641298WA0000001581
B1456412807364N01641293WA0000001585
B1456422807368N01641288WA0000001590
B1456432807373N01641283WA0000001595
B1456442807378N01641279WA0000001602
B1456452807383N01641277WA0000001607
B1456462807388N01641274WA0000001611
B1456472807394N01641271WA0000001613
B1456482807396N01641265WA0000001615
B1456492807400N01641254WA0000001618
B1456512807400N01641248WA0000001618
B1456522807398N01641245WA0000001618
B1456532807395N01641243WA0000001618
B1456542807393N01641243WA0000001618
B1456552807390N01641245WA0000001616
B1456562807388N01641249WA0000001616
B1456572807386N01641253WA0000001617
B1456582807386N01641257WA0000001618
B1456592807386N01641261WA0000001619
B1457002807387N01641266WA0000001620
B1457012807388N01641270WA0000001621
B1457022807388N01641275WA0000001622
B1457032807388N01641281WA0000001623
B1457042807388N01641286WA0000001623
B1457052807389N01641292WA0000001625
B1457062807391N01641297WA0000001629
B1457072807393N01641303WA0000001634
B1457082807396N01641307WA0000001639
B1457092807398N01641312WA0000001644
B1457102807401N01641316WA0000001649
B1457112807404N01641322WA0000001653
B1457122807407N01641327WA0000001657
B1457132807410N01641333WA0000001661
B1457142807412N01641339WA0000001665
B1457152807414N01641344WA0000001669
B1457162807415N01641348WA0000001672
B1457172807415N01641352WA0000001674
B1457182807415N01641356WA0000001676
B1457192807413N01641359WA0000001678
B1457202807410N01641361WA0000001679
B1457212807408N01641362WA0000001680
B1457222807405N01641360WA0000001682
B1457232807403N01641357WA0000001686
B1457242807403N01641353WA0000001688
B1457252807405N01641348WA0000001691
B1457262807408N01641342WA0000001693
B1457272807412N01641337WA0000001695
B1457282807416N01641332WA0000001697
B1457292807421N01641327WA0000001700
B1457302807426N01641324WA0000001703
B1457312807432N01641321WA0000001708
B1457322807439N01641319WA0000001711
B1457332807446N01641319WA0000001712
B1457342807454N01641320WA0000001715
B1457352807461N01641323WA0000001718
B1457362807466N01641327WA0000001723
B1457372807471N01641332WA0000001729
B1457382807475N01641335WA0000001732
B1457392807479N01641339WA0000001735
B1457402807483N01641343WA0000001737
B1457412807487N01641348WA0000001739
B1457422807489N01641354WA0000001741
B1457432807489N01641360WA0000001743
B1457442807488N01641365WA0000001746
B1457452807485N01641368WA0000001748
B1457462807482N01641369WA0000001752
B1457472807479N01641369WA0000001755
B1457482807477N01641368WA0000001758
B1457492807475N01641366WA0000001762
B1457502807473N01641363WA0000001764
B1457512807473N01641360WA0000001766
B1457522807473N01641354WA0000001766
B1457532807473N01641348WA0000001767
B1457542807475N01641341WA0000001770
B1457552807477N01641335WA0000001773
B1457562807480N01641331WA0000001776
B1457572807483N01641326WA0000001779
B1457582807487N01641321WA0000001780
B1457592807493N01641316WA0000001782
B1458002807499N01641312WA0000001784
B1458012807506N01641310WA0000001787
B1458022807513N01641311WA0000001789
B1458032807520N01641313WA0000001790
B1458042807527N01641316WA0000001791
B1458052807533N01641319WA0000001792
B1458062807538N01641324WA0000001793
B1458072807543N01641329WA0000001794
B1458082807545N01641335WA0000001795
B1458092807546N01641341WA0000001796
B1458102807544N01641346WA0000001797
B1458112807542N01641349WA0000001801
B1458122807540N01641351WA0000001806
B1458132807538N01641352WA0000001810
B1458142807537N01641353WA0000001814
B1458152807535N01641354WA0000001816
B1458162807532N01641354WA0000001817
B1458172807530N01641352WA0000001819
B1458182807528N01641350WA0000001822
B1458192807526N01641348WA0000001825
B1458202807524N01641345WA0000001829
B1458212807522N01641343WA0000001831
B1458222807520N01641340WA0000001833
B1458232807519N01641336WA0000001833
B1458242807518N01641332WA0000001834
B1458252807518N01641326WA0000001835
B1458262807519N01641319WA0000001837
B1458272807520N01641314WA0000001839
B1458282807522N01641309WA0000001842
B1458292807524N01641303WA0000001844
B1458302807527N01641297WA0000001846
B1458312807529N01641291WA0000001846
B1458322807531N01641285WA0000001846
B1458332807532N01641281WA0000001847
B1458342807532N01641278WA0000001848
B1458352807531N01641274WA0000001847
B1458362807531N01641270WA0000001846
B1458372807532N01641265WA0000001844
B1458382807533N01641260WA0000001841
B1458392807534N01641255WA0000001840
B1458402807536N01641250WA0000001838
B1458412807540N01641247WA0000001836
B1458422807544N01641243WA0000001833
B1458432807548N01641241WA0000001831
B1458442807552N01641238WA0000001829
B1458452807556N01641235WA0000001829
B1458462807559N01641232WA0000001828
B1458472807562N01641229WA0000001827
B1458482807565N01641225WA0000001825
B1458502807572N01641216WA0000001817
B1458512807574N01641212WA0000001818
B1458522807577N01641207WA0000001816
B1458532807580N01641202WA0000001814
B1458542807583N01641197WA0000001812
B1458552807587N01641191WA0000001810
B1458562807589N01641186WA0000001808
B1458572807591N01641180WA0000001806
B1458582807593N01641175WA0000001804
B1458592807595N01641169WA0000001802
B1459002807597N01641163WA0000001801
B1459012807599N01641157WA0000001798
B1459022807602N01641151WA0000001796
B1459032807605N01641145WA0000001795
B1459042807608N01641139WA0000001793
B1459052807610N01641132WA0000001792
B1459062807612N01641126WA0000001791
B1459072807614N01641120WA0000001791
B1459082807617N01641115WA0000001790
B1459092807619N01641109WA0000001788
B1459102807622N01641103WA0000001787
B1459112807625N01641097WA0000001787
B1459122807626N01641092WA0000001788
B1459132807628N01641086WA0000001788
B1459142807629N01641081WA0000001787
B1459152807631N01641075WA0000001786
B1459162807632N01641069WA0000001784
B1459172807634N01641062WA0000001783
B1459182807636N01641056WA0000001782
B1459192807637N01641050WA0000001781
B1459202807640N01641044WA0000001779
B1459212807642N01641038WA0000001778
B1459222807645N01641031WA0000001775
B1459232807648N01641025WA0000001774
B1459242807651N01641020WA0000001774
B1459252807654N01641014WA0000001774
B1459262807657N01641009WA0000001774
B1459272807660N01641004WA0000001774
B1459282807662N01641000WA0000001774
B1459292807665N01640995WA0000001773
B1459302807669N01640990WA0000001771
B1459312807673N01640986WA0000001770
B1459322807677N01640981WA0000001769
B1459332807681N01640976WA0000001768
B1459342807685N01640971WA0000001766
B1459352807689N01640966WA0000001764
B1459362807692N01640960WA0000001762
B1459372807694N01640954WA0000001759
B1459382807697N01640948WA0000001757
B1459392807699N01640941WA0000001755
B1459402807702N01640935WA0000001752
B1459412807704N01640928WA0000001750
B1459422807708N01640921WA0000001747
B1459432807711N01640915WA0000001745
B1459442807715N01640908WA0000001743
B1459452807719N01640903WA0000001743
B1459462807723N01640897WA0000001742
B1459472807726N01640891WA0000001741
B1459482807729N01640884WA0000001739
B1459492807731N01640877WA0000001736
B1459502807733N01640870WA0000001734
B1459512807735N01640863WA0000001733
B1459522807737N01640857WA0000001732
B1459532807740N01640851WA0000001732
B1459542807742N01640845WA0000001731
B1459552807744N01640839WA0000001729
B1459562807746N01640832WA0000001728
B1459572807748N01640825WA0000001726
B1459582807751N01640819WA0000001725
B1459592807754N01640813WA0000001724
B1500002807757N01640807WA0000001723
B1500012807759N01640802WA0000001724
B1500022807761N01640797WA0000001724
B1500032807763N01640793WA0000001724
B1500042807764N01640787WA0000001722
B1500052807766N01640782WA0000001721
B1500062807768N01640776WA0000001721
B1500072807770N01640770WA0000001720
B1500082807772N01640765WA0000001720
B1500092807774N01640760WA0000001720
B1500102807777N01640755WA0000001720
B1500112807780N01640750WA0000001720
B1500122807784N01640744WA0000001719
B1500132807787N01640739WA0000001720
B1500142807790N01640734WA0000001722
B1500152807793N01640729WA0000001724
B1500162807794N01640725WA0000001726
B1500172807795N01640722WA0000001729
B1500182807796N01640719WA0000001729
B1500192807797N01640716WA0000001728
B1500202807797N01640713WA0000001728
B1500212807798N01640710WA0000001726
B1500222807798N01640705WA0000001723
B1500232807800N01640699WA0000001721
B1500242807803N01640693WA0000001720
B1500252807807N01640689WA0000001722
B1500262807811N01640686WA0000001724
B1500272807815N01640685WA0000001726
B1500282807819N01640683WA0000001726
B1500292807824N01640680WA0000001725
B1500302807829N01640675WA0000001724
B1500312807832N01640669WA0000001723
B1500322807833N01640664WA0000001723
B1500332807832N01640659WA0000001723
B1500342807831N01640656WA0000001723
B1500352807830N01640655WA0000001725
B1500362807828N01640655WA0000001727
B1500372807826N01640656WA0000001729
B1500382807824N01640659WA0000001729
B1500392807823N01640663WA0000001729
B1500402807823N01640669WA0000001728
B1500412807824N01640676WA0000001727
B1500422807827N01640683WA0000001727
B1500432807833N01640690WA0000001727
B1500442807840N01640693WA0000001728
B1500452807848N01640693WA0000001726
B1500462807856N01640689WA0000001725
B1500472807861N01640684WA0000001726
B1500482807863N01640678WA0000001727
B1500492807864N01640674WA0000001729
B1500502807863N01640670WA0000001731
B1500512807862N01640667WA0000001732
B1500522807859N01640665WA0000001733
B1500532807856N01640666WA0000001733
B1500542807853N01640668WA0000001733
B1500552807851N01640672WA0000001734
B1500562807851N01640678WA0000001734
B1500572807851N01640684WA0000001735
B1500582807854N01640692WA0000001736
B1500592807858N01640698WA0000001737
B1501002807863N01640704WA0000001738
B1501012807870N01640707WA0000001739
B1501022807878N01640709WA0000001740
B1501032807884N01640708WA0000001740
B1501042807890N01640706WA0000001741
B1501052807895N01640703WA0000001741
B1501062807901N01640700WA0000001741
B1501072807905N01640695WA0000001742
B1501082807907N01640689WA0000001741
B1501092807907N01640683WA0000001741
B1501102807905N01640679WA0000001741
B1501112807903N01640677WA0000001742
B1501122807899N01640676WA0000001743
B1501132807896N01640677WA0000001743
B1501142807893N01640678WA0000001743
B1501152807890N01640680WA0000001744
B1501162807888N01640684WA0000001745
B1501172807887N01640689WA0000001746
B1501182807888N01640696WA0000001745
B1501192807892N01640704WA0000001744
B1501202807898N01640711WA0000001743
B1501212807903N01640716WA0000001741
B1501222807912N01640711WA0000001742
B1501232807919N01640708WA0000001743
B1501242807924N01640704WA0000001745
B1501252807926N01640698WA0000001746
B1501262807927N01640694WA0000001746
B1501272807927N01640690WA0000001747
B1501282807927N01640686WA0000001748
B1501292807925N01640683WA0000001749
B1501302807924N01640679WA0000001748
B1501312807923N01640675WA0000001748
B1501322807923N01640670WA0000001748
B1501332807922N01640665WA0000001747
B1501342807921N01640660WA0000001746
B1501352807920N01640656WA0000001748
B1501362807918N01640654WA0000001750
B1501372807917N01640652WA0000001752
B1501382807917N01640648WA0000001751
B1501392807917N01640644WA0000001749
B1501402807918N01640638WA0000001747
B1501412807919N01640633WA0000001748
B1501422807920N01640629WA0000001751
B1501432807921N01640627WA0000001754
B1501442807923N01640624WA0000001756
B1501452807925N01640621WA0000001757
B1501462807926N01640617WA0000001757
B1501472807929N01640612WA0000001757
B1501482807930N01640607WA0000001756
B1501492807930N01640602WA0000001756
B1501512807930N01640593WA0000001756
B1501522807930N01640589WA0000001757
B1501532807930N01640585WA0000001758
B1501542807931N01640580WA0000001759
B1501552807933N01640575WA0000001761
B1501562807935N01640571WA0000001761
B1501572807938N01640566WA0000001761
B1501582807940N01640561WA0000001762
B1501592807942N01640556WA0000001761
B1502002807944N01640551WA0000001760
B1502012807945N01640545WA0000001761
B1502022807947N01640540WA0000001760
B1502032807950N01640535WA0000001760
B1502042807953N01640530WA0000001760
B1502052807957N01640526WA0000001760
B1502062807961N01640522WA0000001759
B1502072807964N01640519WA0000001760
B1502082807966N01640515WA0000001761
B1502092807966N01640511WA0000001760
B1502102807965N01640506WA0000001760
B1502112807964N01640502WA0000001759
B1502122807962N01640497WA0000001759
B1502132807961N01640492WA0000001759
B1502142807961N01640487WA0000001760
B1502152807960N01640483WA0000001760
B1502162807961N01640478WA0000001760
B1502172807962N01640472WA0000001759
B1502182807963N01640467WA0000001758
B1502192807963N01640462WA0000001758
B1502202807963N01640456WA0000001757
B1502212807962N01640451WA0000001756
B1502222807962N01640445WA0000001755
B1502232807963N01640438WA0000001754
B1502242807963N01640432WA0000001752
B1502252807963N01640426WA0000001752
B1502262807963N01640420WA0000001751
B1502272807963N01640414WA0000001749
B1502282807963N01640408WA0000001748
B1502292807964N01640401WA0000001746
B1502302807964N01640394WA0000001744
B1502312807965N01640387WA0000001743
B1502322807965N01640379WA0000001742
B1502332807965N01640372WA0000001741
B1502342807965N01640365WA0000001740
B1502352807964N01640359WA0000001740
B1502362807964N01640352WA0000001738
B1502372807964N01640346WA0000001737
B1502382807963N01640339WA0000001735
B1502392807963N01640331WA0000001733
B1502402807963N01640324WA0000001730
B1502412807963N01640317WA0000001729
B1502422807964N01640310WA0000001727
B1502432807963N01640303WA0000001725
B1502442807963N01640296WA0000001723
B1502452807961N01640289WA0000001722
B1502462807961N01640283WA0000001721
B1502472807959N01640276WA0000001720
B1502482807958N01640269WA0000001719
B1502492807957N01640261WA0000001716
B1502502807957N01640254WA0000001714
B1502512807956N01640247WA0000001712
B1502522807955N01640241WA0000001711
B1502532807955N01640234WA0000001710
B1502542807954N01640227WA0000001708
B1502552807954N01640220WA0000001707
B1502562807954N01640213WA0000001707
B1502572807954N01640206WA0000001706
B1502582807955N01640199WA0000001705
B1502592807955N01640193WA0000001704
B1503002807955N01640186WA0000001703
B1503012807955N01640180WA0000001702
B1503022807955N01640174WA0000001701
B1503032807955N01640168WA0000001700
B1503042807955N01640162WA0000001698
B1503052807954N01640156WA0000001696
B1503062807953N01640150WA0000001695
B1503072807952N01640144WA0000001693
B1503082807952N01640137WA0000001692
B1503092807952N01640131WA0000001690
B1503102807952N01640124WA0000001688
B1503112807952N01640117WA0000001687
B1503122807952N01640111WA0000001686
B1503132807952N01640104WA0000001685
B1503142807952N01640098WA0000001684
B1503152807952N01640091WA0000001682
B1503162807952N01640084WA0000001680
B1503172807953N01640077WA0000001678
B1503182807955N01640069WA0000001677
B1503192807956N01640062WA0000001675
B1503202807957N01640056WA0000001674
B1503212807958N01640049WA0000001672
B1503222807959N01640042WA0000001669
B1503232807960N01640035WA0000001666
B1503242807960N01640028WA0000001662
B1503252807958N01640020WA0000001659
B1503262807956N01640014WA0000001657
B1503272807954N01640007WA0000001655
B1503282807952N01640001WA0000001654
B1503292807950N01639995WA0000001651
B1503302807949N01639988WA0000001649
B1503312807948N01639982WA0000001647
B1503322807947N01639975WA0000001644
B1503332807947N01639968WA0000001642
B1503342807947N01639962WA0000001641
B1503352807947N01639956WA0000001640
B1503362807948N01639951WA0000001639
B1503372807948N01639946WA0000001639
B1503382807948N01639942WA0000001637
B1503392807947N01639937WA0000001634
B1503402807946N01639931WA0000001632
B1503412807945N01639927WA0000001630
B1503422807944N01639922WA0000001627
B1503432807944N01639918WA0000001627
B1503442807944N01639912WA0000001625
B1503452807944N01639906WA0000001622
B1503462807944N01639900WA0000001620
B1503472807944N01639893WA0000001618
B1503482807945N01639888WA0000001618
B1503492807946N01639882WA0000001619
B1503512807947N01639868WA0000001617
B1503522807947N01639862WA0000001617
B1503532807947N01639855WA0000001616
B1503542807949N01639850WA0000001615
B1503552807951N01639844WA0000001617
B1503562807955N01639839WA0000001618
B1503572807958N01639835WA0000001618
B1503582807960N01639830WA0000001618
B1503592807961N01639825WA0000001619
B1504002807962N01639820WA0000001618
B1504012807963N01639815WA0000001619
B1504022807965N01639811WA0000001619
B1504032807967N01639806WA0000001619
B1504042807970N01639802WA0000001619
B1504052807973N01639797WA0000001620
B1504062807976N01639792WA0000001620
B1504072807979N01639787WA0000001621
B1504082807981N01639782WA0000001623
B1504092807983N01639779WA0000001623
B1504102807984N01639774WA0000001623
B1504112807986N01639769WA0000001624
B1504122807987N01639764WA0000001626
B1504132807989N01639761WA0000001629
B1504142807991N01639758WA0000001632
B1504152807993N01639754WA0000001633
B1504162807996N01639749WA0000001633
B1504172807997N01639744WA0000001634
B1504182807997N01639740WA0000001635
B1504192807995N01639737WA0000001637
B1504202807992N01639736WA0000001640
B1504212807988N01639737WA0000001642
B1504222807985N01639739WA0000001644
B1504232807982N01639743WA0000001646
B1504242807981N01639749WA0000001648
B1504252807980N01639756WA0000001649
B1504262807983N01639762WA0000001650
B1504272807987N01639769WA0000001650
B1504282807992N01639771WA0000001651
B1504292807998N01639771WA0000001651
B1504302808004N01639768WA0000001651
B1504312808009N01639765WA0000001654
B1504322808012N01639761WA0000001655
B1504332808014N01639758WA0000001657
B1504342808016N01639754WA0000001658
B1504352808017N01639750WA0000001659
B1504362808017N01639745WA0000001659
B1504372808017N01639741WA0000001660
B1504382808017N01639736WA0000001661
B1504392808018N01639732WA0000001661
B1504402808020N01639728WA0000001661
B1504412808022N01639724WA0000001661
B1504422808025N01639720WA0000001662
B1504432808028N01639716WA0000001662
B1504442808030N01639711WA0000001663
B1504452808032N01639706WA0000001664
B1504462808033N01639701WA0000001666
B1504472808034N01639697WA0000001667
B1504482808036N01639692WA0000001668
B1504492808039N01639688WA0000001670
B1504502808041N01639683WA0000001671
B1504512808044N01639679WA0000001672
B1504522808047N01639674WA0000001672
B1504532808049N01639670WA0000001674
B1504542808051N01639665WA0000001675
B1504552808053N01639660WA0000001677
B1504562808056N01639655WA0000001679
B1504572808060N01639652WA0000001679
B1504582808065N01639648WA0000001680
B1504592808070N01639644WA0000001679
B1505002808075N01639640WA0000001678
B1505012808077N01639633WA0000001676
B1505022808076N01639628WA0000001675
B1505032808073N01639625WA0000001673
B1505042808069N01639626WA0000001673
B1505052808065N01639629WA0000001674
B1505062808062N01639632WA0000001675
B1505072808061N01639636WA0000001676
B1505082808059N01639640WA0000001676
B1505092808057N01639644WA0000001674
B1505102808055N01639650WA0000001671
B1505112808054N01639656WA0000001668
B1505122808054N01639663WA0000001664
B1505132808054N01639670WA0000001660
B1505142808054N01639677WA0000001658
B1505152808054N01639682WA0000001658
B1505162808053N01639687WA0000001659
B1505172808052N01639692WA0000001660
B1505182808050N01639696WA0000001660
B1505192808049N01639700WA0000001659
B1505202808047N01639705WA0000001659
B1505212808045N01639710WA0000001658
B1505222808043N01639714WA0000001658
B1505232808040N01639716WA0000001658
B1505242808036N01639716WA0000001658
B1505252808032N01639715WA0000001658
B1505262808029N01639714WA0000001658
B1505272808025N01639714WA0000001658
B1505282808021N01639714WA0000001657
B1505292808018N01639715WA0000001657
B1505302808015N01639715WA0000001657
B1505312808012N01639715WA0000001655
B1505322808009N01639715WA0000001654
B1505332808007N01639713WA0000001651
B1505342808005N01639710WA0000001646
B1505352808002N01639708WA0000001642
B1505362808000N01639707WA0000001638
B1505372807997N01639706WA0000001636
B1505382807995N01639706WA0000001633
B1505392807992N01639705WA0000001630
B1505402807989N01639704WA0000001628
B1505412807986N01639703WA0000001625
B1505422807982N01639702WA0000001623
B1505432807979N01639701WA0000001621
B1505442807976N01639700WA0000001620
B1505452807973N01639698WA0000001619
B1505462807970N01639696WA0000001617
B1505472807967N01639695WA0000001616
B1505482807963N01639693WA0000001615
B1505492807960N01639692WA0000001613
B1505512807950N01639691WA0000001606
B1505522807947N01639691WA0000001606
B1505532807943N01639691WA0000001606
B1505542807938N01639691WA0000001604
B1505552807933N01639690WA0000001602
B1505562807929N01639689WA0000001601
B1505572807925N01639687WA0000001599
B1505582807920N01639686WA0000001598
B1505592807915N01639683WA0000001594
B1506002807911N01639681WA0000001592
B1506012807907N01639678WA0000001591
B1506022807903N01639673WA0000001590
B1506032807899N01639669WA0000001589
B1506042807896N01639665WA0000001590
B1506052807893N01639664WA0000001592
B1506062807891N01639664WA0000001594
B1506072807888N01639667WA0000001594
B1506082807885N01639670WA0000001594
B1506092807882N01639674WA0000001594
B1506102807880N01639679WA0000001595
B1506112807880N01639684WA0000001597
B1506122807879N01639689WA0000001599
B1506132807877N01639692WA0000001600
B1506142807876N01639695WA0000001600
B1506152807873N01639699WA0000001600
B1506162807871N01639703WA0000001599
B1506172807868N01639706WA0000001599
B1506182807865N01639706WA0000001600
B1506192807863N01639704WA0000001602
B1506202807863N01639701WA0000001606
B1506212807864N01639697WA0000001609
B1506222807866N01639693WA0000001610
B1506232807867N01639690WA0000001611
B1506242807866N01639685WA0000001612
B1506252807863N01639684WA0000001613
B1506262807860N01639685WA0000001613
B1506272807858N01639687WA0000001616
B1506282807855N01639689WA0000001619
B1506292807854N01639691WA0000001622
B1506302807851N01639695WA0000001622
B1506312807848N01639698WA0000001623
B1506322807845N01639699WA0000001624
B1506332807841N01639699WA0000001624
B1506342807839N01639696WA0000001625
B1506352807838N01639693WA0000001627
B1506362807838N01639690WA0000001628
B1506372807838N01639687WA0000001629
B1506382807839N01639684WA0000001630
B1506392807839N01639681WA0000001631
B1506402807839N01639678WA0000001633
B1506412807840N01639675WA0000001634
B1506422807842N01639673WA0000001636
B1506432807844N01639670WA0000001636
B1506442807846N01639666WA0000001635
B1506452807847N01639663WA0000001635
B1506462807846N01639660WA0000001636
B1506472807844N01639658WA0000001635
B1506482807841N01639656WA0000001634
B1506492807838N01639656WA0000001635
B1506502807837N01639655WA0000001637
B1506512807837N01639655WA0000001639
B1506522807836N01639655WA0000001639
B1506532807833N01639654WA0000001637
B1506542807830N01639654WA0000001635
B1506552807826N01639652WA0000001635
B1506562807822N01639649WA0000001637
B1506572807820N01639646WA0000001641
B1506582807820N01639643WA0000001645
B1506592807819N01639640WA0000001648
B1507002807819N01639637WA0000001650
B1507012807818N01639634WA0000001651
B1507022807815N01639630WA0000001651
B1507032807814N01639626WA0000001651
B1507042807813N01639621WA0000001653
B1507052807814N01639617WA0000001654
B1507062807816N01639612WA0000001656
B1507072807817N01639607WA0000001658
B1507082807818N01639602WA0000001659
B1507092807818N01639597WA0000001660
B1507102807819N01639593WA0000001661
B1507112807819N01639590WA0000001661
B1507122807819N01639586WA0000001661
B1507132807820N01639582WA0000001661
B1507142807818N01639578WA0000001659
B1507152807815N01639576WA0000001658
B1507162807811N01639575WA0000001657
B1507172807806N01639576WA0000001656
B1507182807803N01639577WA0000001657
B1507192807800N01639579WA0000001658
B1507202807797N01639580WA0000001658
B1507212807794N01639580WA0000001657
B1507222807791N01639579WA0000001656
B1507232807787N01639578WA0000001655
B1507242807785N01639576WA0000001653
B1507252807783N01639573WA0000001653
B1507262807783N01639569WA0000001653
B1507272807783N01639565WA0000001653
B1507282807783N01639561WA0000001653
B1507292807784N01639557WA0000001652
B1507302807784N01639552WA0000001651
B1507312807785N01639548WA0000001650
B1507322807785N01639543WA0000001649
B1507332807786N01639539WA0000001648
B1507342807786N01639535WA0000001649
B1507352807785N01639531WA0000001649
B1507362807784N01639528WA0000001648
B1507372807783N01639524WA0000001648
B1507382807781N01639520WA0000001647
B1507392807780N01639516WA0000001646
B1507402807778N01639513WA0000001644
B1507412807776N01639509WA0000001643
B1507422807774N01639505WA0000001640
B1507432807772N01639499WA0000001637
B1507442807770N01639493WA0000001634
B1507452807769N01639487WA0000001632
B1507462807768N01639482WA0000001631
B1507472807767N01639477WA0000001630
B1507482807766N01639472WA0000001628
B1507492807765N01639467WA0000001626
B1507502807763N01639461WA0000001623
B1507512807761N01639455WA0000001622
B1507522807760N01639449WA0000001620
B1507532807759N01639444WA0000001618
B1507542807758N01639439WA0000001616
B1507552807757N01639434WA0000001615
B1507562807756N01639429WA0000001613
B1507572807755N01639423WA0000001609
B1507582807754N01639417WA0000001605
B1507592807753N01639410WA0000001602
B1508002807750N01639404WA0000001600
B1508012807747N01639399WA0000001600
B1508022807742N01639397WA0000001601
B1508032807739N01639396WA0000001602
B1508042807736N01639394WA0000001602
B1508052807733N01639391WA0000001602
B1508062807730N01639388WA0000001600
B1508072807727N01639385WA0000001596
B1508082807723N01639382WA0000001594
B1508092807719N01639379WA0000001591
B1508102807715N01639376WA0000001593
B1508112807713N01639373WA0000001593
B1508122807710N01639371WA0000001594
B1508132807708N01639369WA0000001592
B1508142807705N01639367WA0000001591
B1508152807700N01639364WA0000001590
B1508162807696N01639361WA0000001588
B1508172807693N01639357WA0000001586
B1508182807689N01639354WA0000001585
B1508192807686N01639351WA0000001583
B1508202807683N01639347WA0000001582
B1508212807681N01639343WA0000001579
B1508222807678N01639338WA0000001576
B1508232807674N01639334WA0000001575
B1508252807667N01639329WA0000001574
B1508262807665N01639330WA0000001574
B1508272807662N01639332WA0000001576
B1508282807660N01639336WA0000001577
B1508292807657N01639339WA0000001576
B1508302807654N01639341WA0000001574
B1508312807650N01639340WA0000001571
B1508322807646N01639337WA0000001568
B1508332807643N01639334WA0000001567
B1508342807642N01639332WA0000001567
B1508352807642N01639331WA0000001567
B1508362807642N01639329WA0000001564
B1508372807641N01639326WA0000001562
B1508382807640N01639323WA0000001559
B1508392807638N01639319WA0000001558
B1508402807636N01639316WA0000001560
B1508412807635N01639314WA0000001559
B1508422807634N01639311WA0000001559
B1508432807634N01639308WA0000001556
B1508442807634N01639303WA0000001554
B1508452807633N01639298WA0000001553
B1508462807634N01639294WA0000001555
B1508472807635N01639290WA0000001558
B1508482807635N01639288WA0000001560
B1508492807637N01639285WA0000001560
B1508502807638N01639282WA0000001560
B1508512807638N01639278WA0000001559
B1508522807637N01639273WA0000001558
B1508532807637N01639268WA0000001560
B1508542807636N01639265WA0000001562
B1508552807634N01639263WA0000001562
B1508562807633N01639260WA0000001562
B1508572807632N01639256WA0000001564
B1508582807633N01639251WA0000001564
B1508592807635N01639246WA0000001565
B1509002807637N01639241WA0000001566
B1509012807640N01639237WA0000001567
B1509022807641N01639232WA0000001568
B1509032807643N01639228WA0000001569
B1509042807645N01639223WA0000001569
B1509052807648N01639217WA0000001569
B1509062807652N01639211WA0000001568
B1509072807656N01639207WA0000001568
B1509082807659N01639202WA0000001568
B1509092807662N01639199WA0000001567
B1509102807663N01639194WA0000001566
B1509112807664N01639189WA0000001564
B1509122807664N01639183WA0000001562
B1509132807663N01639177WA0000001561
B1509142807662N01639172WA0000001564
B1509152807661N01639168WA0000001565
B1509162807659N01639164WA0000001565
B1509172807658N01639160WA0000001563
B1509182807656N01639156WA0000001562
B1509192807655N01639152WA0000001563
B1509202807653N01639148WA0000001566
B1509212807653N01639145WA0000001567
B1509222807653N01639142WA0000001572
B1509232807653N01639138WA0000001575
B1509242807653N01639135WA0000001577
B1509252807651N01639132WA0000001577
B1509262807650N01639130WA0000001580
B1509272807647N01639128WA0000001584
B1509282807646N01639128WA0000001588
B1509292807644N01639129WA0000001592
B1509302807642N01639132WA0000001595
B1509312807642N01639136WA0000001597
B1509322807642N01639141WA0000001599
B1509332807643N01639146WA0000001600
B1509342807646N01639152WA0000001603
B1509352807650N01639157WA0000001605
B1509362807657N01639160WA0000001609
B1509372807664N01639162WA0000001612
B1509382807671N01639162WA0000001614
B1509392807678N01639160WA0000001617
B1509402807684N01639158WA0000001620
B1509412807689N01639158WA0000001624
B1509422807695N01639159WA0000001627
B1509432807701N01639158WA0000001630
B1509442807707N01639155WA0000001632
B1509452807712N01639151WA0000001632
B1509462807715N01639146WA0000001634
B1509472807716N01639140WA0000001635
B1509482807717N01639135WA0000001637
B1509492807718N01639129WA0000001639
B1509502807718N01639124WA0000001641
B1509512807715N01639122WA0000001643
B1509522807713N01639120WA0000001645
B1509532807710N01639123WA0000001646
B1509542807707N01639127WA0000001648
B1509552807706N01639132WA0000001651
B1509562807707N01639137WA0000001655
B1509572807709N01639143WA0000001659
B1509582807713N01639147WA0000001663
B1509592807716N01639152WA0000001666
B1510002807720N01639156WA0000001669
B1510012807722N01639161WA0000001672
B1510022807725N01639165WA0000001675
B1510032807728N01639169WA0000001677
B1510042807733N01639173WA0000001679
B1510052807739N01639174WA0000001680
B1510062807746N01639173WA0000001680
B1510072807751N01639171WA0000001681
B1510082807756N01639170WA0000001682
B1510092807761N01639168WA0000001684
B1510102807767N01639167WA0000001686
B1510112807772N01639165WA0000001687
B1510122807778N01639161WA0000001687
B1510132807782N01639156WA0000001687
B1510142807784N01639150WA0000001687
B1510152807785N01639145WA0000001689
B1510162807785N01639141WA0000001692
B1510172807784N01639138WA0000001695
B1510182807784N01639135WA0000001697
B1510192807784N01639133WA0000001699
B1510202807783N01639129WA0000001701
B1510212807783N01639125WA0000001703
B1510222807784N01639119WA0000001705
B1510232807783N01639115WA0000001707
B1510252807782N01639109WA0000001716
B1510262807781N01639106WA0000001717
B1510272807779N01639103WA0000001718
B1510282807777N01639100WA0000001719
B1510292807775N01639100WA0000001721
B1510302807772N01639102WA0000001723
B1510312807771N01639105WA0000001725
B1510322807771N01639109WA0000001727
B1510332807771N01639112WA0000001731
B1510342807772N01639115WA0000001732
B1510352807772N01639119WA0000001733
B1510362807774N01639125WA0000001735
B1510372807777N01639130WA0000001737
B1510382807782N01639134WA0000001740
B1510392807787N01639136WA0000001744
B1510402807794N01639136WA0000001746
B1510412807801N01639135WA0000001747
B1510422807807N01639135WA0000001748
B1510432807814N01639134WA0000001752
B1510442807819N01639132WA0000001756
B1510452807824N01639130WA0000001759
B1510462807831N01639128WA0000001761
B1510472807837N01639125WA0000001763
B1510482807843N01639122WA0000001764
B1510492807848N01639117WA0000001766
B1510502807851N01639112WA0000001768
B1510512807852N01639106WA0000001769
B1510522807852N01639100WA0000001770
B1510532807851N01639095WA0000001772
B1510542807850N01639092WA0000001773
B1510552807847N01639089WA0000001774
B1510562807844N01639089WA0000001774
B1510572807840N01639090WA0000001774
B1510582807838N01639092WA0000001774
B1510592807837N01639095WA0000001777
B1511002807836N01639098WA0000001779
B1511012807836N01639101WA0000001781
B1511022807835N01639104WA0000001783
B1511032807835N01639108WA0000001783
B1511042807835N01639113WA0000001782
B1511052807837N01639118WA0000001782
B1511062807841N01639124WA0000001784
B1511072807845N01639130WA0000001786
B1511082807849N01639134WA0000001789
B1511092807854N01639136WA0000001792
B1511102807859N01639137WA0000001795
B1511112807865N01639138WA0000001796
B1511122807871N01639138WA0000001796
B1511132807878N01639136WA0000001797
B1511142807884N01639134WA0000001799
B1511152807890N01639131WA0000001800
B1511162807895N01639127WA0000001803
B1511172807901N01639124WA0000001806
B1511182807907N01639121WA0000001808
B1511192807912N01639118WA0000001812
B1511202807918N01639116WA0000001815
B1511212807924N01639113WA0000001817
B1511222807929N01639109WA0000001818
B1511232807934N01639104WA0000001820
B1511242807937N01639097WA0000001819
B1511252807939N01639091WA0000001819
B1511262807939N01639085WA0000001818
B1511272807937N01639081WA0000001818
B1511282807934N01639078WA0000001819
B1511292807931N01639077WA0000001820
B1511302807928N01639077WA0000001822
B1511312807927N01639077WA0000001825
B1511322807926N01639078WA0000001827
B1511332807924N01639080WA0000001828
B1511342807923N01639083WA0000001829
B1511352807921N01639085WA0000001830
B1511362807919N01639088WA0000001831
B1511372807919N01639092WA0000001833
B1511382807921N01639096WA0000001833
B1511392807922N01639101WA0000001833
B1511402807923N01639106WA0000001834
B1511412807924N01639110WA0000001835
B1511422807924N01639113WA0000001836
B1511432807924N01639116WA0000001837
B1511442807922N01639120WA0000001837
B1511452807920N01639122WA0000001837
B1511462807918N01639124WA0000001837
B1511472807915N01639124WA0000001838
B1511482807911N01639123WA0000001839
B1511492807908N01639121WA0000001839
B1511502807904N01639119WA0000001841
B1511512807901N01639116WA0000001842
B1511522807898N01639112WA0000001845
B1511532807896N01639109WA0000001846
B1511542807895N01639106WA0000001848
B1511552807893N01639103WA0000001850
B1511562807891N01639100WA0000001852
B1511572807889N01639097WA0000001855
B1511582807887N01639094WA0000001856
B1511592807884N01639093WA0000001859
B1512002807881N01639093WA0000001861
B1512012807878N01639095WA0000001864
B1512022807875N01639096WA0000001865
B1512032807873N01639097WA0000001867
B1512042807870N01639099WA0000001867
B1512052807867N01639103WA0000001868
B1512062807865N01639108WA0000001868
B1512072807864N01639114WA0000001868
B1512082807865N01639121WA0000001870
B1512092807868N01639128WA0000001870
B1512102807872N01639133WA0000001871
B1512112807877N01639137WA0000001873
B1512122807883N01639139WA0000001873
B1512132807889N01639140WA0000001875
B1512142807894N01639140WA0000001876
B1512152807900N01639139WA0000001876
B1512162807906N01639137WA0000001876
B1512172807912N01639133WA0000001877
B1512182807916N01639129WA0000001878
B1512192807920N01639124WA0000001881
B1512202807922N01639119WA0000001881
B1512212807925N01639114WA0000001884
B1512222807929N01639109WA0000001885
B1512232807933N01639104WA0000001887
B1512252807939N01639094WA0000001892
B1512262807940N01639089WA0000001892
B1512272807942N01639082WA0000001893
B1512282807943N01639077WA0000001895
B1512292807943N01639071WA0000001897
B1512302807940N01639066WA0000001898
B1512312807936N01639062WA0000001899
B1512322807931N01639061WA0000001900
B1512332807927N01639061WA0000001902
B1512342807923N01639064WA0000001903
B1512352807922N01639069WA0000001905
B1512362807923N01639074WA0000001907
B1512372807926N01639080WA0000001906
B1512382807932N01639084WA0000001907
B1512392807938N01639086WA0000001907
B1512402807944N01639085WA0000001907
B1512412807950N01639083WA0000001910
B1512422807955N01639079WA0000001912
B1512432807959N01639075WA0000001914
B1512442807963N01639071WA0000001915
B1512452807966N01639065WA0000001916
B1512462807968N01639060WA0000001918
B1512472807970N01639055WA0000001920
B1512482807971N01639048WA0000001921
B1512492807970N01639041WA0000001923
B1512502807967N01639036WA0000001924
B1512512807964N01639033WA0000001926
B1512522807960N01639031WA0000001928
B1512532807956N01639032WA0000001929
B1512542807953N01639034WA0000001931
B1512552807950N01639037WA0000001933
B1512562807949N01639041WA0000001935
B1512572807949N01639047WA0000001936
B1512582807950N01639052WA0000001938
B1512592807954N01639057WA0000001939
B1513002807959N01639060WA0000001939
B1513012807966N01639061WA0000001939
B1513022807972N01639061WA0000001940
B1513032807978N01639058WA0000001942
B1513042807982N01639055WA0000001943
B1513052807987N01639052WA0000001945
B1513062807991N01639049WA0000001947
B1513072807995N01639045WA0000001948
B1513082807998N01639041WA0000001948
B1513092808001N01639036WA0000001948
B1513102808004N01639030WA0000001949
B1513112808006N01639025WA0000001950
B1513122808009N01639021WA0000001952
B1513132808012N01639017WA0000001954
B1513142808016N01639014WA0000001955
B1513152808020N01639010WA0000001956
B1513162808023N01639006WA0000001957
B1513172808026N01639002WA0000001957
B1513182808029N01638997WA0000001958
B1513192808030N01638992WA0000001960
B1513202808031N01638988WA0000001961
B1513212808031N01638983WA0000001962
B1513222808029N01638979WA0000001962
B1513232808028N01638975WA0000001962
B1513242808024N01638971WA0000001962
B1513252808020N01638969WA0000001962
B1513262808015N01638969WA0000001962
B1513272808011N01638971WA0000001962
B1513282808007N01638975WA0000001962
B1513292808006N01638981WA0000001964
B1513302808005N01638986WA0000001965
B1513312808006N01638992WA0000001966
B1513322808009N01638997WA0000001967
B1513332808013N01639001WA0000001967
B1513342808018N01639005WA0000001968
B1513352808023N01639007WA0000001968
B1513362808029N01639007WA0000001968
B1513372808034N01639006WA0000001968
B1513382808039N01639004WA0000001969
B1513392808044N01639003WA0000001972
B1513402808049N01639002WA0000001972
B1513412808055N01639000WA0000001972
B1513422808060N01639000WA0000001972
B1513432808066N01638999WA0000001972
B1513442808071N01638997WA0000001973
B1513452808076N01638994WA0000001974
B1513462808081N01638990WA0000001974
B1513472808085N01638986WA0000001974
B1513482808089N01638981WA0000001974
B1513492808092N01638976WA0000001973
B1513502808096N01638970WA0000001973
B1513512808098N01638965WA0000001973
B1513522808100N01638959WA0000001973
B1513532808101N01638952WA0000001973
B1513542808102N01638946WA0000001972
B1513552808100N01638941WA0000001973
B1513562808098N01638936WA0000001972
B1513572808095N01638933WA0000001971
B1513582808092N01638928WA0000001971
B1513592808091N01638924WA0000001970
B1514002808092N01638918WA0000001971
B1514012808094N01638911WA0000001970
B1514022808095N01638905WA0000001969
B1514032808096N01638900WA0000001969
B1514042808096N01638896WA0000001969
B1514052808096N01638891WA0000001968
B1514062808098N01638886WA0000001967
B1514072808099N01638880WA0000001965
B1514082808100N01638874WA0000001964
B1514092808102N01638868WA0000001963
B1514102808104N01638862WA0000001962
B1514112808107N01638857WA0000001962
B1514122808111N01638852WA0000001961
B1514132808115N01638847WA0000001960
B1514142808118N01638841WA0000001959
B1514152808122N01638835WA0000001957
B1514162808125N01638829WA0000001955
B1514172808128N01638823WA0000001955
B1514182808131N01638817WA0000001954
B1514192808134N01638810WA0000001952
B1514202808137N01638803WA0000001950
B1514212808140N01638795WA0000001948
B1514222808143N01638788WA0000001947
B1514232808145N01638781WA0000001946
B1514242808149N01638774WA0000001945
B1514252808152N01638766WA0000001944
B1514262808155N01638759WA0000001941
B1514272808158N01638751WA0000001940
B1514282808161N01638744WA0000001939
B1514292808164N01638736WA0000001938
B1514302808167N01638729WA0000001937
B1514312808169N01638722WA0000001936
B1514322808173N01638715WA0000001934
B1514332808176N01638708WA0000001932
B1514342808179N01638701WA0000001930
B1514352808183N01638694WA0000001928
B1514362808187N01638687WA0000001926
B1514372808192N01638680WA0000001925
B1514382808196N01638674WA0000001924
B1514392808200N01638668WA0000001923
B1514402808204N01638662WA0000001922
B1514412808208N01638655WA0000001922
B1514422808212N01638649WA0000001920
B1514432808217N01638642WA0000001918
B1514442808221N01638635WA0000001916
B1514452808225N01638629WA0000001914
B1514462808229N01638622WA0000001914
B1514472808233N01638614WA0000001912
B1514482808237N01638607WA0000001908
B1514492808241N01638599WA0000001906
B1514502808245N01638590WA0000001904
B1514512808248N01638583WA0000001903
B1514522808251N01638576WA0000001903
B1514532808252N01638569WA0000001903
B1514542808255N01638562WA0000001902
B1514552808257N01638555WA0000001901
B1514562808261N01638547WA0000001898
B1514572808265N01638540WA0000001896
B1514582808269N01638533WA0000001893
B1514592808274N01638525WA0000001893
B1515002808277N01638518WA0000001893
B1515012808279N01638512WA0000001891
B1515022808282N01638504WA0000001889
B1515032808284N01638497WA0000001888
B1515042808287N01638490WA0000001887
B1515052808289N01638483WA0000001886
B1515062808292N01638477WA0000001886
B1515072808295N01638470WA0000001886
B1515082808297N01638463WA0000001885
B1515092808300N01638456WA0000001884
B1515102808303N01638448WA0000001883
B1515112808305N01638441WA0000001882
B1515122808308N01638433WA0000001879
B1515132808310N01638426WA0000001878
B1515142808313N01638418WA0000001876
B1515152808316N01638412WA0000001875
B1515162808319N01638404WA0000001874
B1515172808321N01638398WA0000001873
B1515182808323N01638391WA0000001873
B1515192808325N01638385WA0000001871
B1515202808328N01638378WA0000001870
B1515212808330N01638371WA0000001867
B1515222808332N01638364WA0000001864
B1515232808334N01638357WA0000001861
B1515242808336N01638350WA0000001859
B1515252808339N01638344WA0000001859
B1515262808341N01638339WA0000001858
B1515272808344N01638333WA0000001857
B1515282808347N01638328WA0000001856
B1515292808351N01638322WA0000001854
B1515302808355N01638317WA0000001851
B1515312808360N01638312WA0000001849
B1515322808365N01638307WA0000001849
B1515332808369N01638303WA0000001847
B1515342808372N01638298WA0000001847
B1515352808375N01638292WA0000001846
B1515362808378N01638286WA0000001845
B1515372808381N01638280WA0000001845
B1515382808384N01638275WA0000001844
B1515392808386N01638270WA0000001845
B1515402808388N01638265WA0000001845
B1515412808389N01638258WA0000001845
B1515422808390N01638252WA0000001844
B1515432808391N01638246WA0000001843
B1515442808394N01638240WA0000001842
B1515452808398N01638236WA0000001842
B1515462808402N01638233WA0000001841
B1515472808406N01638229WA0000001839
B1515482808409N01638223WA0000001837
B1515492808412N01638217WA0000001835
B1515502808414N01638210WA0000001833
B1515512808415N01638203WA0000001832
B1515522808417N01638196WA0000001831
B1515532808419N01638189WA0000001830
B1515542808421N01638182WA0000001830
B1515552808424N01638176WA0000001829
B1515562808427N01638169WA0000001827
B1515572808430N01638162WA0000001827
B1515582808433N01638156WA0000001828
B1515592808437N01638149WA0000001827
B1516002808441N01638143WA0000001827
B1516012808445N01638136WA0000001827
B1516022808449N01638129WA0000001827
B1516032808453N01638122WA0000001827
B1516042808457N01638116WA0000001826
B1516052808461N01638110WA0000001827
B1516062808465N01638104WA0000001826
B1516072808470N01638099WA0000001826
B1516082808474N01638093WA0000001827
B1516092808478N01638087WA0000001827
B1516102808482N01638082WA0000001828
B1516112808486N01638077WA0000001828
B1516122808490N01638072WA0000001827
B1516132808496N01638067WA0000001826
B1516142808502N01638062WA0000001825
B1516152808509N01638057WA0000001824
B1516162808515N01638053WA0000001824
B1516172808521N01638049WA0000001824
B1516182808526N01638044WA0000001824
B1516192808532N01638039WA0000001822
B1516202808536N01638033WA0000001821
B1516212808541N01638026WA0000001820
B1516222808546N01638020WA0000001819
B1516232808550N01638014WA0000001818
B1516242808556N01638009WA0000001817
B1516252808562N01638004WA0000001816
B1516262808568N01638001WA0000001816
B1516272808574N01637997WA0000001816
B1516282808578N01637993WA0000001819
B1516292808582N01637990WA0000001821
B1516302808584N01637987WA0000001822
B1516312808587N01637984WA0000001824
B1516322808591N01637981WA0000001825
B1516332808595N01637977WA0000001826
B1516342808599N01637973WA0000001826
B1516352808602N01637969WA0000001826
B1516362808603N01637964WA0000001826
B1516372808601N01637960WA0000001825
B1516382808598N01637957WA0000001825
B1516392808595N01637956WA0000001824
B1516402808592N01637957WA0000001825
B1516412808590N01637958WA0000001826
B1516422808588N01637959WA0000001828
B1516432808587N01637959WA0000001830
B1516442808585N01637960WA0000001830
B1516452808583N01637961WA0000001831
B1516462808580N01637964WA0000001829
B1516472808579N01637968WA0000001828
B1516482808579N01637974WA0000001827
B1516492808582N01637980WA0000001826
B1516502808587N01637985WA0000001826
B1516512808594N01637987WA0000001826
B1516522808601N01637989WA0000001826
B1516532808607N01637989WA0000001827
B1516542808612N01637989WA0000001829
B1516552808617N01637988WA0000001831
B1516562808622N01637986WA0000001831
B1516572808626N01637984WA0000001831
B1516582808630N01637979WA0000001831
B1516592808631N01637974WA0000001829
B1517002808631N01637968WA0000001828
B1517012808630N01637963WA0000001828
B1517022808628N01637960WA0000001828
B1517032808626N01637957WA0000001828
B1517042808626N01637954WA0000001828
B1517052808625N01637951WA0000001827
B1517062808625N01637946WA0000001824
B1517082808623N01637934WA0000001815
B1517092808623N01637928WA0000001815
B1517102808622N01637921WA0000001814
B1517112808622N01637915WA0000001812
B1517122808622N01637908WA0000001813
B1517132808624N01637902WA0000001813
B1517142808628N01637897WA0000001813
B1517152808632N01637892WA0000001813
B1517162808636N01637886WA0000001811
B1517172808640N01637880WA0000001810
B1517182808643N01637874WA0000001809
B1517192808646N01637868WA0000001808
B1517202808649N01637862WA0000001808
B1517212808653N01637857WA0000001808
B1517222808657N01637852WA0000001808
B1517232808661N01637847WA0000001807
B1517242808665N01637842WA0000001806
B1517252808669N01637836WA0000001805
B1517262808674N01637830WA0000001804
B1517272808678N01637826WA0000001804
B1517282808682N01637822WA0000001804
B1517292808687N01637819WA0000001804
B1517302808692N01637816WA0000001802
B1517312808698N01637813WA0000001799
B1517322808703N01637809WA0000001797
B1517332808709N01637806WA0000001795
B1517342808714N01637803WA0000001795
B1517352808719N01637799WA0000001795
B1517362808724N01637796WA0000001795
B1517372808729N01637792WA0000001793
B1517382808734N01637787WA0000001792
B1517392808738N01637783WA0000001791
B1517402808743N01637779WA0000001790
B1517412808748N01637775WA0000001790
B1517422808754N01637770WA0000001790
B1517432808759N01637766WA0000001788
B1517442808764N01637760WA0000001787
B1517452808768N01637755WA0000001786
B1517462808772N01637750WA0000001785
B1517472808775N01637746WA0000001785
B1517482808778N01637741WA0000001784
B1517492808782N01637736WA0000001782
B1517502808786N01637731WA0000001780
B1517512808791N01637726WA0000001778
B1517522808797N01637721WA0000001776
B1517532808802N01637716WA0000001776
B1517542808806N01637712WA0000001775
B1517552808810N01637707WA0000001774
B1517562808815N01637703WA0000001773
B1517572808820N01637699WA0000001771
B1517582808825N01637694WA0000001769
B1517592808830N01637690WA0000001767
B1518002808835N01637685WA0000001765
B1518012808840N01637680WA0000001764
B1518022808845N01637675WA0000001763
B1518032808850N01637670WA0000001763
B1518042808854N01637666WA0000001762
B1518052808858N01637662WA0000001762
B1518062808862N01637657WA0000001761
B1518072808864N01637652WA0000001760
B1518082808867N01637646WA0000001757
B1518092808868N01637640WA0000001755
B1518102808868N01637634WA0000001752
B1518112808869N01637627WA0000001748
B1518122808869N01637621WA0000001747
B1518132808869N01637616WA0000001746
B1518142808867N01637610WA0000001745
B1518152808866N01637604WA0000001742
B1518162808865N01637597WA0000001739
B1518172808865N01637590WA0000001738
B1518182808867N01637584WA0000001737
B1518192808870N01637578WA0000001737
B1518202808872N01637573WA0000001737
B1518212808873N01637567WA0000001736
B1518222808873N01637560WA0000001734
B1518232808873N01637553WA0000001733
B1518242808874N01637546WA0000001731
B1518252808875N01637539WA0000001732
B1518262808876N01637533WA0000001734
B1518272808876N01637527WA0000001736
B1518282808876N01637522WA0000001738
B1518292808876N01637518WA0000001739
B1518302808875N01637513WA0000001740
B1518312808876N01637508WA0000001741
B1518322808876N01637503WA0000001741
B1518332808877N01637497WA0000001741
B1518342808880N01637490WA0000001740
B1518352808884N01637483WA0000001738
B1518362808889N01637478WA0000001737
B1518372808896N01637473WA0000001738
B1518382808902N01637469WA0000001739
B1518392808908N01637464WA0000001739
B1518402808913N01637459WA0000001739
B1518412808917N01637453WA0000001739
B1518422808919N01637446WA0000001738
B1518432808920N01637439WA0000001737
B1518442808919N01637433WA0000001736
B1518452808919N01637427WA0000001734
B1518462808919N01637421WA0000001731
B1518472808919N01637414WA0000001728
B1518482808921N01637407WA0000001725
B1518492808923N01637401WA0000001723
B1518502808926N01637394WA0000001720
B1518512808928N01637388WA0000001717
B1518522808930N01637381WA0000001715
B1518532808932N01637375WA0000001714
B1518542808934N01637368WA0000001712
B1518552808936N01637361WA0000001709
B1518562808937N01637353WA0000001707
B1518572808939N01637344WA0000001703
B1518582808940N01637336WA0000001700
B1518592808941N01637328WA0000001699
B1519002808942N01637321WA0000001697
B1519012808941N01637314WA0000001697
B1519022808939N01637307WA0000001695
B1519032808937N01637301WA0000001692
B1519042808934N01637294WA0000001689
B1519052808932N01637287WA0000001687
B1519062808929N01637281WA0000001686
B1519072808925N01637270WA0000001684
B1519092808924N01637264WA0000001684
B1519102808923N01637258WA0000001684
B1519112808923N01637251WA0000001682
B1519122808923N01637243WA0000001680
B1519132808923N01637235WA0000001679
B1519142808923N01637228WA0000001679
B1519152808923N01637221WA0000001678
B1519162808923N01637214WA0000001677
B1519172808923N01637208WA0000001676
B1519182808923N01637201WA0000001675
B1519192808922N01637194WA0000001676
B1519202808921N01637187WA0000001674
B1519212808920N01637180WA0000001672
B1519222808919N01637173WA0000001670
B1519232808919N01637166WA0000001668
B1519242808920N01637160WA0000001667
B1519252808921N01637154WA0000001665
B1519262808922N01637148WA0000001663
B1519272808923N01637141WA0000001661
B1519282808923N01637133WA0000001659
B1519292808923N01637126WA0000001657
B1519302808922N01637120WA0000001656
B1519312808920N01637114WA0000001655
B1519322808920N01637107WA0000001654
B1519332808920N01637100WA0000001653
B1519342808920N01637093WA0000001651
B1519352808920N01637087WA0000001650
B1519362808919N01637080WA0000001650
B1519372808918N01637074WA0000001649
B1519382808917N01637068WA0000001647
B1519392808916N01637061WA0000001647
B1519402808914N01637054WA0000001646
B1519412808912N01637047WA0000001644
B1519422808910N01637040WA0000001642
B1519432808908N01637033WA0000001641
B1519442808907N01637027WA0000001639
B1519452808907N01637020WA0000001637
B1519462808906N01637013WA0000001634
B1519472808906N01637005WA0000001632
B1519482808906N01636997WA0000001629
B1519492808906N01636989WA0000001627
B1519502808907N01636981WA0000001625
B1519512808908N01636973WA0000001624
B1519522808908N01636966WA0000001623
B1519532808908N01636959WA0000001621
B1519542808908N01636952WA0000001619
B1519552808907N01636945WA0000001616
B1519562808907N01636938WA0000001614
B1519572808905N01636932WA0000001613
B1519582808902N01636927WA0000001612
B1519592808900N01636922WA0000001609
B1520002808898N01636917WA0000001608
B1520012808897N01636912WA0000001607
B1520022808895N01636905WA0000001605
B1520032808893N01636899WA0000001601
B1520042808890N01636894WA0000001601
B1520052808887N01636890WA0000001600
B1520062808884N01636886WA0000001600
B1520072808881N01636883WA0000001600
B1520082808878N01636880WA0000001600
B1520092808875N01636877WA0000001599
B1520102808871N01636874WA0000001599
B1520112808867N01636873WA0000001600
B1520122808864N01636873WA0000001601
B1520132808862N01636874WA0000001602
B1520142808860N01636875WA0000001604
B1520152808857N01636875WA0000001605
B1520162808855N01636873WA0000001604
B1520172808852N01636871WA0000001603
B1520182808849N01636868WA0000001601
B1520192808847N01636863WA0000001602
B1520202808846N01636859WA0000001603
B1520212808846N01636856WA0000001604
B1520222808846N01636853WA0000001605
B1520232808845N01636851WA0000001606
B1520242808842N01636849WA0000001607
B1520252808838N01636847WA0000001605
B1520262808834N01636844WA0000001604
B1520272808831N01636841WA0000001602
B1520282808829N01636838WA0000001602
B1520292808827N01636834WA0000001603
B1520302808825N01636831WA0000001603
B1520312808824N01636827WA0000001602
B1520322808821N01636823WA0000001602
B1520332808818N01636818WA0000001600
B1520342808815N01636813WA0000001599
B1520352808812N01636809WA0000001598
B1520362808809N01636808WA0000001598
B1520372808806N01636808WA0000001598
B1520382808803N01636811WA0000001597
B1520392808799N01636814WA0000001595
B1520402808796N01636816WA0000001594
B1520412808791N01636816WA0000001593
B1520422808787N01636815WA0000001591
B1520432808783N01636813WA0000001590
B1520442808779N01636810WA0000001590
B1520452808776N01636808WA0000001588
B1520462808774N01636805WA0000001588
B1520472808771N01636803WA0000001587
B1520482808770N01636800WA0000001586
B1520492808768N01636796WA0000001586
B1520502808767N01636792WA0000001584
B1520512808766N01636787WA0000001582
B1520522808765N01636782WA0000001581
B1520532808763N01636778WA0000001582
B1520542808761N01636775WA0000001580
B1520552808760N01636771WA0000001579
B1520562808759N01636767WA0000001578
B1520572808759N01636762WA0000001576
B1520582808761N01636757WA0000001575
B1520592808762N01636752WA0000001575
B1521002808765N01636747WA0000001575
B1521012808767N01636743WA0000001575
B1521022808770N01636739WA0000001575
B1521032808772N01636734WA0000001574
B1521042808774N01636729WA0000001571
B1521052808775N01636725WA0000001571
B1521062808776N01636721WA0000001571
B1521082808776N01636713WA0000001569
B1521092808776N01636710WA0000001569
B1521102808775N01636707WA0000001569
B1521112808774N01636704WA0000001569
B1521122808773N01636700WA0000001567
B1521132808772N01636696WA0000001567
B1521142808771N01636691WA0000001568
B1521152808773N01636687WA0000001568
B1521162808774N01636682WA0000001568
B1521172808775N01636678WA0000001567
B1521182808776N01636672WA0000001565
B1521192808776N01636666WA0000001563
B1521202808776N01636660WA0000001563
B1521212808777N01636654WA0000001563
B1521222808778N01636649WA0000001563
B1521232808780N01636643WA0000001564
B1521242808782N01636637WA0000001563
B1521252808784N01636630WA0000001562
B1521262808787N01636624WA0000001562
B1521272808791N01636619WA0000001561
B1521282808795N01636613WA0000001561
B1521292808799N01636607WA0000001560
B1521302808804N01636601WA0000001560
B1521312808808N01636596WA0000001561
B1521322808812N01636592WA0000001561
B1521332808816N01636588WA0000001562
B1521342808820N01636584WA0000001560
B1521352808823N01636578WA0000001558
B1521362808826N01636572WA0000001557
B1521372808829N01636565WA0000001555
B1521382808831N01636560WA0000001555
B1521392808831N01636555WA0000001555
B1521402808830N01636550WA0000001555
B1521412808829N01636547WA0000001554
B1521422808826N01636544WA0000001553
B1521432808823N01636542WA0000001551
B1521442808821N01636540WA0000001550
B1521452808819N01636536WA0000001549
B1521462808817N01636532WA0000001547
B1521472808816N01636526WA0000001545
B1521482808816N01636520WA0000001542
B1521492808817N01636514WA0000001541
B1521502808818N01636509WA0000001541
B1521512808820N01636505WA0000001541
B1521522808822N01636501WA0000001540
B1521532808826N01636497WA0000001538
B1521542808830N01636492WA0000001537
B1521552808834N01636488WA0000001534
B1521562808839N01636483WA0000001533
B1521572808844N01636479WA0000001533
B1521582808848N01636475WA0000001532
B1521592808852N01636469WA0000001530
B1522002808855N01636464WA0000001528
B1522012808858N01636458WA0000001526
B1522022808862N01636453WA0000001524
B1522032808868N01636448WA0000001523
B1522042808874N01636445WA0000001522
B1522052808882N01636442WA0000001522
B1522062808889N01636441WA0000001521
B1522072808894N01636439WA0000001523
B1522082808900N01636437WA0000001524
B1522092808905N01636436WA0000001526
B1522102808910N01636436WA0000001526
B1522112808916N01636436WA0000001527
B1522122808921N01636435WA0000001527
B1522132808927N01636434WA0000001526
B1522142808932N01636433WA0000001525
B1522152808936N01636430WA0000001525
B1522162808939N01636427WA0000001526
B1522172808940N01636423WA0000001525
B1522182808941N01636418WA0000001524
B1522192808944N01636414WA0000001523
B1522202808947N01636410WA0000001523
B1522212808952N01636408WA0000001522
B1522222808956N01636406WA0000001522
B1522232808960N01636403WA0000001522
B1522242808965N01636400WA0000001522
B1522252808969N01636397WA0000001522
B1522262808974N01636394WA0000001523
B1522272808979N01636391WA0000001523
B1522282808984N01636389WA0000001523
B1522292808989N01636386WA0000001525
B1522302808993N01636384WA0000001527
B1522312808997N01636381WA0000001528
B1522322809001N01636379WA0000001528
B1522332809005N01636376WA0000001529
B1522342809009N01636372WA0000001530
B1522352809014N01636369WA0000001531
B1522362809018N01636367WA0000001533
B1522372809022N01636364WA0000001536
B1522382809025N01636362WA0000001537
B1522392809028N01636360WA0000001539
B1522402809033N01636358WA0000001540
B1522412809037N01636356WA0000001538
B1522422809043N01636354WA0000001537
B1522432809047N01636351WA0000001536
B1522442809050N01636346WA0000001537
B1522452809050N01636341WA0000001537
B1522462809049N01636337WA0000001537
B1522472809046N01636334WA0000001537
B1522482809042N01636334WA0000001538
B1522492809038N01636335WA0000001539
B1522502809035N01636338WA0000001537
B1522512809032N01636341WA0000001538
B1522522809030N01636345WA0000001539
B1522532809028N01636349WA0000001542
B1522542809026N01636352WA0000001543
B1522552809024N01636356WA0000001544
B1522562809021N01636359WA0000001545
B1522572809018N01636364WA0000001545
B1522582809017N01636370WA0000001545
B1522592809017N01636377WA0000001547
B1523002809019N01636386WA0000001547
B1523012809025N01636393WA0000001546
B1523022809033N01636396WA0000001547
B1523032809040N01636395WA0000001547
B1523042809047N01636392WA0000001548
B1523052809050N01636386WA0000001548
B1523062809049N01636380WA0000001549
B1523072809046N01636376WA0000001550
B1523082809042N01636374WA0000001551
B1523092809039N01636377WA0000001552
B1523102809037N01636383WA0000001553
B1523112809037N01636390WA0000001554
B1523122809038N01636397WA0000001557
B1523132809040N01636403WA0000001558
B1523142809042N01636410WA0000001560
B1523152809044N01636417WA0000001561
B1523162809047N01636424WA0000001561
B1523172809051N01636430WA0000001560
B1523182809056N01636435WA0000001561
B1523192809063N01636437WA0000001562
B1523202809070N01636438WA0000001562
B1523212809076N01636436WA0000001563
B1523222809082N01636434WA0000001565
B1523232809087N01636432WA0000001567
B1523242809092N01636430WA0000001569
B1523252809097N01636429WA0000001571
B1523262809102N01636429WA0000001572
B1523272809108N01636431WA0000001572
B1523282809114N01636434WA0000001572
B1523292809120N01636437WA0000001573
B1523302809124N01636442WA0000001575
B1523312809127N01636448WA0000001575
B1523322809130N01636454WA0000001576
B1523332809132N01636460WA0000001577
B1523342809136N01636466WA0000001578
B1523352809140N01636471WA0000001579
B1523362809145N01636475WA0000001578
B1523372809150N01636478WA0000001578
B1523382809157N01636479WA0000001578
B1523392809162N01636477WA0000001578
B1523402809167N01636473WA0000001577
B1523412809169N01636467WA0000001576
B1523422809169N01636462WA0000001576
B1523432809169N01636457WA0000001577
B1523442809167N01636453WA0000001578
B1523452809165N01636449WA0000001579
B1523462809163N01636445WA0000001579
B1523472809161N01636441WA0000001579
B1523482809160N01636436WA0000001580
B1523492809160N01636431WA0000001581
B1523502809160N01636427WA0000001582
B1523512809158N01636423WA0000001582
B1523522809154N01636421WA0000001583
B1523532809149N01636419WA0000001580
B1523542809143N01636421WA0000001576
B1523552809138N01636425WA0000001575
B1523562809135N01636430WA0000001576
B1523572809134N01636435WA0000001576
B1523582809134N01636441WA0000001577
B1523592809134N01636447WA0000001578
B1524002809136N01636452WA0000001579
B1524012809137N01636458WA0000001580
B1524022809139N01636464WA0000001582
B1524032809142N01636469WA0000001583
B1524042809146N01636474WA0000001583
B1524052809151N01636480WA0000001582
B1524062809157N01636483WA0000001582
B1524072809164N01636483WA0000001582
B1524082809170N01636481WA0000001582
B1524092809174N01636477WA0000001583
B1524102809176N01636472WA0000001583
B1524112809177N01636467WA0000001584
B1524122809176N01636462WA0000001583
B1524132809172N01636459WA0000001582
B1524142809169N01636458WA0000001580
B1524152809164N01636458WA0000001580
B1524162809160N01636459WA0000001580
B1524172809156N01636458WA0000001581
B1524182809152N01636456WA0000001581
B1524192809148N01636454WA0000001582
B1524202809146N01636452WA0000001584
B1524212809145N01636451WA0000001584
B1524222809143N01636450WA0000001584
B1524232809140N01636448WA0000001583
B1524242809137N01636447WA0000001583
B1524252809134N01636446WA0000001584
B1524262809131N01636447WA0000001585
B1524272809130N01636448WA0000001586
B1524282809128N01636450WA0000001586
B1524292809126N01636450WA0000001584
B1524302809124N01636451WA0000001583
B1524312809122N01636449WA0000001582
B1524322809119N01636447WA0000001581
B1524332809116N01636446WA0000001581
B1524342809112N01636447WA0000001582
B1524352809109N01636448WA0000001582
B1524362809106N01636450WA0000001583
B1524372809103N01636453WA0000001584
B1524382809102N01636457WA0000001585
B1524392809101N01636461WA0000001585
B1524402809099N01636465WA0000001586
B1524412809097N01636469WA0000001586
B1524422809096N01636472WA0000001585
B1524432809093N01636474WA0000001585
B1524442809091N01636476WA0000001584
B1524452809087N01636472WA0000001583
B1524462809084N01636469WA0000001582
B1524472809083N01636465WA0000001581
B1524482809082N01636461WA0000001580
B1524492809083N01636457WA0000001580
B1524502809083N01636453WA0000001580
B1524512809085N01636448WA0000001578
B1524522809087N01636443WA0000001576
B1524532809090N01636438WA0000001576
B1524542809094N01636434WA0000001576
B1524552809096N01636430WA0000001577
B1524562809097N01636426WA0000001577
B1524572809098N01636423WA0000001577
B1524582809097N01636418WA0000001577
B1524592809096N01636414WA0000001576
B1525002809096N01636409WA0000001574
B1525012809096N01636404WA0000001574
B1525022809097N01636400WA0000001573
B1525032809098N01636396WA0000001573
B1525042809099N01636391WA0000001572
B1525052809099N01636385WA0000001570
B1525062809099N01636380WA0000001569
B1525072809100N01636374WA0000001566
B1525082809100N01636369WA0000001566
B1525092809100N01636363WA0000001564
B1525102809100N01636357WA0000001564
B1525112809100N01636352WA0000001564
B1525122809100N01636346WA0000001563
B1525132809100N01636341WA0000001563
B1525142809101N01636335WA0000001562
B1525152809103N01636329WA0000001561
B1525162809104N01636323WA0000001561
B1525172809106N01636317WA0000001560
B1525182809107N01636312WA0000001560
B1525192809108N01636306WA0000001559
B1525202809110N01636300WA0000001557
B1525212809112N01636295WA0000001556
B1525222809114N01636290WA0000001555
B1525232809116N01636284WA0000001553
B1525242809119N01636279WA0000001552
B1525252809123N01636273WA0000001551
B1525262809126N01636268WA0000001551
B1525272809130N01636264WA0000001550
B1525282809133N01636260WA0000001549
B1525292809137N01636255WA0000001547
B1525302809140N01636251WA0000001546
B1525312809144N01636246WA0000001542
B1525322809147N01636241WA0000001539
B1525332809150N01636236WA0000001536
B1525342809153N01636231WA0000001533
B1525352809157N01636226WA0000001531
B1525362809162N01636222WA0000001530
B1525372809166N01636219WA0000001530
B1525382809170N01636215WA0000001529
B1525392809175N01636211WA0000001528
B1525402809178N01636207WA0000001527
B1525412809182N01636203WA0000001525
B1525422809186N01636198WA0000001522
B1525432809189N01636192WA0000001520
B1525442809193N01636187WA0000001518
B1525452809198N01636182WA0000001517
B1525462809203N01636177WA0000001517
B1525472809208N01636172WA0000001515
B1525482809213N01636168WA0000001515
B1525492809218N01636165WA0000001515
B1525502809224N01636163WA0000001515
B1525512809230N01636161WA0000001516
B1525522809234N01636159WA0000001517
B1525532809238N01636158WA0000001518
B1525542809241N01636156WA0000001519
B1525552809244N01636154WA0000001520
B1525562809248N01636152WA0000001520
B1525572809252N01636150WA0000001520
B1525582809256N01636150WA0000001520
B1525592809260N01636149WA0000001521
B1526002809265N01636149WA0000001521
B1526012809271N01636149WA0000001519
B1526022809277N01636151WA0000001519
B1526032809284N01636152WA0000001518
B1526042809290N01636154WA0000001518
B1526052809296N01636156WA0000001518
B1526062809302N01636157WA0000001519
B1526072809307N01636158WA0000001521
B1526082809312N01636160WA0000001523
B1526092809316N01636161WA0000001524
B1526102809322N01636162WA0000001524
B1526112809328N01636164WA0000001524
B1526122809335N01636167WA0000001525
B1526132809339N01636170WA0000001526
B1526142809344N01636173WA0000001528
B1526152809349N01636175WA0000001531
B1526162809354N01636176WA0000001532
B1526172809360N01636176WA0000001533
B1526182809365N01636175WA0000001534
B1526192809370N01636175WA0000001535
B1526202809376N01636174WA0000001536
B1526212809382N01636174WA0000001537
B1526222809388N01636174WA0000001538
B1526232809394N01636174WA0000001538
B1526242809400N01636174WA0000001538
B1526252809407N01636173WA0000001539
B1526262809413N01636173WA0000001539
B1526272809419N01636173WA0000001540
B1526282809425N01636172WA0000001540
B1526292809431N01636170WA0000001540
B1526302809437N01636167WA0000001540
B1526312809443N01636165WA0000001541
B1526322809448N01636162WA0000001541
B1526332809453N01636160WA0000001540
B1526342809458N01636157WA0000001540
B1526352809464N01636154WA0000001538
B1526362809471N01636152WA0000001538
B1526382809485N01636148WA0000001540
B1526392809491N01636148WA0000001540
B1526402809497N01636148WA0000001541
B1526412809503N01636147WA0000001543
B1526422809509N01636147WA0000001545
B1526432809515N01636146WA0000001545
B1526442809520N01636143WA0000001546
B1526452809526N01636140WA0000001546
B1526462809531N01636136WA0000001546
B1526472809535N01636132WA0000001545
B1526482809540N01636128WA0000001544
B1526492809545N01636125WA0000001545
B1526502809549N01636121WA0000001545
B1526512809552N01636116WA0000001545
B1526522809553N01636111WA0000001544
B1526532809551N01636106WA0000001542
B1526542809547N01636102WA0000001540
B1526552809543N01636102WA0000001540
B1526562809540N01636105WA0000001541
B1526572809538N01636109WA0000001542
B1526582809537N01636114WA0000001542
B1526592809536N01636119WA0000001544
B1527002809535N01636123WA0000001546
B1527012809532N01636126WA0000001548
B1527022809529N01636129WA0000001549
B1527032809525N01636131WA0000001549
B1527042809522N01636134WA0000001549
B1527052809519N01636137WA0000001551
B1527062809517N01636140WA0000001552
B1527072809515N01636143WA0000001552
B1527082809513N01636147WA0000001551
B1527092809513N01636154WA0000001549
B1527102809514N01636162WA0000001548
B1527112809517N01636169WA0000001547
B1527122809521N01636176WA0000001547
B1527132809525N01636181WA0000001549
B1527142809529N01636187WA0000001550
B1527152809533N01636191WA0000001550
B1527162809538N01636196WA0000001551
B1527172809541N01636202WA0000001551
B1527182809543N01636207WA0000001552
B1527192809544N01636213WA0000001551
B1527202809542N01636218WA0000001551
B1527212809537N01636222WA0000001550
B1527222809531N01636222WA0000001552
B1527232809526N01636219WA0000001552
B1527242809522N01636216WA0000001552
B1527252809521N01636212WA0000001554
B1527262809519N01636208WA0000001556
B1527272809519N01636205WA0000001557
B1527282809518N01636200WA0000001557
B1527292809517N01636196WA0000001558
B1527302809516N01636190WA0000001557
B1527312809518N01636185WA0000001557
B1527322809521N01636180WA0000001558
B1527332809526N01636177WA0000001561
B1527342809531N01636174WA0000001561
B1527352809536N01636171WA0000001562
B1527362809540N01636168WA0000001564
B1527372809545N01636166WA0000001564
B1527382809552N01636163WA0000001564
B1527392809559N01636161WA0000001563
B1527402809566N01636160WA0000001562
B1527412809573N01636158WA0000001562
B1527422809579N01636157WA0000001563
B1527432809584N01636154WA0000001564
B1527442809589N01636151WA0000001565
B1527452809593N01636148WA0000001565
B1527462809597N01636144WA0000001565
B1527472809601N01636140WA0000001565
B1527482809605N01636136WA0000001565
B1527492809609N01636132WA0000001564
B1527502809612N01636127WA0000001564
B1527512809616N01636122WA0000001562
B1527522809618N01636116WA0000001562
B1527532809620N01636111WA0000001560
B1527542809622N01636105WA0000001560
B1527552809624N01636100WA0000001558
B1527562809626N01636094WA0000001558
B1527572809627N01636089WA0000001557
B1527582809627N01636083WA0000001556
B1527592809627N01636077WA0000001557
B1528002809627N01636073WA0000001559
B1528012809628N01636069WA0000001562
B1528022809628N01636066WA0000001564
B1528032809629N01636062WA0000001563
B1528042809630N01636058WA0000001561
B1528052809630N01636052WA0000001559
B1528062809630N01636047WA0000001558
B1528072809630N01636041WA0000001557
B1528082809629N01636036WA0000001556
B1528092809628N01636032WA0000001557
B1528102809627N01636028WA0000001557
B1528112809625N01636024WA0000001556
B1528122809623N01636019WA0000001555
B1528132809621N01636014WA0000001554
B1528142809620N01636010WA0000001555
B1528152809620N01636007WA0000001557
B1528162809620N01636004WA0000001556
B1528172809621N01636001WA0000001555
B1528182809622N01635998WA0000001553
B1528192809622N01635993WA0000001550
B1528202809622N01635988WA0000001548
B1528212809622N01635984WA0000001547
B1528222809622N01635979WA0000001547
B1528232809623N01635975WA0000001546
B1528242809623N01635971WA0000001546
B1528252809623N01635966WA0000001545
B1528262809624N01635961WA0000001546
B1528272809625N01635956WA0000001546
B1528282809628N01635951WA0000001547
B1528292809631N01635946WA0000001548
B1528302809634N01635943WA0000001550
B1528312809639N01635939WA0000001551
B1528322809642N01635937WA0000001552
B1528332809646N01635935WA0000001555
B1528342809651N01635932WA0000001557
B1528352809655N01635928WA0000001558
B1528362809661N01635925WA0000001560
B1528382809673N01635922WA0000001565
B1528392809679N01635922WA0000001566
B1528402809685N01635920WA0000001567
B1528412809690N01635917WA0000001567
B1528422809693N01635912WA0000001567
B1528432809694N01635906WA0000001567
B1528442809694N01635901WA0000001568
B1528452809692N01635898WA0000001567
B1528462809690N01635896WA0000001569
B1528472809685N01635904WA0000001569
B1528482809683N01635910WA0000001569
B1528492809681N01635916WA0000001569
B1528502809682N01635922WA0000001569
B1528512809685N01635928WA0000001571
B1528522809690N01635934WA0000001572
B1528532809695N01635939WA0000001573
B1528542809702N01635941WA0000001574
B1528552809709N01635941WA0000001575
B1528562809714N01635938WA0000001575
B1528572809718N01635932WA0000001574
B1528582809720N01635926WA0000001574
B1528592809721N01635921WA0000001575
B1529002809719N01635918WA0000001578
B1529012809717N01635916WA0000001579
B1529022809714N01635915WA0000001581
B1529032809712N01635916WA0000001582
B1529042809710N01635918WA0000001584
B1529052809707N01635920WA0000001584
B1529062809705N01635922WA0000001585
B1529072809702N01635922WA0000001586
B1529082809700N01635921WA0000001587
B1529092809698N01635919WA0000001588
B1529102809696N01635916WA0000001589
B1529112809695N01635913WA0000001589
B1529122809695N01635909WA0000001590
B1529132809696N01635905WA0000001590
B1529142809697N01635901WA0000001590
B1529152809699N01635896WA0000001590
B1529162809703N01635892WA0000001589
B1529172809707N01635888WA0000001590
B1529182809711N01635885WA0000001590
B1529192809716N01635882WA0000001591
B1529202809720N01635878WA0000001592
B1529212809723N01635874WA0000001595
B1529222809725N01635870WA0000001599
B1529232809729N01635867WA0000001602
B1529242809733N01635865WA0000001604
B1529252809739N01635863WA0000001605
B1529262809744N01635860WA0000001607
B1529272809747N01635857WA0000001609
B1529282809749N01635852WA0000001610
B1529292809749N01635846WA0000001611
B1529302809748N01635842WA0000001612
B1529312809746N01635838WA0000001613
B1529322809743N01635836WA0000001614
B1529332809741N01635834WA0000001614
B1529342809739N01635833WA0000001616
B1529352809738N01635833WA0000001616
B1529362809737N01635831WA0000001617
B1529372809735N01635830WA0000001617
B1529382809734N01635829WA0000001616
B1529392809732N01635827WA0000001616
B1529402809730N01635825WA0000001615
B1529412809729N01635822WA0000001615
B1529422809730N01635817WA0000001613
B1529432809733N01635813WA0000001612
B1529442809737N01635810WA0000001612
B1529452809743N01635808WA0000001611
B1529462809749N01635809WA0000001611
B1529472809755N01635812WA0000001609
B1529482809760N01635818WA0000001607
B1529492809765N01635825WA0000001605
B1529502809767N01635832WA0000001604
B1529512809768N01635840WA0000001602
B1529522809767N01635847WA0000001601
B1529532809766N01635853WA0000001601
B1529542809763N01635857WA0000001600
B1529552809760N01635861WA0000001600
B1529562809757N01635864WA0000001599
B1529572809753N01635866WA0000001600
B1529582809750N01635867WA0000001599
B1529592809746N01635868WA0000001599
B1530002809742N01635869WA0000001599
B1530012809739N01635869WA0000001600
B1530022809735N01635867WA0000001600
B1530032809732N01635865WA0000001602
B1530042809729N01635861WA0000001602
B1530052809727N01635856WA0000001602
B1530062809725N01635851WA0000001604
B1530072809723N01635847WA0000001605
B1530082809721N01635844WA0000001605
B1530092809719N01635843WA0000001606
B1530102809717N01635843WA0000001606
B1530112809715N01635844WA0000001607
B1530122809712N01635846WA0000001605
B1530132809709N01635849WA0000001604
B1530142809707N01635852WA0000001604
B1530152809706N01635857WA0000001605
B1530162809706N01635862WA0000001607
B1530172809708N01635867WA0000001607
B1530182809710N01635872WA0000001608
B1530192809714N01635877WA0000001609
B1530202809720N01635880WA0000001610
B1530212809727N01635882WA0000001608
B1530222809735N01635881WA0000001607
B1530232809741N01635876WA0000001607
B1530242809745N01635873WA0000001610
B1530252809749N01635870WA0000001613
B1530262809753N01635867WA0000001615
B1530272809758N01635865WA0000001617
B1530282809764N01635863WA0000001617
B1530292809770N01635861WA0000001615
B1530302809775N01635858WA0000001612
B1530312809780N01635855WA0000001610
B1530322809782N01635850WA0000001607
B1530332809779N01635845WA0000001606
B1530342809775N01635842WA0000001604
B1530352809771N01635841WA0000001602
B1530362809767N01635842WA0000001602
B1530372809763N01635844WA0000001602
B1530382809760N01635847WA0000001600
B1530392809757N01635850WA0000001599
B1530402809753N01635853WA0000001599
B1530412809749N01635855WA0000001598
B1530422809745N01635858WA0000001597
B1530432809741N01635860WA0000001597
B1530442809737N01635860WA0000001598
B1530452809732N01635859WA0000001598
B1530462809727N01635857WA0000001599
B1530472809723N01635854WA0000001600
B1530482809719N01635852WA0000001600
B1530492809716N01635851WA0000001603
B1530502809714N01635851WA0000001604
B1530512809711N01635850WA0000001604
B1530522809707N01635850WA0000001605
B1530532809704N01635850WA0000001605
B1530542809700N01635851WA0000001606
B1530552809697N01635853WA0000001607
B1530562809694N01635855WA0000001608
B1530572809691N01635857WA0000001609
B1530582809688N01635858WA0000001610
B1530592809685N01635859WA0000001612
B1531002809682N01635860WA0000001613
B1531012809679N01635862WA0000001613
B1531022809675N01635864WA0000001614
B1531032809671N01635866WA0000001616
B1531042809668N01635868WA0000001618
B1531052809665N01635869WA0000001620
B1531062809661N01635869WA0000001621
B1531072809659N01635870WA0000001623
B1531082809657N01635870WA0000001625
B1531092809655N01635870WA0000001626
B1531102809652N01635870WA0000001627
B1531112809650N01635871WA0000001627
B1531122809646N01635870WA0000001627
B1531132809643N01635869WA0000001627
B1531142809639N01635868WA0000001628
B1531152809637N01635867WA0000001630
B1531162809635N01635866WA0000001632
B1531172809633N01635864WA0000001635
B1531182809631N01635863WA0000001635
B1531192809628N01635862WA0000001636
B1531202809625N01635861WA0000001635
B1531212809621N01635860WA0000001633
B1531222809618N01635859WA0000001633
B1531232809616N01635858WA0000001634
B1531242809613N01635857WA0000001635
B1531252809610N01635854WA0000001634
B1531262809609N01635850WA0000001633
B1531272809608N01635844WA0000001631
B1531282809608N01635838WA0000001630
B1531292809610N01635831WA0000001630
B1531302809614N01635826WA0000001630
B1531312809618N01635821WA0000001630
B1531322809623N01635817WA0000001630
B1531332809629N01635814WA0000001631
B1531342809636N01635812WA0000001630
B1531352809643N01635811WA0000001629
B1531362809650N01635812WA0000001629
B1531372809657N01635816WA0000001628
B1531382809663N01635821WA0000001628
B1531392809667N01635827WA0000001626
B1531402809669N01635833WA0000001626
B1531412809671N01635838WA0000001628
B1531422809673N01635844WA0000001628
B1531432809675N01635849WA0000001628
B1531442809675N01635854WA0000001628
B1531452809674N01635858WA0000001629
B1531462809671N01635862WA0000001629
B1531472809668N01635865WA0000001628
B1531482809666N01635868WA0000001628
B1531492809665N01635871WA0000001629
B1531502809665N01635875WA0000001631
B1531512809666N01635879WA0000001632
B1531522809665N01635882WA0000001633
B1531532809664N01635886WA0000001631
B1531542809662N01635889WA0000001631
B1531552809659N01635890WA0000001631
B1531562809655N01635892WA0000001630
B1531572809651N01635892WA0000001629
B1531582809648N01635892WA0000001628
B1531592809645N01635892WA0000001627
B1532002809641N01635891WA0000001627
B1532012809637N01635892WA0000001627
B1532022809633N01635892WA0000001625
B1532032809629N01635892WA0000001622
B1532042809625N01635891WA0000001621
B1532052809622N01635890WA0000001622
B1532062809620N01635890WA0000001624
B1532072809618N01635889WA0000001624
B1532082809615N01635889WA0000001623
B1532092809612N01635889WA0000001621
B1532102809608N01635888WA0000001620
B1532112809604N01635888WA0000001620
B1532122809601N01635890WA0000001622
B1532132809598N01635894WA0000001625
B1532142809596N01635897WA0000001625
B1532152809594N01635899WA0000001626
B1532162809590N01635900WA0000001626
B1532172809585N01635899WA0000001627
B1532182809582N01635896WA0000001628
B1532192809579N01635893WA0000001630
B1532202809578N01635890WA0000001633
B1532212809577N01635888WA0000001634
B1532222809577N01635885WA0000001635
B1532232809574N01635882WA0000001634
B1532242809569N01635880WA0000001634
B1532252809565N01635879WA0000001634
B1532262809561N01635880WA0000001635
B1532272809557N01635882WA0000001635
B1532282809555N01635883WA0000001637
B1532292809552N01635883WA0000001639
B1532302809551N01635882WA0000001640
B1532312809549N01635879WA0000001641
B1532322809547N01635877WA0000001641
B1532332809547N01635874WA0000001642
B1532342809546N01635872WA0000001643
B1532352809546N01635868WA0000001644
B1532362809545N01635865WA0000001643
B1532372809543N01635862WA0000001644
B1532382809539N01635860WA0000001644
B1532392809536N01635860WA0000001644
B1532402809533N01635862WA0000001646
B1532412809531N01635865WA0000001647
B1532422809529N01635868WA0000001649
B1532432809527N01635871WA0000001648
B1532442809527N01635876WA0000001648
B1532452809527N01635883WA0000001647
B1532462809529N01635890WA0000001645
B1532472809534N01635897WA0000001645
B1532482809540N01635902WA0000001646
B1532492809547N01635904WA0000001646
B1532502809554N01635905WA0000001648
B1532512809561N01635904WA0000001649
B1532522809567N01635903WA0000001651
B1532532809573N01635902WA0000001653
B1532542809578N01635902WA0000001655
B1532552809584N01635902WA0000001657
B1532562809590N01635902WA0000001658
B1532572809597N01635902WA0000001659
B1532582809604N01635902WA0000001661
B1532592809609N01635901WA0000001663
B1533002809615N01635899WA0000001665
B1533012809621N01635897WA0000001667
B1533022809627N01635895WA0000001669
B1533032809633N01635893WA0000001671
B1533042809639N01635891WA0000001672
B1533052809644N01635889WA0000001674
B1533062809649N01635885WA0000001674
B1533072809653N01635880WA0000001675
B1533082809656N01635875WA0000001676
B1533092809657N01635871WA0000001678
B1533102809659N01635866WA0000001681
B1533112809661N01635862WA0000001683
B1533122809663N01635859WA0000001685
B1533132809664N01635855WA0000001685
B1533142809665N01635851WA0000001686
B1533152809665N01635847WA0000001686
B1533162809665N01635844WA0000001687
B1533172809663N01635840WA0000001687
B1533182809660N01635838WA0000001687
B1533192809657N01635837WA0000001689
B1533202809655N01635839WA0000001690
B1533212809652N01635843WA0000001693
B1533222809652N01635848WA0000001694
B1533232809652N01635855WA0000001695
B1533242809653N01635861WA0000001696
B1533252809657N01635867WA0000001698
B1533262809664N01635872WA0000001700
B1533272809671N01635874WA0000001701
B1533282809678N01635874WA0000001702
B1533292809685N01635872WA0000001705
B1533302809691N01635871WA0000001707
B1533312809695N01635869WA0000001710
B1533322809700N01635867WA0000001713
B1533332809704N01635864WA0000001713
B1533342809708N01635861WA0000001712
B1533352809711N01635856WA0000001711
B1533362809712N01635850WA0000001709
B1533372809712N01635844WA0000001708
B1533382809712N01635840WA0000001710
B1533392809711N01635837WA0000001712
B1533402809710N01635835WA0000001714
B1533412809707N01635835WA0000001715
B1533422809704N01635835WA0000001717
B1533432809701N01635834WA0000001718
B1533442809699N01635833WA0000001721
B1533452809698N01635831WA0000001725
B1533462809697N01635829WA0000001728
B1533472809695N01635827WA0000001730
B1533482809693N01635826WA0000001731
B1533492809691N01635826WA0000001732
B1533502809688N01635828WA0000001733
B1533512809686N01635833WA0000001734
B1533522809685N01635839WA0000001735
B1533532809687N01635846WA0000001736
B1533542809691N01635851WA0000001739
B1533552809696N01635857WA0000001741
B1533562809703N01635860WA0000001743
B1533572809710N01635861WA0000001744
B1533582809717N01635859WA0000001745
B1533592809723N01635856WA0000001746
B1534002809727N01635850WA0000001747
B1534012809728N01635844WA0000001749
B1534022809728N01635839WA0000001750
B1534032809726N01635835WA0000001751
B1534042809723N01635833WA0000001753
B1534052809720N01635833WA0000001755
B1534062809717N01635836WA0000001758
B1534072809715N01635840WA0000001760
B1534082809715N01635847WA0000001761
B1534092809716N01635853WA0000001762
B1534102809722N01635859WA0000001763
B1534112809729N01635862WA0000001765
B1534122809737N01635862WA0000001767
B1534132809743N01635860WA0000001769
B1534142809749N01635856WA0000001771
B1534152809753N01635852WA0000001774
B1534162809756N01635847WA0000001777
B1534172809759N01635841WA0000001779
B1534182809760N01635836WA0000001783
B1534192809762N01635831WA0000001786
B1534202809762N01635826WA0000001788
B1534212809761N01635822WA0000001791
B1534222809758N01635819WA0000001791
B1534242809751N01635816WA0000001796
B1534252809750N01635816WA0000001796
B1534262809748N01635824WA0000001796
B1534272809748N01635829WA0000001799
B1534282809748N01635834WA0000001802
B1534292809750N01635839WA0000001806
B1534302809751N01635843WA0000001809
B1534312809754N01635848WA0000001811
B1534322809758N01635853WA0000001812
B1534332809762N01635858WA0000001813
B1534342809767N01635861WA0000001815
B1534352809774N01635864WA0000001816
B1534362809781N01635863WA0000001817
B1534372809788N01635861WA0000001818
B1534382809795N01635857WA0000001821
B1534392809799N01635852WA0000001824
B1534402809800N01635846WA0000001825
B1534412809800N01635840WA0000001827
B1534422809797N01635835WA0000001828
B1534432809795N01635832WA0000001829
B1534442809792N01635830WA0000001833
B1534452809789N01635827WA0000001835
B1534462809787N01635826WA0000001837
B1534472809785N01635824WA0000001839
B1534482809782N01635823WA0000001842
B1534492809780N01635824WA0000001843
B1534502809778N01635828WA0000001843
B1534512809779N01635834WA0000001843
B1534522809781N01635840WA0000001843
B1534532809786N01635845WA0000001843
B1534542809792N01635848WA0000001846
B1534552809798N01635849WA0000001849
B1534562809805N01635849WA0000001851
B1534572809811N01635848WA0000001852
B1534582809818N01635847WA0000001853
B1534592809825N01635846WA0000001856
B1535002809831N01635844WA0000001858
B1535012809836N01635842WA0000001860
B1535022809842N01635839WA0000001862
B1535032809847N01635835WA0000001863
B1535042809851N01635829WA0000001863
B1535052809854N01635823WA0000001863
B1535062809854N01635817WA0000001864
B1535072809852N01635812WA0000001864
B1535082809848N01635809WA0000001863
B1535092809844N01635809WA0000001864
B1535102809840N01635810WA0000001865
B1535112809838N01635813WA0000001867
B1535122809836N01635816WA0000001869
B1535132809834N01635819WA0000001871
B1535142809834N01635823WA0000001872
B1535152809834N01635827WA0000001873
B1535162809835N01635832WA0000001874
B1535172809836N01635835WA0000001876
B1535182809837N01635839WA0000001877
B1535192809837N01635842WA0000001878
B1535202809837N01635846WA0000001879
B1535212809837N01635849WA0000001879
B1535222809837N01635854WA0000001879
B1535232809838N01635859WA0000001880
B1535242809842N01635863WA0000001881
B1535252809846N01635867WA0000001883
B1535262809852N01635869WA0000001884
B1535272809859N01635868WA0000001884
B1535282809865N01635866WA0000001884
B1535292809871N01635863WA0000001886
B1535302809877N01635859WA0000001888
B1535312809881N01635855WA0000001890
B1535322809886N01635850WA0000001891
B1535332809890N01635846WA0000001891
B1535342809895N01635841WA0000001892
B1535352809900N01635837WA0000001893
B1535362809906N01635832WA0000001894
B1535372809912N01635829WA0000001893
B1535382809918N01635826WA0000001895
B1535392809925N01635823WA0000001895
B1535402809931N01635820WA0000001896
B1535412809937N01635817WA0000001897
B1535422809943N01635814WA0000001895
B1535432809948N01635810WA0000001895
B1535442809954N01635806WA0000001894
B1535452809958N01635800WA0000001893
B1535462809963N01635793WA0000001891
B1535472809966N01635785WA0000001889
B1535482809970N01635779WA0000001887
B1535492809973N01635772WA0000001885
B1535502809976N01635764WA0000001881
B1535512809980N01635756WA0000001876
B1535522809984N01635748WA0000001873
B1535532809986N01635742WA0000001872
B1535542809988N01635736WA0000001873
B1535552809989N01635732WA0000001873
B1535562809991N01635727WA0000001872
B1535572809994N01635721WA0000001871
B1535582809998N01635716WA0000001870
B1535592810003N01635709WA0000001868
B1536002810008N01635703WA0000001867
B1536012810014N01635698WA0000001867
B1536022810018N01635693WA0000001868
B1536032810023N01635689WA0000001869
B1536042810027N01635685WA0000001868
B1536052810031N01635679WA0000001868
B1536062810037N01635674WA0000001865
B1536072810042N01635668WA0000001862
B1536082810047N01635662WA0000001861
B1536092810052N01635656WA0000001861
B1536102810057N01635650WA0000001861
B1536112810062N01635645WA0000001861
B1536122810067N01635640WA0000001860
B1536132810073N01635635WA0000001859
B1536142810078N01635629WA0000001856
B1536152810083N01635622WA0000001854
B1536162810088N01635615WA0000001852
B1536172810092N01635607WA0000001851
B1536182810096N01635600WA0000001850
B1536192810099N01635593WA0000001849
B1536202810102N01635585WA0000001848
B1536212810104N01635578WA0000001847
B1536222810107N01635570WA0000001845
B1536242810117N01635556WA0000001842
B1536252810121N01635551WA0000001842
B1536262810126N01635545WA0000001841
B1536272810131N01635538WA0000001840
B1536282810136N01635531WA0000001839
B1536292810141N01635526WA0000001840
B1536302810147N01635521WA0000001842
B1536312810152N01635518WA0000001844
B1536322810158N01635515WA0000001845
B1536332810163N01635512WA0000001845
B1536342810168N01635507WA0000001846
B1536352810172N01635503WA0000001846
B1536362810177N01635499WA0000001848
B1536372810181N01635497WA0000001850
B1536382810186N01635494WA0000001851
B1536392810193N01635492WA0000001851
B1536402810200N01635490WA0000001851
B1536412810208N01635490WA0000001850
B1536422810215N01635493WA0000001851
B1536432810221N01635498WA0000001851
B1536442810226N01635503WA0000001852
B1536452810229N01635510WA0000001853
B1536462810232N01635516WA0000001853
B1536472810232N01635523WA0000001853
B1536482810232N01635529WA0000001854
B1536492810231N01635534WA0000001855
B1536502810228N01635538WA0000001855
B1536512810225N01635540WA0000001855
B1536522810220N01635540WA0000001855
B1536532810216N01635540WA0000001855
B1536542810213N01635540WA0000001857
B1536552810210N01635541WA0000001859
B1536562810208N01635543WA0000001860
B1536572810206N01635545WA0000001860
B1536582810203N01635546WA0000001860
B1536592810199N01635544WA0000001860
B1537002810196N01635541WA0000001860
B1537012810194N01635537WA0000001859
B1537022810194N01635533WA0000001859
B1537032810195N01635528WA0000001858
B1537042810196N01635523WA0000001859
B1537052810196N01635519WA0000001861
B1537062810196N01635515WA0000001864
B1537072810197N01635512WA0000001866
B1537082810199N01635507WA0000001868
B1537092810202N01635502WA0000001869
B1537102810206N01635497WA0000001868
B1537112810210N01635492WA0000001869
B1537122810214N01635488WA0000001870
B1537132810219N01635488WA0000001872
B1537142810225N01635488WA0000001873
B1537152810231N01635490WA0000001873
B1537162810236N01635493WA0000001875
B1537172810242N01635496WA0000001876
B1537182810247N01635500WA0000001878
B1537192810250N01635507WA0000001879
B1537202810251N01635514WA0000001879
B1537212810251N01635520WA0000001880
B1537222810248N01635525WA0000001881
B1537232810245N01635528WA0000001882
B1537242810240N01635528WA0000001883
B1537252810236N01635528WA0000001883
B1537262810232N01635527WA0000001884
B1537272810228N01635525WA0000001886
B1537282810224N01635523WA0000001887
B1537292810220N01635519WA0000001889
B1537302810218N01635515WA0000001890
B1537312810217N01635511WA0000001892
B1537322810216N01635506WA0000001893
B1537332810216N01635500WA0000001893
B1537342810217N01635495WA0000001893
B1537352810219N01635490WA0000001894
B1537362810223N01635486WA0000001895
B1537372810227N01635482WA0000001894
B1537382810232N01635479WA0000001893
B1537392810239N01635478WA0000001893
B1537402810245N01635478WA0000001892
B1537412810253N01635479WA0000001892
B1537422810259N01635479WA0000001892
B1537432810264N01635479WA0000001893
B1537442810270N01635476WA0000001894
B1537452810276N01635474WA0000001894
B1537462810281N01635470WA0000001895
B1537472810286N01635466WA0000001896
B1537482810291N01635463WA0000001898
B1537492810296N01635461WA0000001900
B1537502810301N01635458WA0000001901
B1537512810307N01635456WA0000001901
B1537522810312N01635452WA0000001900
B1537532810317N01635448WA0000001900
B1537542810321N01635442WA0000001899
B1537552810324N01635436WA0000001899
B1537562810325N01635430WA0000001900
B1537572810327N01635425WA0000001901
B1537582810329N01635420WA0000001902
B1537592810332N01635415WA0000001901
B1538002810334N01635409WA0000001899
B1538012810337N01635403WA0000001897
B1538022810340N01635397WA0000001894
B1538032810343N01635391WA0000001892
B1538042810347N01635385WA0000001891
B1538052810350N01635379WA0000001891
B1538062810353N01635374WA0000001890
B1538072810356N01635368WA0000001889
B1538082810359N01635362WA0000001889
B1538092810362N01635356WA0000001889
B1538102810365N01635350WA0000001888
B1538112810368N01635345WA0000001886
B1538122810371N01635339WA0000001884
B1538132810374N01635333WA0000001882
B1538142810377N01635327WA0000001880
B1538152810379N01635321WA0000001879
B1538162810381N01635314WA0000001878
B1538172810383N01635307WA0000001877
B1538182810385N01635300WA0000001876
B1538192810388N01635293WA0000001874
B1538202810390N01635285WA0000001874
B1538212810393N01635278WA0000001873
B1538222810395N01635271WA0000001872
B1538242810401N01635255WA0000001869
B1538252810403N01635248WA0000001870
B1538262810406N01635240WA0000001869
B1538272810409N01635233WA0000001868
B1538282810413N01635226WA0000001868
B1538292810415N01635219WA0000001869
B1538302810418N01635212WA0000001868
B1538312810421N01635205WA0000001867
B1538322810425N01635198WA0000001866
B1538332810427N01635191WA0000001864
B1538342810430N01635183WA0000001864
B1538352810431N01635176WA0000001863
B1538362810433N01635168WA0000001861
B1538372810434N01635160WA0000001860
B1538382810436N01635153WA0000001859
B1538392810438N01635145WA0000001858
B1538402810441N01635137WA0000001856
B1538412810443N01635130WA0000001855
B1538422810445N01635122WA0000001854
B1538432810447N01635115WA0000001854
B1538442810449N01635108WA0000001851
B1538452810450N01635100WA0000001850
B1538462810452N01635092WA0000001848
B1538472810455N01635083WA0000001847
B1538482810458N01635075WA0000001846
B1538492810463N01635068WA0000001847
B1538502810467N01635061WA0000001848
B1538512810472N01635055WA0000001847
B1538522810477N01635049WA0000001847
B1538532810481N01635042WA0000001846
B1538542810484N01635034WA0000001844
B1538552810487N01635026WA0000001842
B1538562810489N01635019WA0000001842
B1538572810492N01635012WA0000001843
B1538582810495N01635007WA0000001844
B1538592810498N01635001WA0000001844
B1539002810501N01634995WA0000001843
B1539012810504N01634988WA0000001842
B1539022810508N01634981WA0000001840
B1539032810511N01634974WA0000001841
B1539042810515N01634968WA0000001841
B1539052810519N01634962WA0000001842
B1539062810522N01634956WA0000001843
B1539072810525N01634951WA0000001843
B1539082810528N01634944WA0000001842
B1539092810531N01634937WA0000001840
B1539102810535N01634930WA0000001839
B1539112810538N01634922WA0000001839
B1539122810542N01634916WA0000001838
B1539132810546N01634910WA0000001838
B1539142810550N01634905WA0000001839
B1539152810554N01634899WA0000001837
B1539162810558N01634893WA0000001835
B1539172810563N01634888WA0000001833
B1539182810568N01634882WA0000001832
B1539192810573N01634875WA0000001830
B1539202810577N01634868WA0000001827
B1539212810581N01634860WA0000001825
B1539222810585N01634853WA0000001824
B1539232810589N01634846WA0000001823
B1539242810593N01634840WA0000001822
B1539252810597N01634834WA0000001821
B1539262810601N01634827WA0000001819
B1539272810605N01634820WA0000001816
B1539282810610N01634812WA0000001812
B1539292810615N01634805WA0000001811
B1539302810621N01634798WA0000001810
B1539312810626N01634792WA0000001811
B1539322810630N01634786WA0000001811
B1539332810635N01634781WA0000001810
B1539342810639N01634774WA0000001808
B1539352810645N01634767WA0000001806
B1539362810650N01634760WA0000001804
B1539372810655N01634752WA0000001803
B1539382810660N01634745WA0000001803
B1539392810663N01634739WA0000001802
B1539402810667N01634732WA0000001802
B1539412810671N01634726WA0000001801
B1539422810675N01634720WA0000001800
B1539432810681N01634714WA0000001800
B1539442810686N01634707WA0000001799
B1539452810691N01634700WA0000001798
B1539462810696N01634694WA0000001797
B1539472810701N01634688WA0000001796
B1539482810705N01634681WA0000001795
B1539492810711N01634675WA0000001794
B1539502810716N01634668WA0000001793
B1539512810721N01634662WA0000001793
B1539522810726N01634655WA0000001792
B1539532810731N01634648WA0000001790
B1539542810736N01634640WA0000001789
B1539552810740N01634634WA0000001790
B1539562810745N01634627WA0000001790
B1539572810748N01634621WA0000001791
B1539582810753N01634615WA0000001791
B1539592810757N01634609WA0000001790
B1540002810763N01634603WA0000001789
B1540012810768N01634597WA0000001788
B1540022810774N01634591WA0000001788
B1540032810779N01634585WA0000001789
B1540042810785N01634580WA0000001788
B1540052810791N01634575WA0000001789
B1540062810797N01634570WA0000001789
B1540072810803N01634564WA0000001789
B1540082810810N01634559WA0000001788
B1540092810816N01634554WA0000001789
B1540102810821N01634549WA0000001790
B1540112810827N01634544WA0000001791
B1540122810831N01634540WA0000001791
B1540132810836N01634535WA0000001790
B1540142810841N01634528WA0000001789
B1540152810846N01634522WA0000001786
B1540162810851N01634515WA0000001785
B1540172810856N01634510WA0000001785
B1540182810861N01634506WA0000001786
B1540192810866N01634502WA0000001787
B1540202810871N01634498WA0000001787
B1540212810878N01634494WA0000001786
B1540222810884N01634490WA0000001785
B1540232810891N01634487WA0000001784
B1540242810898N01634484WA0000001784
B1540252810905N01634481WA0000001785
B1540262810912N01634478WA0000001786
B1540272810918N01634474WA0000001786
B1540282810924N01634470WA0000001786
B1540292810931N01634466WA0000001784
B1540302810937N01634461WA0000001785
B1540312810943N01634457WA0000001785
B1540322810950N01634453WA0000001785
B1540332810956N01634449WA0000001785
B1540342810962N01634445WA0000001786
B1540352810969N01634443WA0000001786
B1540362810976N01634442WA0000001786
B1540372810983N01634440WA0000001784
B1540382810990N01634437WA0000001784
B1540392810996N01634432WA0000001782
B1540402811002N01634426WA0000001780
B1540412811007N01634421WA0000001780
B1540422811011N01634416WA0000001781
B1540432811015N01634412WA0000001782
B1540442811019N01634408WA0000001784
B1540452811023N01634405WA0000001785
B1540462811027N01634403WA0000001785
B1540472811032N01634400WA0000001784
B1540482811038N01634396WA0000001783
B1540492811044N01634393WA0000001782
B1540502811050N01634390WA0000001783
B1540512811055N01634388WA0000001786
B1540522811059N01634386WA0000001789
B1540532811062N01634384WA0000001793
B1540542811066N01634381WA0000001794
B1540552811070N01634379WA0000001794
B1540562811077N01634377WA0000001794
B1540572811084N01634377WA0000001795
B1540582811090N01634380WA0000001796
B1540592811096N01634384WA0000001798
B1541002811099N01634390WA0000001799
B1541012811100N01634396WA0000001800
B1541022811098N01634401WA0000001801
B1541032811095N01634404WA0000001802
B1541042811091N01634406WA0000001803
B1541052811087N01634407WA0000001806
B1541062811084N01634407WA0000001808
B1541072811081N01634407WA0000001811
B1541082811079N01634408WA0000001812
B1541092811076N01634409WA0000001812
B1541102811072N01634410WA0000001812
B1541112811069N01634409WA0000001812
B1541122811067N01634407WA0000001814
B1541132811066N01634404WA0000001815
B1541142811066N01634400WA0000001816
B1541152811064N01634397WA0000001816
B1541162811063N01634394WA0000001816
B1541172811061N01634391WA0000001815
B1541182811060N01634387WA0000001814
B1541192811059N01634383WA0000001814
B1541202811059N01634378WA0000001814
B1541212811060N01634375WA0000001815
B1541222811060N01634372WA0000001816
B1541232811059N01634369WA0000001817
B1541242811057N01634366WA0000001817
B1541252811056N01634361WA0000001817
B1541262811056N01634357WA0000001818
B1541272811055N01634352WA0000001819
B1541282811056N01634348WA0000001821
B1541292811055N01634344WA0000001823
B1541302811054N01634339WA0000001825
B1541312811053N01634335WA0000001826
B1541322811051N01634331WA0000001826
B1541332811050N01634327WA0000001827
B1541342811049N01634324WA0000001827
B1541352811047N01634320WA0000001827
B1541362811046N01634315WA0000001825
B1541372811046N01634309WA0000001825
B1541382811046N01634303WA0000001825
B1541392811047N01634297WA0000001825
B1541402811050N01634292WA0000001825
B1541412811053N01634287WA0000001826
B1541422811058N01634282WA0000001827
B1541432811063N01634278WA0000001826
B1541442811068N01634274WA0000001826
B1541452811073N01634270WA0000001824
B1541462811079N01634265WA0000001824
B1541472811084N01634260WA0000001824
B1541482811090N01634257WA0000001825
B1541492811096N01634254WA0000001826
B1541502811102N01634252WA0000001826
B1541512811108N01634249WA0000001826
B1541522811114N01634245WA0000001826
B1541532811121N01634241WA0000001825
B1541542811128N01634239WA0000001825
B1541552811134N01634238WA0000001824
B1541562811140N01634237WA0000001825
B1541572811145N01634236WA0000001826
B1541582811150N01634234WA0000001826
B1541592811156N01634230WA0000001825
B1542002811161N01634226WA0000001823
B1542012811166N01634221WA0000001822
B1542022811171N01634216WA0000001821
B1542032811176N01634213WA0000001822
B1542042811181N01634209WA0000001823
B1542052811186N01634206WA0000001822
B1542062811191N01634203WA0000001821
B1542072811197N01634198WA0000001820
B1542082811202N01634193WA0000001818
B1542092811207N01634188WA0000001816
B1542102811212N01634184WA0000001815
B1542112811216N01634179WA0000001816
B1542122811221N01634176WA0000001816
B1542132811226N01634172WA0000001815
B1542142811231N01634169WA0000001814
B1542152811237N01634164WA0000001814
B1542162811242N01634160WA0000001812
B1542172811247N01634156WA0000001811
B1542182811251N01634151WA0000001810
B1542192811255N01634146WA0000001809
B1542202811258N01634141WA0000001808
B1542212811260N01634135WA0000001806
B1542222811262N01634130WA0000001804
B1542232811265N01634123WA0000001803
B1542242811267N01634116WA0000001801
B1542252811269N01634110WA0000001800
B1542262811272N01634104WA0000001799
B1542272811274N01634098WA0000001797
B1542282811277N01634092WA0000001795
B1542292811279N01634086WA0000001793
B1542302811281N01634079WA0000001791
B1542312811283N01634073WA0000001789
B1542322811283N01634067WA0000001787
B1542332811284N01634059WA0000001783
B1542342811286N01634052WA0000001780
B1542352811288N01634044WA0000001778
B1542362811290N01634038WA0000001777
B1542372811292N01634031WA0000001775
B1542382811296N01634024WA0000001774
B1542392811300N01634018WA0000001773
B1542402811305N01634011WA0000001772
B1542412811310N01634005WA0000001771
B1542422811315N01634000WA0000001771
B1542432811318N01633994WA0000001769
B1542442811321N01633987WA0000001768
B1542452811323N01633979WA0000001766
B1542462811325N01633972WA0000001766
B1542472811327N01633964WA0000001765
B1542482811329N01633957WA0000001765
B1542492811331N01633950WA0000001764
B1542502811333N01633943WA0000001763
B1542512811336N01633937WA0000001762
B1542522811339N01633930WA0000001759
B1542532811343N01633922WA0000001756
B1542542811347N01633915WA0000001754
B1542552811350N01633907WA0000001752
B1542562811353N01633899WA0000001751
B1542572811356N01633891WA0000001749
B1542582811359N01633884WA0000001748
B1542592811362N01633878WA0000001746
B1543002811365N01633870WA0000001744
B1543012811368N01633862WA0000001743
B1543022811371N01633855WA0000001741
B1543032811374N01633847WA0000001740
B1543042811376N01633839WA0000001739
B1543052811378N01633832WA0000001739
B1543062811381N01633824WA0000001738
B1543072811382N01633818WA0000001738
B1543082811384N01633811WA0000001738
B1543092811386N01633804WA0000001738
B1543102811387N01633797WA0000001736
B1543112811390N01633789WA0000001735
B1543122811392N01633782WA0000001733
B1543132811394N01633774WA0000001732
B1543142811395N01633766WA0000001731
B1543152811397N01633758WA0000001730
B1543162811398N01633751WA0000001730
B1543172811399N01633744WA0000001730
B1543182811400N01633737WA0000001731
B1543192811400N01633730WA0000001731
B1543202811400N01633723WA0000001732
B1543212811400N01633717WA0000001735
B1543222811400N01633710WA0000001736
B1543232811401N01633704WA0000001737
B1543242811403N01633696WA0000001738
B1543252811404N01633688WA0000001738
B1543262811407N01633681WA0000001738
B1543272811410N01633675WA0000001741
B1543282811412N01633669WA0000001742
B1543292811413N01633662WA0000001743
B1543302811414N01633655WA0000001744
B1543312811416N01633648WA0000001744
B1543322811418N01633641WA0000001743
B1543332811421N01633633WA0000001744
B1543342811425N01633626WA0000001745
B1543352811428N01633620WA0000001746
B1543362811430N01633613WA0000001747
B1543372811432N01633606WA0000001748
B1543382811433N01633598WA0000001748
B1543392811433N01633591WA0000001749
B1543402811434N01633584WA0000001751
B1543412811435N01633578WA0000001752
B1543422811436N01633572WA0000001751
B1543432811437N01633567WA0000001752
B1543442811437N01633561WA0000001752
B1543452811438N01633555WA0000001753
B1543462811440N01633549WA0000001753
B1543472811443N01633542WA0000001753
B1543482811448N01633537WA0000001753
B1543492811455N01633532WA0000001754
B1543502811462N01633529WA0000001755
B1543512811471N01633529WA0000001755
B1543522811478N01633529WA0000001756
B1543532811485N01633531WA0000001757
B1543542811492N01633534WA0000001758
B1543552811498N01633537WA0000001759
B1543562811503N01633541WA0000001760
B1543572811507N01633546WA0000001762
B1543582811510N01633552WA0000001763
B1543592811511N01633558WA0000001765
B1544002811511N01633564WA0000001766
B1544012811511N01633569WA0000001767
B1544022811510N01633573WA0000001768
B1544032811509N01633577WA0000001769
B1544042811507N01633581WA0000001770
B1544052811503N01633583WA0000001769
B1544062811499N01633584WA0000001769
B1544072811495N01633582WA0000001770
B1544082811492N01633579WA0000001771
B1544092811490N01633575WA0000001771
B1544102811489N01633569WA0000001771
B1544112811488N01633563WA0000001770
B1544122811488N01633556WA0000001771
B1544132811488N01633549WA0000001771
B1544142811487N01633543WA0000001773
B1544152811486N01633538WA0000001774
B1544162811484N01633532WA0000001774
B1544172811483N01633526WA0000001774
B1544182811483N01633519WA0000001775
B1544192811483N01633513WA0000001777
B1544202811486N01633507WA0000001778
B1544212811489N01633501WA0000001779
B1544222811493N01633495WA0000001778
B1544232811498N01633490WA0000001778
B1544242811505N01633485WA0000001778
B1544252811511N01633481WA0000001779
B1544262811518N01633478WA0000001779
B1544272811525N01633475WA0000001779
B1544282811531N01633473WA0000001780
B1544292811538N01633472WA0000001779
B1544302811545N01633470WA0000001778
B1544312811553N01633467WA0000001777
B1544322811560N01633463WA0000001776
B1544332811567N01633458WA0000001776
B1544342811571N01633453WA0000001778
B1544352811574N01633447WA0000001779
B1544362811576N01633441WA0000001780
B1544372811578N01633435WA0000001781
B1544382811581N01633430WA0000001781
B1544392811586N01633425WA0000001780
B1544402811593N01633421WA0000001780
B1544412811600N01633417WA0000001779
B1544422811606N01633414WA0000001779
B1544432811613N01633411WA0000001780
B1544442811618N01633407WA0000001781
B1544452811624N01633404WA0000001782
B1544462811630N01633401WA0000001782
B1544472811636N01633398WA0000001781
B1544482811643N01633395WA0000001780
B1544492811649N01633393WA0000001780
B1544502811655N01633389WA0000001779
B1544512811661N01633385WA0000001778
B1544522811667N01633380WA0000001778
B1544532811672N01633375WA0000001777
B1544542811677N01633369WA0000001777
B1544552811682N01633364WA0000001777
B1544562811687N01633360WA0000001778
B1544572811692N01633357WA0000001778
B1544582811697N01633353WA0000001777
B1544592811703N01633349WA0000001775
B1545002811708N01633345WA0000001775
B1545012811713N01633341WA0000001776
B1545022811718N01633338WA0000001776
B1545032811723N01633335WA0000001776
B1545042811729N01633331WA0000001775
B1545052811734N01633326WA0000001774
B1545062811740N01633321WA0000001773
B1545072811744N01633316WA0000001773
B1545082811748N01633311WA0000001773
B1545092811751N01633306WA0000001773
B1545102811755N01633301WA0000001772
B1545112811760N01633295WA0000001772
B1545122811764N01633289WA0000001772
B1545132811768N01633282WA0000001770
B1545142811773N01633276WA0000001769
B1545152811778N01633270WA0000001768
B1545162811783N01633264WA0000001768
B1545172811788N01633259WA0000001767
B1545182811793N01633252WA0000001765
B1545192811798N01633246WA0000001764
B1545202811803N01633240WA0000001763
B1545212811807N01633234WA0000001762
B1545222811810N01633227WA0000001762
B1545232811813N01633221WA0000001763
B1545242811816N01633215WA0000001762
B1545252811820N01633208WA0000001762
B1545262811824N01633202WA0000001763
B1545272811827N01633196WA0000001763
B1545282811831N01633189WA0000001763
B1545292811835N01633183WA0000001763
B1545302811838N01633177WA0000001764
B1545312811843N01633170WA0000001763
B1545322811846N01633163WA0000001762
B1545332811850N01633156WA0000001762
B1545342811853N01633148WA0000001761
B1545352811857N01633141WA0000001759
B1545362811861N01633134WA0000001759
B1545372811866N01633128WA0000001759
B1545382811870N01633123WA0000001760
B1545402811878N01633112WA0000001760
B1545412811881N01633107WA0000001760
B1545422811884N01633101WA0000001760
B1545432811888N01633097WA0000001760
B1545442811892N01633092WA0000001759
B1545452811897N01633087WA0000001758
B1545462811901N01633082WA0000001756
B1545472811903N01633076WA0000001755
B1545482811903N01633069WA0000001755
B1545492811903N01633062WA0000001754
B1545502811904N01633056WA0000001755
B1545512811904N01633051WA0000001755
B1545522811906N01633045WA0000001754
B1545532811908N01633038WA0000001753
B1545542811910N01633032WA0000001751
B1545552811913N01633024WA0000001748
B1545562811914N01633017WA0000001747
B1545572811916N01633010WA0000001746
B1545582811919N01633002WA0000001744
B1545592811922N01632995WA0000001742
B1546002811925N01632988WA0000001740
B1546012811928N01632980WA0000001738
B1546022811931N01632973WA0000001737
B1546032811935N01632966WA0000001736
B1546042811939N01632959WA0000001734
B1546052811942N01632952WA0000001732
B1546062811946N01632944WA0000001731
B1546072811950N01632937WA0000001730
B1546082811955N01632929WA0000001727
B1546092811959N01632921WA0000001726
B1546102811962N01632913WA0000001725
B1546112811965N01632905WA0000001723
B1546122811969N01632898WA0000001721
B1546132811973N01632891WA0000001721
B1546142811976N01632884WA0000001719
B1546152811980N01632876WA0000001716
B1546162811984N01632870WA0000001714
B1546172811988N01632862WA0000001712
B1546182811992N01632855WA0000001710
B1546192811996N01632848WA0000001708
B1546202812000N01632843WA0000001708
B1546212812005N01632838WA0000001707
B1546222812010N01632833WA0000001706
B1546232812016N01632829WA0000001705
B1546242812023N01632825WA0000001702
B1546252812029N01632820WA0000001700
B1546262812036N01632816WA0000001699
B1546272812041N01632811WA0000001698
B1546282812047N01632806WA0000001696
B1546292812052N01632802WA0000001696
B1546302812057N01632797WA0000001694
B1546312812062N01632792WA0000001692
B1546322812067N01632786WA0000001691
B1546332812072N01632779WA0000001688
B1546342812076N01632773WA0000001686
B1546352812081N01632765WA0000001683
B1546362812085N01632758WA0000001682
B1546372812089N01632752WA0000001683
B1546382812093N01632745WA0000001683
B1546392812097N01632739WA0000001683
B1546402812101N01632734WA0000001682
B1546412812105N01632728WA0000001681
B1546422812109N01632721WA0000001679
B1546432812114N01632714WA0000001677
B1546442812118N01632708WA0000001677
B1546452812121N01632701WA0000001675
B1546462812125N01632694WA0000001674
B1546472812129N01632688WA0000001673
B1546482812134N01632682WA0000001671
B1546492812139N01632676WA0000001671
B1546502812143N01632670WA0000001671
B1546512812148N01632665WA0000001671
B1546522812153N01632661WA0000001671
B1546532812159N01632657WA0000001672
B1546542812165N01632653WA0000001671
B1546552812171N01632648WA0000001671
B1546562812175N01632643WA0000001671
B1546572812179N01632637WA0000001671
B1546582812182N01632633WA0000001672
B1546592812187N01632628WA0000001673
B1547002812192N01632623WA0000001674
B1547012812198N01632619WA0000001673
B1547022812203N01632614WA0000001674
B1547032812206N01632609WA0000001675
B1547042812208N01632603WA0000001674
B1547052812209N01632598WA0000001675
B1547062812209N01632593WA0000001674
B1547072812209N01632587WA0000001674
B1547082812210N01632581WA0000001674
B1547092812210N01632575WA0000001674
B1547102812211N01632568WA0000001674
B1547112812212N01632562WA0000001674
B1547122812213N01632555WA0000001674
B1547132812214N01632549WA0000001675
B1547142812215N01632543WA0000001675
B1547152812216N01632537WA0000001675
B1547162812216N01632530WA0000001675
B1547172812216N01632524WA0000001674
B1547182812217N01632517WA0000001673
B1547192812219N01632510WA0000001671
B1547202812220N01632502WA0000001670
B1547212812221N01632494WA0000001669
B1547222812222N01632487WA0000001666
B1547232812223N01632480WA0000001666
B1547242812225N01632473WA0000001664
B1547252812227N01632466WA0000001662
B1547262812230N01632459WA0000001660
B1547272812232N01632451WA0000001656
B1547282812234N01632443WA0000001656
B1547292812236N01632436WA0000001654
B1547302812238N01632428WA0000001652
B1547312812240N01632420WA0000001651
B1547322812242N01632413WA0000001649
B1547332812245N01632406WA0000001649
B1547342812248N01632399WA0000001647
B1547352812252N01632392WA0000001645
B1547362812255N01632385WA0000001644
B1547372812258N01632378WA0000001643
B1547382812260N01632371WA0000001640
B1547392812263N01632365WA0000001638
B1547402812266N01632358WA0000001635
B1547412812270N01632351WA0000001633
B1547422812273N01632345WA0000001630
B1547432812276N01632338WA0000001629
B1547442812278N01632331WA0000001626
B1547452812280N01632325WA0000001623
B1547462812283N01632318WA0000001620
B1547472812285N01632311WA0000001618
B1547482812286N01632305WA0000001616
B1547492812288N01632299WA0000001613
B1547502812290N01632292WA0000001610
B1547512812293N01632284WA0000001607
B1547522812296N01632276WA0000001603
B1547532812301N01632268WA0000001598
B1547542812306N01632262WA0000001598
B1547552812310N01632256WA0000001596
B1547562812314N01632249WA0000001594
B1547572812318N01632241WA0000001594
B1547582812322N01632233WA0000001592
B1547592812325N01632226WA0000001591
B1548002812329N01632219WA0000001588
B1548012812332N01632212WA0000001587
B1548022812335N01632205WA0000001585
B1548032812339N01632199WA0000001584
B1548042812342N01632192WA0000001581
B1548052812346N01632185WA0000001579
B1548062812348N01632178WA0000001577
B1548072812351N01632172WA0000001576
B1548082812354N01632165WA0000001575
B1548092812357N01632159WA0000001574
B1548102812360N01632152WA0000001572
B1548112812364N01632146WA0000001571
B1548122812367N01632139WA0000001569
B1548132812371N01632133WA0000001568
B1548142812374N01632127WA0000001567
B1548152812377N01632121WA0000001565
B1548162812380N01632115WA0000001563
B1548172812383N01632109WA0000001561
B1548182812386N01632101WA0000001560
B1548192812387N01632095WA0000001558
B1548202812389N01632088WA0000001556
B1548212812390N01632081WA0000001555
B1548222812391N01632075WA0000001555
B1548232812393N01632069WA0000001553
B1548242812394N01632062WA0000001552
B1548252812396N01632055WA0000001550
B1548262812398N01632048WA0000001547
B1548272812399N01632041WA0000001545
B1548282812401N01632034WA0000001543
B1548292812402N01632027WA0000001542
B1548302812404N01632021WA0000001541
B1548312812406N01632014WA0000001539
B1548322812408N01632007WA0000001537
B1548332812410N01632000WA0000001536
B1548342812413N01631992WA0000001535
B1548352812415N01631985WA0000001533
B1548362812418N01631978WA0000001533
B1548372812420N01631971WA0000001532
B1548382812422N01631964WA0000001531
B1548392812425N01631957WA0000001530
B1548402812428N01631950WA0000001530
B1548412812430N01631942WA0000001528
B1548422812432N01631935WA0000001528
B1548432812435N01631928WA0000001528
B1548442812440N01631922WA0000001527
B1548452812444N01631915WA0000001526
B1548462812450N01631909WA0000001525
B1548472812454N01631901WA0000001523
B1548482812458N01631895WA0000001524
B1548492812460N01631887WA0000001523
B1548502812463N01631881WA0000001522
B1548512812465N01631874WA0000001521
B1548522812467N01631868WA0000001520
B1548532812470N01631861WA0000001519
B1548542812473N01631853WA0000001518
B1548552812477N01631846WA0000001517
B1548562812480N01631838WA0000001517
B1548572812483N01631832WA0000001517
B1548582812485N01631825WA0000001516
B1548592812488N01631818WA0000001515
B1549002812491N01631810WA0000001513
B1549012812494N01631802WA0000001511
B1549022812497N01631795WA0000001510
B1549032812500N01631788WA0000001510
B1549042812502N01631780WA0000001510
B1549052812505N01631773WA0000001509
B1549062812507N01631766WA0000001508
B1549072812510N01631759WA0000001507
B1549082812512N01631751WA0000001507
B1549092812515N01631744WA0000001506
B1549102812517N01631736WA0000001505
B1549112812519N01631728WA0000001505
B1549122812523N01631721WA0000001504
B1549132812526N01631714WA0000001503
B1549142812530N01631708WA0000001503
B1549152812533N01631701WA0000001502
B1549162812537N01631694WA0000001501
B1549172812541N01631687WA0000001499
B1549182812544N01631679WA0000001497
B1549192812547N01631671WA0000001495
B1549202812551N01631665WA0000001494
B1549212812555N01631658WA0000001494
B1549222812559N01631651WA0000001494
B1549232812563N01631645WA0000001494
B1549242812567N01631639WA0000001493
B1549252812571N01631632WA0000001492
B1549262812576N01631626WA0000001491
B1549272812580N01631619WA0000001490
B1549282812585N01631613WA0000001490
B1549292812589N01631607WA0000001489
B1549302812594N01631601WA0000001489
B1549312812599N01631595WA0000001488
B1549322812604N01631589WA0000001487
B1549332812609N01631582WA0000001485
B1549342812614N01631575WA0000001483
B1549352812618N01631569WA0000001483
B1549362812621N01631563WA0000001483
B1549372812625N01631557WA0000001482
B1549382812629N01631551WA0000001481
B1549392812634N01631545WA0000001479
B1549402812640N01631539WA0000001478
B1549412812646N01631533WA0000001478
B1549422812651N01631527WA0000001478
B1549432812656N01631521WA0000001479
B1549442812660N01631515WA0000001480
B1549452812665N01631508WA0000001480
B1549462812670N01631502WA0000001480
B1549472812675N01631495WA0000001482
B1549482812679N01631488WA0000001484
B1549492812682N01631482WA0000001487
B1549502812684N01631477WA0000001489
B1549512812687N01631473WA0000001492
B1549522812689N01631469WA0000001494
B1549532812691N01631465WA0000001495
B1549542812694N01631460WA0000001495
B1549552812698N01631455WA0000001495
B1549562812704N01631451WA0000001495
B1549572812710N01631450WA0000001495
B1549582812717N01631452WA0000001495
B1549592812723N01631455WA0000001495
B1550002812729N01631460WA0000001495
B1550012812733N01631465WA0000001495
B1550022812736N01631471WA0000001495
B1550032812739N01631477WA0000001495
B1550042812743N01631483WA0000001494
B1550052812748N01631488WA0000001495
B1550062812751N01631493WA0000001496
B1550072812756N01631499WA0000001496
B1550082812760N01631504WA0000001498
B1550092812764N01631507WA0000001498
B1550102812769N01631510WA0000001499
B1550112812775N01631514WA0000001499
B1550122812780N01631518WA0000001499
B1550132812786N01631523WA0000001499
B1550142812789N01631529WA0000001499
B1550152812791N01631535WA0000001498
B1550162812790N01631541WA0000001497
B1550172812788N01631546WA0000001495
B1550182812783N01631549WA0000001494
B1550192812778N01631548WA0000001494
B1550202812775N01631544WA0000001496
B1550212812773N01631537WA0000001496
B1550222812774N01631530WA0000001495
B1550232812775N01631524WA0000001497
B1550242812775N01631520WA0000001500
B1550252812774N01631517WA0000001503
B1550262812774N01631514WA0000001504
B1550272812776N01631510WA0000001503
B1550282812778N01631505WA0000001502
B1550292812782N01631499WA0000001500
B1550302812785N01631492WA0000001499
B1550312812788N01631485WA0000001501
B1550322812790N01631479WA0000001502
B1550332812792N01631474WA0000001504
B1550342812794N01631468WA0000001505
B1550352812796N01631462WA0000001505
B1550362812798N01631456WA0000001504
B1550372812801N01631448WA0000001502
B1550382812804N01631441WA0000001502
B1550392812805N01631435WA0000001501
B1550402812807N01631429WA0000001499
B1550412812807N01631422WA0000001498
B1550422812808N01631415WA0000001496
B1550432812810N01631408WA0000001496
B1550442812812N01631401WA0000001495
B1550452812814N01631394WA0000001494
B1550462812817N01631388WA0000001494
B1550472812820N01631382WA0000001494
B1550482812823N01631375WA0000001492
B1550492812827N01631368WA0000001490
B1550502812831N01631362WA0000001489
B1550512812835N01631355WA0000001488
B1550522812838N01631349WA0000001488
B1550532812839N01631343WA0000001489
B1550542812840N01631338WA0000001490
B1550552812840N01631333WA0000001491
B1550562812841N01631328WA0000001490
B1550572812844N01631322WA0000001490
B1550582812846N01631316WA0000001488
B1550592812849N01631310WA0000001488
B1551002812852N01631304WA0000001488
B1551012812854N01631298WA0000001489
B1551022812856N01631293WA0000001489
B1551032812858N01631288WA0000001489
B1551042812860N01631282WA0000001488
B1551052812861N01631275WA0000001487
B1551062812862N01631268WA0000001486
B1551072812862N01631262WA0000001486
B1551082812863N01631256WA0000001487
B1551092812864N01631251WA0000001487
B1551102812865N01631245WA0000001487
B1551112812866N01631239WA0000001486
B1551122812868N01631233WA0000001485
B1551132812870N01631225WA0000001484
B1551142812873N01631219WA0000001484
B1551152812876N01631213WA0000001485
B1551162812880N01631209WA0000001486
B1551172812883N01631204WA0000001487
B1551182812886N01631199WA0000001486
B1551192812889N01631192WA0000001486
B1551202812892N01631185WA0000001486
B1551212812894N01631179WA0000001486
B1551222812898N01631173WA0000001487
B1551232812901N01631167WA0000001488
B1551242812904N01631162WA0000001489
B1551252812907N01631157WA0000001490
B1551262812911N01631152WA0000001490
B1551272812915N01631146WA0000001490
B1551282812920N01631140WA0000001490
B1551292812925N01631134WA0000001491
B1551302812929N01631129WA0000001491
B1551312812933N01631124WA0000001492
B1551322812937N01631119WA0000001492
B1551332812940N01631113WA0000001492
B1551342812942N01631107WA0000001493
B1551352812942N01631101WA0000001494
B1551362812943N01631095WA0000001496
B1551372812944N01631090WA0000001498
B1551382812945N01631085WA0000001501
B1551392812947N01631080WA0000001502
B1551402812949N01631075WA0000001504
B1551412812950N01631071WA0000001504
B1551422812949N01631068WA0000001504
B1551432812947N01631068WA0000001502
B1551442812943N01631070WA0000001502
B1551452812941N01631074WA0000001502
B1551462812939N01631078WA0000001501
B1551472812938N01631083WA0000001502
B1551482812936N01631087WA0000001503
B1551492812935N01631090WA0000001504
B1551502812933N01631092WA0000001505
B1551512812932N01631095WA0000001506
B1551522812931N01631097WA0000001507
B1551532812929N01631101WA0000001507
B1551542812927N01631104WA0000001508
B1551552812925N01631107WA0000001509
B1551562812924N01631109WA0000001510
B1551572812923N01631112WA0000001512
B1551582812922N01631116WA0000001512
B1551592812922N01631120WA0000001513
B1552002812923N01631124WA0000001514
B1552012812924N01631130WA0000001515
B1552022812927N01631135WA0000001515
B1552032812931N01631139WA0000001516
B1552042812936N01631143WA0000001517
B1552052812940N01631147WA0000001518
B1552062812943N01631152WA0000001519
B1552072812944N01631156WA0000001520
B1552082812945N01631161WA0000001520
B1552092812945N01631165WA0000001522
B1552102812946N01631168WA0000001524
B1552112812948N01631172WA0000001525
B1552122812951N01631177WA0000001524
B1552132812955N01631181WA0000001522
B1552142812958N01631186WA0000001521
B1552152812959N01631191WA0000001521
B1552162812959N01631196WA0000001519
B1552172812957N01631200WA0000001518
B1552182812953N01631201WA0000001516
B1552192812949N01631200WA0000001515
B1552202812945N01631196WA0000001515
B1552212812943N01631192WA0000001516
B1552222812942N01631188WA0000001517
B1552232812941N01631184WA0000001517
B1552242812940N01631179WA0000001516
B1552252812939N01631174WA0000001516
B1552262812938N01631167WA0000001513
B1552272812936N01631161WA0000001514
B1552282812935N01631155WA0000001515
B1552292812934N01631150WA0000001516
B1552302812933N01631145WA0000001518
B1552312812932N01631141WA0000001518
B1552322812930N01631135WA0000001519
B1552332812930N01631130WA0000001520
B1552342812929N01631125WA0000001521
B1552352812928N01631120WA0000001523
B1552362812926N01631117WA0000001524
B1552372812924N01631115WA0000001525
B1552382812922N01631116WA0000001525
B1552392812919N01631118WA0000001524
B1552402812916N01631120WA0000001524
B1552412812913N01631123WA0000001524
B1552422812911N01631127WA0000001525
B1552432812911N01631131WA0000001526
B1552442812913N01631136WA0000001526
B1552452812917N01631142WA0000001525
B1552462812923N01631147WA0000001524
B1552472812931N01631149WA0000001524
B1552482812939N01631148WA0000001524
B1552492812945N01631145WA0000001523
B1552502812951N01631139WA0000001523
B1552512812955N01631133WA0000001523
B1552522812954N01631127WA0000001523
B1552532812953N01631122WA0000001525
B1552542812950N01631119WA0000001525
B1552552812948N01631116WA0000001526
B1552562812947N01631112WA0000001527
B1552572812947N01631106WA0000001527
B1552582812947N01631101WA0000001528
B1552592812947N01631097WA0000001528
B1553002812946N01631092WA0000001526
B1553012812945N01631088WA0000001526
B1553022812946N01631082WA0000001526
B1553032812948N01631076WA0000001524
B1553042812951N01631069WA0000001523
B1553052812953N01631062WA0000001523
B1553062812956N01631056WA0000001522
B1553072812958N01631049WA0000001522
B1553082812959N01631043WA0000001520
B1553092812960N01631037WA0000001522
B1553102812960N01631032WA0000001522
B1553112812961N01631028WA0000001523
B1553122812962N01631023WA0000001523
B1553132812963N01631017WA0000001521
B1553142812964N01631010WA0000001520
B1553152812964N01631002WA0000001518
B1553162812965N01630995WA0000001518
B1553172812968N01630988WA0000001519
B1553182812970N01630982WA0000001520
B1553192812973N01630976WA0000001521
B1553202812975N01630969WA0000001519
B1553212812978N01630962WA0000001518
B1553222812980N01630955WA0000001516
B1553232812984N01630949WA0000001515
B1553242812988N01630942WA0000001515
B1553252812992N01630936WA0000001515
B1553272813000N01630923WA0000001514
B1553282813004N01630917WA0000001514
B1553292813008N01630911WA0000001514
B1553302813013N01630904WA0000001512
B1553312813017N01630898WA0000001511
B1553322813022N01630892WA0000001511
B1553332813026N01630886WA0000001511
B1553342813030N01630880WA0000001512
B1553352813035N01630873WA0000001512
B1553362813039N01630867WA0000001512
B1553372813043N01630860WA0000001512
B1553382813046N01630853WA0000001511
B1553392813049N01630846WA0000001512
B1553402813051N01630839WA0000001512
B1553412813053N01630832WA0000001512
B1553422813054N01630825WA0000001512
B1553432813057N01630817WA0000001511
B1553442813059N01630809WA0000001511
B1553452813062N01630802WA0000001513
B1553462813065N01630796WA0000001516
B1553472813068N01630790WA0000001518
B1553482813071N01630784WA0000001518
B1553492813075N01630777WA0000001519
B1553502813078N01630771WA0000001520
B1553512813083N01630765WA0000001521
B1553522813090N01630761WA0000001522
B1553532813098N01630760WA0000001523
B1553542813107N01630763WA0000001522
B1553552813114N01630768WA0000001521
B1553562813119N01630775WA0000001521
B1553572813121N01630780WA0000001523
B1553582813120N01630785WA0000001526
B1553592813118N01630789WA0000001527
B1554002813117N01630793WA0000001528
B1554012813116N01630797WA0000001529
B1554022813117N01630803WA0000001530
B1554032813120N01630809WA0000001530
B1554042813124N01630814WA0000001529
B1554052813130N01630818WA0000001530
B1554062813137N01630821WA0000001531
B1554072813145N01630821WA0000001531
B1554082813152N01630819WA0000001531
B1554092813158N01630815WA0000001531
B1554102813162N01630810WA0000001532
B1554112813164N01630804WA0000001534
B1554122813164N01630799WA0000001535
B1554132813163N01630794WA0000001536
B1554142813161N01630791WA0000001538
B1554152813160N01630787WA0000001542
B1554162813159N01630784WA0000001545
B1554172813159N01630780WA0000001548
B1554182813159N01630777WA0000001549
B1554192813159N01630774WA0000001552
B1554202813159N01630770WA0000001552
B1554212813158N01630765WA0000001552
B1554222813159N01630759WA0000001552
B1554232813164N01630754WA0000001553
B1554242813172N01630750WA0000001553
B1554252813182N01630750WA0000001551
B1554262813190N01630753WA0000001550
B1554272813197N01630757WA0000001549
B1554282813202N01630763WA0000001549
B1554292813206N01630768WA0000001548
B1554302813210N01630774WA0000001549
B1554312813214N01630780WA0000001550
B1554322813218N01630786WA0000001553
B1554332813220N01630790WA0000001556
B1554342813223N01630793WA0000001560
B1554352813223N01630797WA0000001562
B1554362813223N01630801WA0000001562
B1554372813223N01630805WA0000001564
B1554382813222N01630807WA0000001566
B1554392813221N01630810WA0000001568
B1554402813221N01630814WA0000001569
B1554412813222N01630818WA0000001570
B1554422813224N01630824WA0000001571
B1554432813227N01630830WA0000001571
B1554442813230N01630835WA0000001571
B1554452813232N01630841WA0000001574
B1554462813232N01630845WA0000001574
B1554472813231N01630848WA0000001572
B1554482813227N01630851WA0000001571
B1554492813224N01630852WA0000001571
B1554502813222N01630850WA0000001573
B1554512813221N01630848WA0000001574
B1554522813220N01630845WA0000001573
B1554532813220N01630842WA0000001572
B1554542813220N01630838WA0000001570
B1554552813219N01630835WA0000001569
B1554562813218N01630830WA0000001565
B1554572813217N01630826WA0000001562
B1554582813215N01630822WA0000001560
B1554592813213N01630818WA0000001557
B1555002813210N01630815WA0000001556
B1555012813207N01630813WA0000001555
B1555022813203N01630812WA0000001554
B1555032813200N01630810WA0000001554
B1555042813197N01630807WA0000001551
B1555052813194N01630804WA0000001550
B1555062813191N01630803WA0000001549
B1555072813188N01630801WA0000001549
B1555082813184N01630800WA0000001550
B1555092813181N01630800WA0000001550
B1555102813178N01630800WA0000001552
B1555112813175N01630801WA0000001554
B1555122813174N01630800WA0000001555
B1555132813171N01630800WA0000001555
B1555142813169N01630799WA0000001553
B1555152813167N01630797WA0000001553
B1555162813164N01630796WA0000001553
B1555172813161N01630793WA0000001553
B1555182813159N01630791WA0000001552
B1555192813156N01630789WA0000001553
B1555202813153N01630787WA0000001553
B1555212813150N01630786WA0000001554
B1555222813147N01630786WA0000001555
B1555232813144N01630786WA0000001554
B1555242813141N01630784WA0000001553
B1555252813138N01630781WA0000001553
B1555262813136N01630776WA0000001552
B1555272813136N01630769WA0000001551
B1555282813137N01630762WA0000001550
B1555292813138N01630755WA0000001549
B1555302813141N01630748WA0000001549
B1555312813144N01630742WA0000001549
B1555322813147N01630734WA0000001548
B1555332813149N01630728WA0000001547
B1555342813152N01630720WA0000001545
B1555352813153N01630712WA0000001545
B1555362813155N01630705WA0000001543
B1555372813156N01630699WA0000001543
B1555382813158N01630692WA0000001542
B1555392813160N01630685WA0000001541
B1555402813163N01630677WA0000001539
B1555412813167N01630670WA0000001537
B1555422813173N01630662WA0000001535
B1555432813177N01630655WA0000001535
B1555442813182N01630648WA0000001534
B1555452813186N01630641WA0000001533
B1555462813189N01630634WA0000001532
B1555472813192N01630627WA0000001531
B1555482813196N01630619WA0000001528
B1555492813199N01630612WA0000001525
B1555502813203N01630605WA0000001525
B1555512813208N01630598WA0000001523
B1555522813212N01630592WA0000001522
B1555532813216N01630584WA0000001521
B1555542813220N01630578WA0000001521
B1555552813224N01630571WA0000001521
B1555562813229N01630565WA0000001520
B1555572813234N01630560WA0000001520
B1555582813238N01630554WA0000001519
B1555592813244N01630549WA0000001518
B1556002813248N01630543WA0000001519
B1556012813252N01630536WA0000001517
B1556022813257N01630528WA0000001514
B1556032813261N01630521WA0000001513
B1556042813264N01630514WA0000001512
B1556052813267N01630507WA0000001510
B1556062813270N01630500WA0000001508
B1556072813274N01630493WA0000001506
B1556082813277N01630486WA0000001505
B1556092813281N01630479WA0000001502
B1556102813283N01630471WA0000001501
B1556112813286N01630463WA0000001498
B1556122813289N01630456WA0000001496
B1556132813292N01630448WA0000001494
B1556142813295N01630440WA0000001491
B1556152813299N01630432WA0000001489
B1556162813302N01630424WA0000001487
B1556172813305N01630417WA0000001486
B1556182813308N01630409WA0000001485
B1556192813312N01630401WA0000001483
B1556202813315N01630393WA0000001481
B1556212813319N01630384WA0000001479
B1556222813324N01630376WA0000001477
B1556232813327N01630368WA0000001475
B1556242813331N01630360WA0000001476
B1556252813335N01630352WA0000001479
B1556262813338N01630346WA0000001481
B1556272813342N01630340WA0000001482
B1556282813345N01630334WA0000001483
B1556292813349N01630328WA0000001483
B1556302813354N01630321WA0000001483
B1556312813358N01630315WA0000001482
B1556322813363N01630309WA0000001483
B1556332813367N01630303WA0000001485
B1556342813370N01630297WA0000001486
B1556352813374N01630291WA0000001485
B1556362813378N01630286WA0000001484
B1556372813383N01630280WA0000001482
B1556382813389N01630274WA0000001481
B1556392813395N01630268WA0000001481
B1556402813400N01630263WA0000001481
B1556412813406N01630259WA0000001482
B1556422813411N01630255WA0000001482
B1556432813417N01630251WA0000001481
B1556442813424N01630246WA0000001480
B1556452813430N01630241WA0000001481
B1556462813437N01630237WA0000001481
B1556472813444N01630233WA0000001481
B1556482813450N01630229WA0000001483
B1556492813456N01630225WA0000001484
B1556502813462N01630221WA0000001483
B1556512813469N01630217WA0000001482
B1556522813477N01630213WA0000001480
B1556532813485N01630210WA0000001480
B1556542813492N01630207WA0000001482
B1556552813499N01630204WA0000001484
B1556562813505N01630201WA0000001486
B1556572813511N01630198WA0000001487
B1556582813518N01630196WA0000001487
B1556592813526N01630193WA0000001487
B1557002813534N01630192WA0000001486
B1557012813543N01630190WA0000001488
B1557022813550N01630189WA0000001489
B1557032813557N01630188WA0000001492
B1557042813564N01630186WA0000001494
B1557052813570N01630184WA0000001496
B1557062813577N01630182WA0000001496
B1557072813585N01630180WA0000001497
B1557082813593N01630180WA0000001496
B1557092813601N01630181WA0000001496
B1557102813608N01630182WA0000001498
B1557112813615N01630183WA0000001500
B1557122813622N01630186WA0000001501
B1557132813628N01630188WA0000001502
B1557142813634N01630192WA0000001501
B1557152813638N01630196WA0000001501
B1557162813643N01630200WA0000001500
B1557172813647N01630205WA0000001500
B1557182813650N01630211WA0000001501
B1557192813651N01630216WA0000001502
B1557202813650N01630221WA0000001502
B1557212813649N01630226WA0000001503
B1557222813647N01630230WA0000001503
B1557232813644N01630232WA0000001503
B1557242813642N01630235WA0000001503
B1557252813640N01630236WA0000001503
B1557262813637N01630237WA0000001503
B1557272813634N01630237WA0000001502
B1557282813630N01630235WA0000001502
B1557292813627N01630231WA0000001502
B1557302813625N01630227WA0000001502
B1557312813624N01630222WA0000001503
B1557322813623N01630216WA0000001503
B1557332813624N01630210WA0000001502
B1557342813624N01630203WA0000001502
B1557352813626N01630196WA0000001501
B1557362813627N01630187WA0000001500
B1557372813630N01630179WA0000001499
B1557382813633N01630172WA0000001500
B1557392813636N01630166WA0000001503
B1557402813639N01630159WA0000001505
B1557412813642N01630152WA0000001506
B1557422813646N01630145WA0000001506
B1557432813649N01630137WA0000001505
B1557442813653N01630130WA0000001506
B1557452813657N01630123WA0000001506
B1557462813661N01630116WA0000001507
B1557472813664N01630110WA0000001509
B1557482813668N01630103WA0000001509
B1557492813672N01630097WA0000001510
B1557502813676N01630091WA0000001510
B1557512813681N01630085WA0000001509
B1557522813686N01630079WA0000001506
B1557532813692N01630072WA0000001504
B1557542813698N01630065WA0000001502
B1557552813703N01630058WA0000001503
B1557562813707N01630052WA0000001503
B1557572813712N01630047WA0000001504
B1557582813717N01630042WA0000001504
B1557592813724N01630036WA0000001503
B1558002813731N01630031WA0000001501
B1558012813738N01630025WA0000001499
B1558022813745N01630018WA0000001499
B1558032813751N01630012WA0000001499
B1558042813756N01630005WA0000001499
B1558052813761N01629999WA0000001499
B1558062813767N01629993WA0000001499
B1558072813773N01629988WA0000001498
B1558082813781N01629983WA0000001495
B1558092813788N01629977WA0000001492
B1558102813794N01629971WA0000001490
B1558112813800N01629964WA0000001489
B1558122813804N01629957WA0000001490
B1558132813808N01629950WA0000001490
B1558142813812N01629944WA0000001490
B1558152813816N01629937WA0000001491
B1558162813821N01629931WA0000001490
B1558172813827N01629924WA0000001489
B1558182813833N01629917WA0000001488
B1558192813839N01629911WA0000001487
B1558202813845N01629906WA0000001488
B1558212813850N01629901WA0000001488
B1558222813855N01629896WA0000001488
B1558232813860N01629890WA0000001487
B1558242813866N01629884WA0000001485
B1558252813873N01629879WA0000001483
B1558262813880N01629874WA0000001482
B1558272813887N01629871WA0000001483
B1558282813893N01629867WA0000001484
B1558292813899N01629864WA0000001484
B1558302813905N01629861WA0000001483
B1558312813912N01629856WA0000001481
B1558322813920N01629853WA0000001479
B1558332813926N01629849WA0000001478
B1558342813933N01629845WA0000001477
B1558352813938N01629840WA0000001477
B1558362813943N01629836WA0000001478
B1558372813948N01629832WA0000001478
B1558382813954N01629828WA0000001476
B1558392813960N01629823WA0000001475
B1558402813966N01629818WA0000001474
B1558412813972N01629814WA0000001474
B1558422813977N01629811WA0000001474
B1558432813983N01629807WA0000001474
B1558442813988N01629803WA0000001474
B1558452813994N01629800WA0000001473
B1558462814000N01629796WA0000001473
B1558472814006N01629791WA0000001472
B1558482814013N01629788WA0000001472
B1558492814018N01629784WA0000001474
B1558502814022N01629780WA0000001474
B1558512814026N01629777WA0000001473
B1558532814036N01629770WA0000001471
B1558542814042N01629767WA0000001471
B1558552814048N01629764WA0000001473
B1558562814052N01629760WA0000001475
B1558572814056N01629757WA0000001478
B1558582814060N01629755WA0000001480
B1558592814063N01629753WA0000001481
B1559002814067N01629750WA0000001480
B1559012814072N01629747WA0000001479
B1559022814079N01629743WA0000001479
B1559032814085N01629740WA0000001478
B1559042814092N01629738WA0000001480
B1559052814099N01629738WA0000001482
B1559062814105N01629740WA0000001484
B1559072814112N01629742WA0000001485
B1559082814118N01629746WA0000001484
B1559092814125N01629751WA0000001483
B1559102814129N01629757WA0000001482
B1559112814133N01629764WA0000001482
B1559122814133N01629771WA0000001482
B1559132814132N01629778WA0000001481
B1559142814130N01629784WA0000001481
B1559152814128N01629790WA0000001481
B1559162814127N01629795WA0000001482
B1559172814127N01629800WA0000001484
B1559182814128N01629806WA0000001483
B1559192814130N01629812WA0000001483
B1559202814132N01629819WA0000001482
B1559212814135N01629825WA0000001481
B1559222814137N01629832WA0000001481
B1559232814138N01629838WA0000001482
B1559242814139N01629844WA0000001483
B1559252814141N01629850WA0000001483
B1559262814144N01629856WA0000001482
B1559272814149N01629862WA0000001481
B1559282814156N01629866WA0000001480
B1559292814164N01629869WA0000001478
B1559302814172N01629869WA0000001477
B1559312814179N01629870WA0000001476
B1559322814185N01629869WA0000001477
B1559332814190N01629869WA0000001477
B1559342814197N01629868WA0000001476
B1559352814204N01629865WA0000001475
B1559362814211N01629862WA0000001472
B1559372814217N01629859WA0000001470
B1559382814222N01629854WA0000001470
B1559392814226N01629849WA0000001469
B1559402814228N01629844WA0000001468
B1559412814229N01629839WA0000001465
B1559422814231N01629833WA0000001464
B1559432814233N01629827WA0000001461
B1559442814235N01629820WA0000001459
B1559452814237N01629814WA0000001457
B1559462814239N01629807WA0000001456
B1559472814240N01629801WA0000001456
B1559482814242N01629796WA0000001456
B1559492814244N01629790WA0000001456
B1559502814246N01629785WA0000001457
B1559512814248N01629780WA0000001458
B1559522814251N01629775WA0000001459
B1559532814254N01629769WA0000001457
B1559542814257N01629763WA0000001457
B1559552814261N01629756WA0000001456
B1559562814265N01629750WA0000001456
B1559572814268N01629744WA0000001455
B1559582814271N01629738WA0000001456
B1559592814273N01629732WA0000001456
B1600002814275N01629726WA0000001457
B1600012814278N01629720WA0000001457
B1600022814280N01629713WA0000001457
B1600032814283N01629707WA0000001456
B1600042814286N01629700WA0000001455
B1600052814288N01629693WA0000001452
B1600062814291N01629685WA0000001451
B1600072814293N01629678WA0000001450
B1600082814296N01629670WA0000001449
B1600092814300N01629663WA0000001448
B1600102814303N01629657WA0000001447
B1600112814307N01629650WA0000001445
B1600122814311N01629644WA0000001443
B1600132814316N01629637WA0000001443
B1600142814320N01629631WA0000001442
B1600152814324N01629624WA0000001440
B1600162814328N01629617WA0000001438
B1600172814331N01629610WA0000001437
B1600182814334N01629602WA0000001437
B1600192814336N01629595WA0000001436
B1600202814339N01629588WA0000001435
B1600212814342N01629581WA0000001435
B1600222814344N01629575WA0000001434
B1600232814348N01629568WA0000001432
B1600242814351N01629560WA0000001430
B1600252814355N01629553WA0000001427
B1600262814359N01629545WA0000001427
B1600272814363N01629539WA0000001428
B1600282814367N01629533WA0000001428
B1600292814371N01629527WA0000001428
B1600302814375N01629520WA0000001426
B1600312814379N01629512WA0000001423
B1600322814384N01629504WA0000001420
B1600332814388N01629496WA0000001420
B1600342814393N01629490WA0000001421
B1600352814398N01629485WA0000001423
B1600362814402N01629480WA0000001424
B1600372814407N01629475WA0000001424
B1600382814410N01629469WA0000001424
B1600392814414N01629463WA0000001422
B1600402814417N01629456WA0000001421
B1600412814419N01629449WA0000001419
B1600422814422N01629442WA0000001418
B1600432814425N01629435WA0000001417
B1600442814429N01629430WA0000001416
B1600452814433N01629425WA0000001414
B1600462814436N01629419WA0000001413
B1600472814440N01629413WA0000001411
B1600482814443N01629407WA0000001410
B1600492814446N01629401WA0000001408
B1600502814450N01629394WA0000001405
B1600512814455N01629388WA0000001403
B1600532814464N01629375WA0000001397
B1600542814468N01629369WA0000001397
B1600552814472N01629363WA0000001396
B1600562814476N01629356WA0000001394
B1600572814480N01629349WA0000001392
B1600582814484N01629343WA0000001391
B1600592814488N01629336WA0000001391
B1601002814492N01629329WA0000001389
B1601012814497N01629323WA0000001387
B1601022814501N01629316WA0000001384
B1601032814506N01629309WA0000001382
B1601042814510N01629302WA0000001380
B1601052814514N01629296WA0000001380
B1601062814518N01629289WA0000001381
B1601072814522N01629284WA0000001381
B1601082814526N01629279WA0000001380
B1601092814530N01629273WA0000001379
B1601102814533N01629267WA0000001377
B1601112814536N01629261WA0000001375
B1601122814540N01629254WA0000001373
B1601132814543N01629247WA0000001371
B1601142814547N01629240WA0000001371
B1601152814550N01629234WA0000001370
B1601162814553N01629228WA0000001369
B1601172814557N01629222WA0000001366
B1601182814561N01629216WA0000001364
B1601192814565N01629209WA0000001362
B1601202814568N01629202WA0000001360
B1601212814571N01629195WA0000001360
B1601222814574N01629189WA0000001358
B1601232814577N01629182WA0000001356
B1601242814579N01629175WA0000001355
B1601252814582N01629168WA0000001354
B1601262814584N01629161WA0000001353
B1601272814587N01629155WA0000001353
B1601282814590N01629149WA0000001353
B1601292814593N01629142WA0000001351
B1601302814595N01629136WA0000001350
B1601312814598N01629129WA0000001348
B1601322814601N01629123WA0000001346
B1601332814604N01629116WA0000001344
B1601342814607N01629109WA0000001344
B1601352814610N01629102WA0000001343
B1601362814614N01629095WA0000001341
B1601372814617N01629087WA0000001341
B1601382814620N01629080WA0000001341
B1601392814622N01629073WA0000001341
B1601402814625N01629066WA0000001342
B1601412814627N01629058WA0000001343
B1601422814630N01629052WA0000001345
B1601432814633N01629046WA0000001347
B1601442814637N01629039WA0000001347
B1601452814639N01629033WA0000001347
B1601462814641N01629027WA0000001347
B1601472814643N01629021WA0000001348
B1601482814645N01629013WA0000001347
B1601492814648N01629006WA0000001347
B1601502814651N01628999WA0000001348
B1601512814654N01628992WA0000001349
B1601522814658N01628986WA0000001351
B1601532814661N01628980WA0000001352
B1601542814664N01628974WA0000001352
B1601552814668N01628967WA0000001352
B1601562814671N01628959WA0000001353
B1601572814675N01628952WA0000001353
B1601582814678N01628945WA0000001354
B1601592814680N01628938WA0000001354
B1602002814683N01628931WA0000001353
B1602012814687N01628924WA0000001353
B1602022814692N01628917WA0000001352
B1602032814698N01628911WA0000001352
B1602042814704N01628905WA0000001352
B1602052814710N01628901WA0000001354
B1602062814716N01628897WA0000001354
B1602072814722N01628892WA0000001355
B1602082814729N01628888WA0000001355
B1602092814735N01628883WA0000001354
B1602102814742N01628879WA0000001354
B1602112814749N01628875WA0000001353
B1602122814755N01628870WA0000001353
B1602132814761N01628866WA0000001351
B1602142814767N01628861WA0000001350
B1602152814774N01628857WA0000001348
B1602162814781N01628852WA0000001347
B1602172814788N01628848WA0000001347
B1602182814795N01628844WA0000001347
B1602192814801N01628840WA0000001348
B1602202814808N01628836WA0000001348
B1602212814813N01628833WA0000001349
B1602222814818N01628829WA0000001349
B1602232814824N01628824WA0000001348
B1602242814828N01628818WA0000001346
B1602252814833N01628811WA0000001344
B1602262814837N01628805WA0000001343
B1602272814841N01628800WA0000001343
B1602282814845N01628796WA0000001343
B1602292814849N01628792WA0000001344
B1602302814853N01628787WA0000001344
B1602312814857N01628782WA0000001341
B1602322814862N01628775WA0000001337
B1602332814866N01628767WA0000001333
B1602342814870N01628759WA0000001329
B1602352814874N01628752WA0000001328
B1602362814879N01628747WA0000001328
B1602372814883N01628741WA0000001329
B1602382814888N01628736WA0000001330
B1602392814893N01628730WA0000001329
B1602402814897N01628723WA0000001329
B1602412814903N01628717WA0000001325
B1602422814908N01628710WA0000001324
B1602432814914N01628705WA0000001323
B1602442814919N01628699WA0000001324
B1602452814924N01628694WA0000001325
B1602462814929N01628690WA0000001324
B1602472814935N01628684WA0000001324
B1602482814941N01628678WA0000001323
B1602492814948N01628672WA0000001322
B1602502814954N01628666WA0000001323
B1602512814961N01628661WA0000001323
B1602522814967N01628656WA0000001325
B1602532814973N01628650WA0000001326
B1602542814979N01628645WA0000001328
B1602552814984N01628640WA0000001330
B1602562814989N01628635WA0000001332
B1602572814995N01628631WA0000001333
B1602582815001N01628626WA0000001334
B1602592815006N01628622WA0000001334
B1603002815012N01628618WA0000001333
B1603012815016N01628612WA0000001331
B1603022815020N01628607WA0000001329
B1603032815023N01628601WA0000001327
B1603042815027N01628595WA0000001326
B1603052815030N01628589WA0000001325
B1603062815033N01628584WA0000001323
B1603072815037N01628579WA0000001322
B1603082815041N01628575WA0000001321
B1603092815045N01628569WA0000001318
B1603102815049N01628563WA0000001317
B1603112815051N01628557WA0000001316
B1603122815054N01628550WA0000001316
B1603132815056N01628544WA0000001316
B1603142815059N01628538WA0000001317
B1603152815061N01628532WA0000001317
B1603162815063N01628525WA0000001317
B1603172815065N01628518WA0000001316
B1603182815068N01628511WA0000001317
B1603192815069N01628504WA0000001317
B1603202815071N01628497WA0000001317
B1603212815073N01628492WA0000001318
B1603222815076N01628485WA0000001317
B1603232815079N01628478WA0000001316
B1603242815082N01628471WA0000001315
B1603252815085N01628464WA0000001315
B1603262815088N01628457WA0000001315
B1603272815090N01628451WA0000001316
B1603282815092N01628446WA0000001317
B1603292815094N01628441WA0000001318
B1603302815095N01628435WA0000001319
B1603312815096N01628429WA0000001319
B1603322815099N01628421WA0000001317
B1603332815104N01628413WA0000001317
B1603342815110N01628407WA0000001316
B1603352815117N01628401WA0000001316
B1603362815124N01628397WA0000001317
B1603372815129N01628393WA0000001318
B1603382815135N01628388WA0000001319
B1603392815140N01628383WA0000001317
B1603402815146N01628376WA0000001315
B1603412815150N01628370WA0000001313
B1603422815154N01628363WA0000001313
B1603432815157N01628357WA0000001315
B1603442815160N01628352WA0000001316
B1603452815163N01628346WA0000001316
B1603462815167N01628340WA0000001315
B1603472815171N01628334WA0000001312
B1603482815175N01628327WA0000001309
B1603492815179N01628319WA0000001306
B1603502815182N01628311WA0000001305
B1603512815185N01628305WA0000001305
B1603522815189N01628300WA0000001306
B1603532815193N01628295WA0000001306
B1603542815197N01628290WA0000001305
B1603552815201N01628284WA0000001303
B1603562815205N01628278WA0000001302
B1603572815210N01628272WA0000001299
B1603582815215N01628266WA0000001296
B1603592815221N01628259WA0000001294
B1604002815227N01628253WA0000001292
B1604012815232N01628246WA0000001291
B1604022815237N01628240WA0000001290
B1604032815242N01628233WA0000001290
B1604042815248N01628227WA0000001288
B1604052815254N01628221WA0000001287
B1604062815260N01628215WA0000001286
B1604072815266N01628209WA0000001286
B1604082815272N01628203WA0000001285
B1604092815277N01628196WA0000001284
B1604102815282N01628190WA0000001283
B1604112815287N01628183WA0000001283
B1604122815292N01628176WA0000001284
B1604132815297N01628169WA0000001285
B1604142815302N01628163WA0000001284
B1604152815307N01628157WA0000001284
B1604162815313N01628152WA0000001284
B1604172815318N01628146WA0000001284
B1604182815324N01628139WA0000001284
B1604192815329N01628133WA0000001283
B1604202815332N01628126WA0000001283
B1604212815336N01628120WA0000001282
B1604222815339N01628114WA0000001281
B1604232815343N01628107WA0000001281
B1604242815346N01628101WA0000001281
B1604252815350N01628096WA0000001281
B1604262815354N01628091WA0000001280
B1604272815358N01628086WA0000001279
B1604282815363N01628080WA0000001279
B1604292815367N01628074WA0000001277
B1604302815372N01628069WA0000001275
B1604312815377N01628063WA0000001275
B1604322815382N01628058WA0000001274
B1604332815387N01628053WA0000001273
B1604342815394N01628049WA0000001272
B1604352815400N01628044WA0000001272
B1604362815406N01628040WA0000001273
B1604372815411N01628035WA0000001275
B1604382815416N01628031WA0000001276
B1604392815422N01628026WA0000001277
B1604402815427N01628022WA0000001278
B1604412815432N01628017WA0000001278
B1604422815437N01628013WA0000001279
B1604432815442N01628009WA0000001279
B1604442815446N01628005WA0000001281
B1604452815451N01628002WA0000001281
B1604462815456N01627999WA0000001282
B1604472815461N01627995WA0000001284
B1604482815466N01627991WA0000001284
B1604492815471N01627989WA0000001284
B1604502815478N01627987WA0000001283
B1604512815484N01627988WA0000001283
B1604522815491N01627991WA0000001282
B1604532815496N01627996WA0000001281
B1604542815500N01628002WA0000001282
B1604552815502N01628008WA0000001283
B1604562815504N01628014WA0000001283
B1604572815506N01628020WA0000001284
B1604582815507N01628026WA0000001285
B1604592815508N01628033WA0000001284
B1605002815508N01628039WA0000001283
B1605012815506N01628044WA0000001283
B1605022815503N01628047WA0000001283
B1605032815499N01628048WA0000001283
B1605042815495N01628049WA0000001283
B1605052815491N01628049WA0000001283
B1605062815487N01628050WA0000001285
B1605072815484N01628050WA0000001287
B1605082815482N01628051WA0000001288
B1605092815480N01628052WA0000001288
B1605102815477N01628055WA0000001288
B1605112815475N01628058WA0000001288
B1605122815474N01628063WA0000001288
B1605132815474N01628069WA0000001288
B1605142815475N01628075WA0000001288
B1605152815477N01628081WA0000001289
B1605162815481N01628086WA0000001290
B1605172815485N01628090WA0000001291
B1605182815491N01628093WA0000001291
B1605192815498N01628094WA0000001291
B1605202815505N01628092WA0000001290
B1605212815510N01628087WA0000001290
B1605222815514N01628083WA0000001292
B1605232815516N01628078WA0000001294
B1605242815517N01628074WA0000001295
B1605252815518N01628069WA0000001296
B1605262815518N01628065WA0000001297
B1605272815519N01628060WA0000001298
B1605282815518N01628056WA0000001298
B1605292815517N01628051WA0000001298
B1605302815516N01628047WA0000001298
B1605312815515N01628043WA0000001298
B1605322815513N01628040WA0000001298
B1605332815510N01628038WA0000001299
B1605342815508N01628037WA0000001300
B1605352815505N01628037WA0000001300
B1605362815502N01628037WA0000001301
B1605372815500N01628036WA0000001302
B1605382815497N01628036WA0000001302
B1605392815494N01628038WA0000001301
B1605402815492N01628041WA0000001299
B1605412815490N01628047WA0000001297
B1605422815490N01628053WA0000001297
B1605432815492N01628059WA0000001296
B1605442815495N01628065WA0000001296
B1605452815500N01628069WA0000001297
B1605462815505N01628073WA0000001297
B1605472815511N01628075WA0000001297
B1605482815517N01628077WA0000001298
B1605492815522N01628079WA0000001299
B1605502815527N01628082WA0000001300
B1605512815533N01628086WA0000001300
B1605522815538N01628090WA0000001301
B1605532815544N01628094WA0000001301
B1605542815550N01628096WA0000001302
B1605552815557N01628095WA0000001302
B1605562815564N01628093WA0000001301
B1605572815570N01628089WA0000001302
B1605582815575N01628085WA0000001303
B1605592815579N01628081WA0000001305
B1606002815584N01628078WA0000001306
B1606012815588N01628075WA0000001306
B1606022815594N01628071WA0000001306
B1606032815601N01628068WA0000001305
B1606042815607N01628064WA0000001305
B1606052815613N01628060WA0000001306
B1606062815619N01628056WA0000001307
B1606072815625N01628053WA0000001308
B1606082815631N01628050WA0000001308
B1606092815636N01628045WA0000001307
B1606102815641N01628040WA0000001307
B1606112815646N01628034WA0000001307
B1606122815650N01628029WA0000001307
B1606132815655N01628024WA0000001307
B1606142815659N01628019WA0000001307
B1606152815664N01628015WA0000001307
B1606162815668N01628009WA0000001305
B1606172815673N01628003WA0000001304
B1606182815677N01627995WA0000001301
B1606192815681N01627988WA0000001299
B1606202815684N01627980WA0000001299
B1606212815686N01627972WA0000001299
B1606222815688N01627965WA0000001300
B1606232815690N01627958WA0000001300
B1606242815692N01627950WA0000001300
B1606252815694N01627942WA0000001298
B1606262815697N01627934WA0000001297
B1606272815700N01627926WA0000001296
B1606282815703N01627918WA0000001295
B1606292815707N01627911WA0000001296
B1606302815711N01627905WA0000001296
B1606312815715N01627899WA0000001296
B1606322815720N01627892WA0000001296
B1606332815724N01627886WA0000001294
B1606342815730N01627880WA0000001292
B1606352815736N01627873WA0000001289
B1606362815742N01627866WA0000001288
B1606372815747N01627860WA0000001287
B1606382815753N01627853WA0000001287
B1606392815757N01627847WA0000001288
B1606402815762N01627841WA0000001286
B1606412815768N01627834WA0000001284
B1606422815773N01627827WA0000001283
B1606432815779N01627820WA0000001281
B1606442815784N01627813WA0000001281
B1606452815789N01627807WA0000001281
B1606462815794N01627800WA0000001282
B1606472815799N01627794WA0000001282
B1606482815803N01627787WA0000001281
B1606492815809N01627781WA0000001279
B1606502815814N01627774WA0000001278
B1606512815820N01627767WA0000001276
B1606522815826N01627760WA0000001276
B1606532815831N01627753WA0000001277
B1606542815835N01627747WA0000001277
B1606552815839N01627741WA0000001277
B1606562815843N01627734WA0000001276
B1606572815847N01627727WA0000001275
B1606582815853N01627721WA0000001273
B1606592815858N01627714WA0000001272
B1607002815863N01627708WA0000001271
B1607012815869N01627702WA0000001270
B1607022815874N01627696WA0000001270
B1607032815879N01627690WA0000001269
B1607042815884N01627684WA0000001268
B1607052815890N01627678WA0000001266
B1607062815895N01627671WA0000001264
B1607072815900N01627665WA0000001263
B1607082815905N01627659WA0000001262
B1607092815909N01627653WA0000001261
B1607102815914N01627647WA0000001259
B1607112815919N01627641WA0000001258
B1607122815925N01627634WA0000001257
B1607132815931N01627628WA0000001257
B1607142815937N01627623WA0000001258
B1607152815943N01627617WA0000001258
B1607162815948N01627613WA0000001259
B1607172815954N01627608WA0000001259
B1607182815960N01627603WA0000001257
B1607192815966N01627597WA0000001254
B1607202815972N01627591WA0000001253
B1607212815978N01627585WA0000001251
B1607222815984N01627579WA0000001249
B1607232815989N01627573WA0000001249
B1607242815994N01627568WA0000001249
B1607252816000N01627562WA0000001247
B1607262816005N01627556WA0000001246
B1607272816011N01627550WA0000001244
B1607282816016N01627543WA0000001243
B1607292816022N01627536WA0000001241
B1607302816026N01627529WA0000001240
B1607312816030N01627523WA0000001240
B1607322816034N01627517WA0000001240
B1607332816039N01627510WA0000001237
B1607342816044N01627503WA0000001235
B1607352816049N01627496WA0000001233
B1607362816054N01627490WA0000001231
B1607372816060N01627485WA0000001231
B1607382816065N01627480WA0000001231
B1607392816070N01627475WA0000001231
B1607402816076N01627470WA0000001231
B1607412816082N01627464WA0000001230
B1607422816088N01627459WA0000001228
B1607432816094N01627453WA0000001227
B1607442816100N01627447WA0000001226
B1607452816106N01627443WA0000001225
B1607462816112N01627437WA0000001225
B1607472816118N01627432WA0000001224
B1607482816125N01627428WA0000001222
B1607492816131N01627423WA0000001221
B1607502816138N01627418WA0000001219
B1607512816144N01627412WA0000001217
B1607522816150N01627406WA0000001214
B1607532816155N01627400WA0000001213
B1607542816160N01627395WA0000001213
B1607552816165N01627389WA0000001212
B1607562816170N01627384WA0000001213
B1607572816175N01627378WA0000001211
B1607582816180N01627372WA0000001208
B1607592816186N01627366WA0000001206
B1608002816192N01627361WA0000001205
B1608012816198N01627355WA0000001204
B1608022816203N01627349WA0000001203
B1608032816208N01627343WA0000001202
B1608042816213N01627337WA0000001200
B1608052816219N01627331WA0000001199
B1608062816224N01627324WA0000001198
B1608072816228N01627318WA0000001197
B1608082816232N01627311WA0000001197
B1608092816235N01627304WA0000001198
B1608102816237N01627297WA0000001198
B1608112816239N01627289WA0000001197
B1608122816242N01627281WA0000001197
B1608132816244N01627274WA0000001196
B1608142816245N01627267WA0000001197
B1608152816246N01627260WA0000001197
B1608162816245N01627254WA0000001198
B1608172816245N01627248WA0000001198
B1608182816246N01627241WA0000001198
B1608192816248N01627234WA0000001199
B1608202816249N01627228WA0000001200
B1608212816251N01627222WA0000001198
B1608222816253N01627217WA0000001199
B1608232816255N01627210WA0000001199
B1608242816257N01627204WA0000001198
B1608252816259N01627197WA0000001197
B1608262816261N01627190WA0000001197
B1608272816264N01627184WA0000001197
B1608282816267N01627177WA0000001197
B1608292816270N01627171WA0000001196
B1608302816273N01627166WA0000001197
B1608312816276N01627161WA0000001197
B1608322816280N01627155WA0000001198
B1608332816284N01627150WA0000001198
B1608342816288N01627144WA0000001198
B1608352816291N01627137WA0000001198
B1608362816295N01627130WA0000001197
B1608372816299N01627124WA0000001196
B1608382816304N01627117WA0000001194
B1608392816308N01627111WA0000001194
B1608402816314N01627105WA0000001193
B1608412816320N01627100WA0000001192
B1608422816327N01627096WA0000001192
B1608432816333N01627093WA0000001192
B1608442816339N01627089WA0000001192
B1608452816345N01627084WA0000001191
B1608462816352N01627080WA0000001190
B1608472816359N01627075WA0000001189
B1608482816365N01627070WA0000001189
B1608492816370N01627064WA0000001189
B1608502816374N01627059WA0000001188
B1608512816380N01627053WA0000001187
B1608522816385N01627048WA0000001186
B1608532816391N01627043WA0000001184
B1608542816397N01627038WA0000001182
B1608552816403N01627033WA0000001181
B1608562816408N01627027WA0000001181
B1608572816414N01627021WA0000001181
B1608582816419N01627016WA0000001180
B1608592816425N01627010WA0000001180
B1609002816430N01627005WA0000001178
B1609012816435N01626999WA0000001177
B1609022816440N01626993WA0000001177
B1609032816445N01626986WA0000001175
B1609042816449N01626978WA0000001176
B1609052816451N01626971WA0000001174
B1609062816455N01626965WA0000001175
B1609072816459N01626959WA0000001176
B1609082816464N01626954WA0000001176
B1609092816468N01626949WA0000001177
B1609102816473N01626944WA0000001179
B1609112816477N01626940WA0000001180
B1609122816480N01626936WA0000001181
B1609132816485N01626932WA0000001181
B1609142816489N01626926WA0000001180
B1609152816493N01626921WA0000001180
B1609162816497N01626915WA0000001180
B1609172816500N01626909WA0000001181
B1609182816503N01626904WA0000001181
B1609192816506N01626899WA0000001181
B1609202816510N01626894WA0000001180
B1609212816514N01626888WA0000001180
B1609222816518N01626882WA0000001179
B1609232816521N01626875WA0000001179
B1609242816522N01626869WA0000001179
B1609252816524N01626863WA0000001180
B1609262816526N01626858WA0000001180
B1609272816529N01626852WA0000001180
B1609282816532N01626846WA0000001180
B1609292816535N01626840WA0000001178
B1609302816537N01626833WA0000001175
B1609312816538N01626826WA0000001174
B1609322816540N01626820WA0000001174
B1609332816543N01626813WA0000001173
B1609342816546N01626807WA0000001172
B1609352816550N01626802WA0000001171
B1609362816555N01626797WA0000001170
B1609372816560N01626792WA0000001169
B1609382816566N01626786WA0000001166
B1609392816571N01626781WA0000001165
B1609402816577N01626777WA0000001164
B1609412816583N01626774WA0000001165
B1609422816589N01626772WA0000001165
B1609432816595N01626770WA0000001165
B1609442816600N01626767WA0000001166
B1609452816606N01626764WA0000001165
B1609462816612N01626762WA0000001164
B1609472816619N01626760WA0000001163
B1609482816626N01626757WA0000001162
B1609492816632N01626755WA0000001162
B1609502816637N01626752WA0000001163
B1609512816642N01626749WA0000001163
B1609522816646N01626745WA0000001162
B1609532816651N01626741WA0000001162
B1609542816657N01626737WA0000001161
B1609552816662N01626734WA0000001161
B1609562816667N01626731WA0000001162
B1609572816673N01626728WA0000001163
B1609582816678N01626724WA0000001162
B1609592816683N01626719WA0000001161
B1610002816687N01626714WA0000001160
B1610012816691N01626709WA0000001160
B1610022816695N01626704WA0000001160
B1610032816699N01626699WA0000001161
B1610042816702N01626695WA0000001162
B1610052816706N01626690WA0000001162
B1610062816710N01626684WA0000001160
B1610072816714N01626678WA0000001157
B1610082816718N01626672WA0000001156
B1610092816722N01626667WA0000001155
B1610102816726N01626662WA0000001154
B1610112816729N01626657WA0000001153
B1610122816732N01626650WA0000001151
B1610132816736N01626643WA0000001148
B1610142816739N01626635WA0000001146
B1610152816743N01626628WA0000001146
B1610162816747N01626622WA0000001146
B1610172816750N01626616WA0000001146
B1610182816754N01626611WA0000001145
B1610192816757N01626604WA0000001143
B1610202816760N01626597WA0000001140
B1610212816764N01626589WA0000001139
B1610222816767N01626582WA0000001139
B1610232816771N01626576WA0000001139
B1610242816776N01626570WA0000001141
B1610252816780N01626565WA0000001141
B1610262816783N01626560WA0000001141
B1610272816787N01626553WA0000001139
B1610282816791N01626546WA0000001136
B1610292816795N01626540WA0000001135
B1610302816800N01626534WA0000001134
B1610312816803N01626527WA0000001135
B1610322816807N01626520WA0000001134
B1610332816811N01626513WA0000001132
B1610342816814N01626506WA0000001130
B1610352816819N01626500WA0000001129
B1610362816825N01626494WA0000001129
B1610372816830N01626488WA0000001129
B1610382816835N01626483WA0000001129
B1610392816839N01626477WA0000001129
B1610402816843N01626472WA0000001128
B1610412816848N01626466WA0000001126
B1610422816852N01626460WA0000001125
B1610432816857N01626453WA0000001124
B1610442816862N01626447WA0000001122
B1610452816866N01626440WA0000001120
B1610462816871N01626434WA0000001121
B1610472816876N01626428WA0000001120
B1610482816880N01626421WA0000001120
B1610492816885N01626415WA0000001119
B1610502816889N01626409WA0000001119
B1610512816893N01626402WA0000001118
B1610522816894N01626395WA0000001118
B1610532816894N01626388WA0000001118
B1610542816895N01626381WA0000001118
B1610552816895N01626375WA0000001119
B1610562816897N01626368WA0000001118
B1610572816899N01626361WA0000001115
B1610582816901N01626353WA0000001114
B1610592816903N01626345WA0000001112
B1611002816906N01626337WA0000001112
B1611012816909N01626330WA0000001112
B1611022816912N01626323WA0000001111
B1611032816915N01626315WA0000001110
B1611042816918N01626308WA0000001110
B1611052816921N01626300WA0000001110
B1611062816923N01626293WA0000001109
B1611072816926N01626286WA0000001109
B1611082816929N01626279WA0000001110
B1611092816933N01626273WA0000001110
B1611102816937N01626267WA0000001109
B1611112816942N01626262WA0000001109
B1611122816947N01626256WA0000001109
B1611132816952N01626251WA0000001109
B1611142816956N01626245WA0000001108
B1611152816961N01626239WA0000001107
B1611162816966N01626234WA0000001107
B1611172816971N01626228WA0000001106
B1611182816977N01626224WA0000001106
B1611192816983N01626220WA0000001106
B1611202816989N01626216WA0000001105
B1611212816995N01626212WA0000001104
B1611222817002N01626207WA0000001103
B1611232817008N01626203WA0000001101
B1611242817015N01626198WA0000001100
B1611252817021N01626192WA0000001099
B1611262817028N01626187WA0000001099
B1611272817033N01626182WA0000001099
B1611282817039N01626178WA0000001099
B1611292817044N01626174WA0000001098
B1611302817050N01626170WA0000001097
B1611312817056N01626166WA0000001094
B1611322817063N01626162WA0000001092
B1611332817070N01626157WA0000001090
B1611342817076N01626152WA0000001088
B1611352817081N01626148WA0000001089
B1611362817086N01626145WA0000001090
B1611372817091N01626141WA0000001089
B1611382817097N01626137WA0000001089
B1611392817103N01626133WA0000001087
B1611402817110N01626130WA0000001087
B1611412817116N01626126WA0000001088
B1611422817122N01626123WA0000001089
B1611432817128N01626119WA0000001089
B1611442817134N01626115WA0000001088
B1611452817140N01626112WA0000001087
B1611462817147N01626108WA0000001086
B1611472817153N01626104WA0000001085
B1611482817159N01626100WA0000001084
B1611492817165N01626096WA0000001085
B1611502817170N01626092WA0000001086
B1611512817176N01626088WA0000001085
B1611522817182N01626084WA0000001084
B1611532817188N01626079WA0000001083
B1611542817194N01626074WA0000001081
B1611552817199N01626069WA0000001080
B1611562817202N01626063WA0000001081
B1611572817206N01626057WA0000001080
B1611582817209N01626051WA0000001079
B1611592817214N01626045WA0000001077
B1612002817217N01626039WA0000001076
B1612012817222N01626033WA0000001077
B1612022817227N01626028WA0000001077
B1612032817231N01626023WA0000001075
B1612042817237N01626018WA0000001074
B1612052817243N01626014WA0000001074
B1612062817249N01626009WA0000001074
B1612072817255N01626005WA0000001073
B1612082817260N01626000WA0000001072
B1612092817266N01625995WA0000001072
B1612102817271N01625989WA0000001073
B1612112817276N01625983WA0000001074
B1612122817281N01625977WA0000001075
B1612132817285N01625971WA0000001074
B1612142817289N01625966WA0000001076
B1612152817293N01625960WA0000001077
B1612162817296N01625954WA0000001077
B1612172817300N01625948WA0000001077
B1612182817302N01625942WA0000001077
B1612192817305N01625936WA0000001078
B1612202817307N01625931WA0000001079
B1612212817309N01625925WA0000001080
B1612222817312N01625920WA0000001080
B1612232817315N01625915WA0000001080
B1612242817319N01625909WA0000001079
B1612252817324N01625903WA0000001078
B1612262817329N01625898WA0000001075
B1612272817334N01625892WA0000001075
B1612282817339N01625887WA0000001076
B1612292817345N01625882WA0000001075
B1612302817351N01625877WA0000001075
B1612312817357N01625871WA0000001073
B1612322817363N01625867WA0000001072
B1612332817370N01625862WA0000001071
B1612342817375N01625857WA0000001071
B1612352817381N01625852WA0000001070
B1612362817387N01625847WA0000001069
B1612372817392N01625841WA0000001067
B1612382817399N01625836WA0000001066
B1612392817405N01625830WA0000001064
B1612402817411N01625824WA0000001063
B1612412817417N01625819WA0000001063
B1612422817422N01625813WA0000001064
B1612432817427N01625808WA0000001064
B1612442817432N01625802WA0000001063
B1612452817438N01625795WA0000001062
B1612462817443N01625789WA0000001061
B1612472817449N01625783WA0000001062
B1612482817454N01625776WA0000001062
B1612492817459N01625771WA0000001064
B1612502817465N01625766WA0000001063
B1612512817471N01625760WA0000001063
B1612522817478N01625755WA0000001062
B1612532817484N01625749WA0000001060
B1612542817491N01625743WA0000001059
B1612552817498N01625737WA0000001059
B1612562817504N01625732WA0000001059
B1612572817509N01625725WA0000001059
B1612582817514N01625718WA0000001058
B1612592817520N01625712WA0000001057
B1613002817526N01625705WA0000001055
B1613012817532N01625699WA0000001054
B1613022817538N01625692WA0000001053
B1613032817543N01625686WA0000001053
B1613042817549N01625679WA0000001053
B1613052817554N01625673WA0000001052
B1613062817560N01625667WA0000001050
B1613072817567N01625661WA0000001048
B1613082817573N01625655WA0000001047
B1613092817579N01625649WA0000001047
B1613102817584N01625643WA0000001046
B1613112817588N01625636WA0000001045
B1613122817593N01625630WA0000001043
B1613132817598N01625623WA0000001042
B1613142817602N01625616WA0000001039
B1613152817607N01625609WA0000001038
B1613162817612N01625603WA0000001038
B1613172817616N01625596WA0000001037
B1613182817620N01625590WA0000001035
B1613192817626N01625583WA0000001033
B1613202817632N01625578WA0000001030
B1613212817638N01625571WA0000001027
B1613222817644N01625565WA0000001024
B1613232817650N01625558WA0000001021
B1613242817655N01625551WA0000001020
B1613252817661N01625545WA0000001019
B1613262817667N01625538WA0000001017
B1613272817672N01625531WA0000001014
B1613282817678N01625524WA0000001012
B1613292817683N01625517WA0000001010
B1613302817689N01625510WA0000001007
B1613312817693N01625503WA0000001007
B1613322817699N01625497WA0000001006
B1613332817704N01625491WA0000001003
B1613342817711N01625485WA0000000998
B1613352817717N01625478WA0000000994
B1613362817723N01625471WA0000000991
B1613372817730N01625464WA0000000987
B1613382817736N01625456WA0000000984
B1613392817742N01625449WA0000000980
B1613402817748N01625441WA0000000977
B1613412817754N01625433WA0000000974
B1613422817760N01625426WA0000000971
B1613432817767N01625419WA0000000967
B1613442817774N01625413WA0000000964
B1613452817781N01625406WA0000000961
B1613462817787N01625400WA0000000959
B1613472817794N01625394WA0000000958
B1613482817801N01625388WA0000000955
B1613492817807N01625381WA0000000953
B1613502817814N01625375WA0000000950
B1613512817820N01625368WA0000000947
B1613522817827N01625362WA0000000944
B1613532817834N01625355WA0000000940
B1613542817840N01625348WA0000000938
B1613552817847N01625341WA0000000935
B1613562817853N01625334WA0000000932
B1613572817859N01625326WA0000000929
B1613582817864N01625318WA0000000927
B1613592817869N01625310WA0000000924
B1614002817874N01625302WA0000000921
B1614012817879N01625294WA0000000917
B1614022817885N01625286WA0000000915
B1614032817892N01625279WA0000000912
B1614042817898N01625272WA0000000908
B1614052817904N01625265WA0000000907
B1614062817910N01625258WA0000000904
B1614072817916N01625251WA0000000901
B1614082817923N01625245WA0000000898
B1614092817929N01625238WA0000000894
B1614102817935N01625231WA0000000891
B1614112817941N01625224WA0000000888
B1614122817948N01625217WA0000000885
B1614132817954N01625210WA0000000882
B1614142817960N01625204WA0000000879
B1614152817966N01625197WA0000000876
B1614162817973N01625191WA0000000873
B1614172817979N01625185WA0000000870
B1614182817986N01625179WA0000000866
B1614192817993N01625173WA0000000861
B1614202818000N01625166WA0000000857
B1614212818007N01625159WA0000000854
B1614222818014N01625152WA0000000851
B1614232818022N01625145WA0000000848
B1614242818028N01625138WA0000000845
B1614252818035N01625131WA0000000842
B1614262818042N01625125WA0000000839
B1614272818050N01625119WA0000000836
B1614282818057N01625112WA0000000833
B1614292818065N01625106WA0000000831
B1614302818072N01625100WA0000000829
B1614312818079N01625095WA0000000827
B1614322818086N01625090WA0000000824
B1614332818093N01625084WA0000000821
B1614342818100N01625078WA0000000818
B1614352818107N01625071WA0000000815
B1614362818112N01625063WA0000000813
B1614372818117N01625055WA0000000811
B1614382818122N01625047WA0000000810
B1614392818128N01625040WA0000000808
B1614402818133N01625034WA0000000806
B1614412818140N01625028WA0000000803
B1614422818146N01625022WA0000000801
B1614432818151N01625017WA0000000800
B1614442818156N01625011WA0000000801
B1614452818160N01625006WA0000000800
B1614462818165N01625000WA0000000799
B1614472818171N01624994WA0000000795
B1614482818177N01624988WA0000000794
B1614492818183N01624984WA0000000793
B1614502818189N01624980WA0000000794
B1614512818194N01624977WA0000000795
B1614522818199N01624973WA0000000795
B1614532818204N01624970WA0000000793
B1614542818210N01624966WA0000000791
B1614552818216N01624962WA0000000789
B1614562818222N01624958WA0000000787
B1614572818228N01624954WA0000000786
B1614582818233N01624950WA0000000785
B1614592818239N01624946WA0000000784
B1615002818245N01624942WA0000000783
B1615012818251N01624938WA0000000780
B1615022818257N01624933WA0000000777
B1615032818263N01624929WA0000000775
B1615042818269N01624925WA0000000774
B1615052818274N01624921WA0000000774
B1615062818279N01624918WA0000000774
B1615072818285N01624915WA0000000773
B1615082818291N01624910WA0000000769
B1615092818297N01624906WA0000000767
B1615102818304N01624901WA0000000764
B1615112818311N01624896WA0000000762
B1615122818316N01624891WA0000000761
B1615132818321N01624886WA0000000760
B1615142818326N01624882WA0000000758
B1615152818332N01624876WA0000000755
B1615162818337N01624871WA0000000752
B1615172818343N01624865WA0000000749
B1615182818349N01624859WA0000000747
B1615192818354N01624855WA0000000744
B1615202818359N01624852WA0000000743
B1615212818365N01624848WA0000000743
B1615222818370N01624845WA0000000740
B1615232818376N01624841WA0000000738
B1615242818382N01624837WA0000000735
B1615252818388N01624833WA0000000732
B1615262818394N01624828WA0000000728
B1615272818400N01624825WA0000000725
B1615282818407N01624820WA0000000722
B1615292818413N01624816WA0000000719
B1615302818419N01624811WA0000000717
B1615312818425N01624806WA0000000715
B1615322818431N01624801WA0000000713
B1615332818436N01624795WA0000000712
B1615342818440N01624788WA0000000711
B1615352818444N01624782WA0000000710
B1615362818448N01624775WA0000000708
B1615372818452N01624768WA0000000707
B1615382818457N01624761WA0000000706
B1615392818462N01624754WA0000000703
B1615402818467N01624748WA0000000701
B1615412818472N01624741WA0000000699
B1615422818477N01624735WA0000000695
B1615432818481N01624727WA0000000693
B1615442818485N01624720WA0000000691
B1615452818490N01624714WA0000000689
B1615462818494N01624707WA0000000689
B1615472818498N01624701WA0000000689
B1615492818506N01624687WA0000000686
B1615502818509N01624680WA0000000686
B1615512818513N01624673WA0000000683
B1615522818516N01624666WA0000000682
B1615532818519N01624660WA0000000682
B1615542818522N01624653WA0000000682
B1615552818525N01624647WA0000000680
B1615562818528N01624640WA0000000678
B1615572818532N01624633WA0000000676
B1615582818535N01624626WA0000000674
B1615592818538N01624619WA0000000673
B1616002818542N01624612WA0000000671
B1616012818547N01624606WA0000000671
B1616022818551N01624600WA0000000669
B1616032818556N01624594WA0000000667
B1616042818561N01624588WA0000000667
B1616052818566N01624583WA0000000666
B1616062818572N01624578WA0000000666
B1616072818577N01624574WA0000000665
B1616082818582N01624569WA0000000663
B1616092818586N01624564WA0000000660
B1616102818591N01624557WA0000000658
B1616112818596N01624550WA0000000657
B1616122818602N01624544WA0000000657
B1616132818607N01624539WA0000000659
B1616142818612N01624534WA0000000661
B1616152818617N01624528WA0000000662
B1616162818622N01624522WA0000000661
B1616172818627N01624516WA0000000658
B1616182818633N01624510WA0000000656
B1616192818638N01624504WA0000000656
B1616202818645N01624498WA0000000655
B1616212818651N01624493WA0000000655
B1616222818656N01624488WA0000000653
B1616232818662N01624483WA0000000653
B1616242818669N01624478WA0000000651
B1616252818676N01624472WA0000000649
B1616262818683N01624467WA0000000647
B1616272818688N01624461WA0000000647
B1616282818694N01624456WA0000000648
B1616292818698N01624450WA0000000648
B1616302818703N01624444WA0000000648
B1616312818709N01624438WA0000000648
B1616322818715N01624432WA0000000649
B1616332818721N01624427WA0000000648
B1616342818727N01624421WA0000000647
B1616352818733N01624416WA0000000647
B1616362818738N01624410WA0000000647
B1616372818744N01624404WA0000000645
B1616382818750N01624400WA0000000643
B1616392818757N01624396WA0000000642
B1616402818764N01624393WA0000000641
B1616412818771N01624390WA0000000641
B1616422818778N01624386WA0000000639
B1616432818784N01624381WA0000000636
B1616442818791N01624377WA0000000633
B1616452818797N01624372WA0000000631
B1616462818805N01624367WA0000000630
B1616472818812N01624363WA0000000628
B1616482818818N01624359WA0000000627
B1616492818824N01624355WA0000000626
B1616502818830N01624350WA0000000625
B1616512818836N01624345WA0000000623
B1616522818842N01624340WA0000000621
B1616532818848N01624335WA0000000620
B1616542818854N01624329WA0000000619
B1616552818861N01624324WA0000000618
B1616562818867N01624319WA0000000617
B1616572818872N01624314WA0000000618
B1616582818878N01624309WA0000000618
B1616592818883N01624304WA0000000617
B1617002818890N01624299WA0000000617
B1617012818896N01624293WA0000000616
B1617022818902N01624289WA0000000616
B1617032818909N01624285WA0000000617
B1617042818915N01624281WA0000000619
B1617052818921N01624277WA0000000620
B1617062818926N01624274WA0000000619
B1617072818932N01624270WA0000000619
B1617082818938N01624266WA0000000618
B1617092818944N01624261WA0000000616
B1617102818950N01624256WA0000000615
B1617112818955N01624251WA0000000615
B1617122818961N01624247WA0000000615
B1617132818967N01624243WA0000000615
B1617142818973N01624239WA0000000613
B1617152818979N01624235WA0000000613
B1617162818986N01624230WA0000000611
B1617172818992N01624226WA0000000609
B1617182818998N01624221WA0000000608
B1617192819005N01624216WA0000000608
B1617202819010N01624212WA0000000607
B1617212819016N01624207WA0000000607
B1617222819022N01624203WA0000000606
B1617232819029N01624198WA0000000605
B1617242819036N01624194WA0000000606
B1617252819043N01624191WA0000000605
B1617262819050N01624187WA0000000606
B1617272819056N01624183WA0000000604
B1617282819062N01624179WA0000000604
B1617292819069N01624176WA0000000603
B1617302819076N01624172WA0000000602
B1617312819082N01624169WA0000000603
B1617322819089N01624165WA0000000603
B1617332819096N01624163WA0000000603
B1617342819102N01624160WA0000000602
B1617352819109N01624157WA0000000600
B1617362819115N01624154WA0000000599
B1617372819121N01624151WA0000000599
B1617382819128N01624149WA0000000599
B1617392819134N01624146WA0000000599
B1617402819140N01624144WA0000000598
B1617412819146N01624141WA0000000597
B1617422819152N01624137WA0000000595
B1617432819159N01624134WA0000000593
B1617442819167N01624131WA0000000590
B1617452819174N01624129WA0000000588
B1617472819188N01624124WA0000000587
B1617482819193N01624122WA0000000587
B1617492819200N01624120WA0000000586
B1617502819208N01624116WA0000000585
B1617512819214N01624113WA0000000583
B1617522819221N01624110WA0000000582
B1617532819227N01624106WA0000000583
B1617542819234N01624103WA0000000582
B1617552819240N01624100WA0000000581
B1617562819246N01624096WA0000000582
B1617572819252N01624091WA0000000581
B1617582819257N01624086WA0000000579
B1617592819263N01624082WA0000000579
B1618002819269N01624078WA0000000579
B1618012819275N01624074WA0000000578
B1618022819281N01624070WA0000000578
B1618032819287N01624065WA0000000578
B1618042819293N01624060WA0000000576
B1618052819298N01624055WA0000000575
B1618062819304N01624051WA0000000574
B1618072819310N01624048WA0000000574
B1618082819316N01624045WA0000000574
B1618092819323N01624041WA0000000575
B1618102819329N01624038WA0000000574
B1618112819335N01624035WA0000000574
B1618122819340N01624032WA0000000575
B1618132819346N01624029WA0000000575
B1618142819352N01624025WA0000000574
B1618152819359N01624021WA0000000571
B1618162819367N01624018WA0000000568
B1618172819375N01624015WA0000000567
B1618182819382N01624012WA0000000566
B1618192819388N01624010WA0000000567
B1618202819393N01624007WA0000000569
B1618212819399N01624005WA0000000569
B1618222819405N01624004WA0000000570
B1618232819412N01624002WA0000000570
B1618242819419N01624001WA0000000570
B1618252819426N01623999WA0000000570
B1618262819433N01623997WA0000000570
B1618272819439N01623995WA0000000571
B1618282819445N01623992WA0000000569
B1618292819452N01623990WA0000000566
B1618302819458N01623986WA0000000564
B1618312819464N01623982WA0000000563
B1618322819470N01623977WA0000000562
B1618332819476N01623973WA0000000560
B1618342819483N01623969WA0000000559
B1618352819489N01623966WA0000000560
B1618362819496N01623964WA0000000561
B1618372819501N01623961WA0000000561
B1618382819507N01623958WA0000000561
B1618392819513N01623954WA0000000559
B1618402819519N01623949WA0000000557
B1618412819525N01623944WA0000000556
B1618422819531N01623939WA0000000556
B1618432819536N01623935WA0000000556
B1618442819541N01623932WA0000000558
B1618452819546N01623929WA0000000561
B1618462819550N01623924WA0000000561
B1618472819556N01623919WA0000000559
B1618482819562N01623914WA0000000557
B1618492819568N01623910WA0000000557
B1618502819574N01623907WA0000000558
B1618512819580N01623905WA0000000559
B1618522819586N01623901WA0000000558
B1618532819592N01623898WA0000000556
B1618542819599N01623895WA0000000553
B1618552819607N01623890WA0000000551
B1618562819614N01623886WA0000000550
B1618572819620N01623882WA0000000551
B1618582819626N01623879WA0000000552
B1618592819631N01623876WA0000000552
B1619002819638N01623873WA0000000551
B1619012819645N01623869WA0000000549
B1619022819652N01623866WA0000000547
B1619032819658N01623863WA0000000545
B1619042819664N01623860WA0000000545
B1619052819670N01623857WA0000000542
B1619062819676N01623855WA0000000541
B1619072819682N01623852WA0000000539
B1619082819689N01623849WA0000000537
B1619092819696N01623846WA0000000534
B1619102819703N01623843WA0000000534
B1619112819709N01623840WA0000000534
B1619122819715N01623838WA0000000535
B1619132819720N01623836WA0000000535
B1619142819727N01623833WA0000000535
B1619152819733N01623830WA0000000533
B1619162819740N01623827WA0000000531
B1619172819747N01623824WA0000000532
B1619182819754N01623822WA0000000531
B1619192819760N01623819WA0000000531
B1619202819767N01623817WA0000000530
B1619212819773N01623815WA0000000529
B1619222819780N01623812WA0000000530
B1619232819788N01623810WA0000000528
B1619242819796N01623807WA0000000528
B1619252819803N01623805WA0000000527
B1619262819811N01623804WA0000000526
B1619272819818N01623801WA0000000527
B1619282819824N01623799WA0000000526
B1619292819832N01623795WA0000000525
B1619302819840N01623793WA0000000523
B1619312819848N01623790WA0000000521
B1619322819857N01623788WA0000000517
B1619332819865N01623786WA0000000517
B1619342819872N01623785WA0000000516
B1619352819880N01623782WA0000000517
B1619362819887N01623780WA0000000515
B1619372819895N01623778WA0000000515
B1619382819902N01623776WA0000000512
B1619392819910N01623774WA0000000511
B1619402819918N01623771WA0000000509
B1619412819926N01623769WA0000000507
B1619422819934N01623767WA0000000507
B1619432819941N01623765WA0000000508
B1619442819947N01623763WA0000000507
B1619452819954N01623761WA0000000507
B1619462819968N01623757WA0000000501
B1619482819975N01623755WA0000000501
B1619492819982N01623753WA0000000499
B1619502819989N01623751WA0000000499
B1619512819997N01623750WA0000000498
B1619522820004N01623748WA0000000497
B1619532820011N01623746WA0000000495
B1619542820019N01623744WA0000000493
B1619552820027N01623742WA0000000492
B1619562820034N01623740WA0000000492
B1619572820042N01623737WA0000000491
B1619582820049N01623735WA0000000490
B1619592820056N01623732WA0000000489
B1620002820063N01623730WA0000000486
B1620012820071N01623728WA0000000484
B1620022820078N01623726WA0000000483
B1620032820086N01623724WA0000000484
B1620042820093N01623722WA0000000483
B1620052820100N01623720WA0000000482
B1620062820107N01623718WA0000000480
B1620072820114N01623717WA0000000478
B1620082820122N01623715WA0000000476
B1620092820130N01623712WA0000000473
B1620102820137N01623710WA0000000470
B1620112820145N01623708WA0000000470
B1620122820151N01623706WA0000000470
B1620132820158N01623703WA0000000470
B1620142820164N01623701WA0000000469
B1620152820171N01623698WA0000000467
B1620162820179N01623695WA0000000465
B1620172820186N01623693WA0000000462
B1620182820193N01623692WA0000000461
B1620192820200N01623689WA0000000462
B1620202820207N01623687WA0000000462
B1620212820213N01623685WA0000000462
B1620222820219N01623682WA0000000461
B1620232820226N01623680WA0000000459
B1620242820233N01623677WA0000000457
B1620252820240N01623674WA0000000456
B1620262820247N01623671WA0000000456
B1620272820253N01623668WA0000000455
B1620282820258N01623665WA0000000455
B1620292820265N01623663WA0000000454
B1620302820272N01623660WA0000000453
B1620312820280N01623657WA0000000451
B1620322820287N01623655WA0000000448
B1620332820294N01623652WA0000000451
B1620342820300N01623650WA0000000450
B1620352820306N01623648WA0000000450
B1620362820312N01623646WA0000000450
B1620372820319N01623644WA0000000448
B1620382820326N01623642WA0000000447
B1620392820332N01623640WA0000000448
B1620402820339N01623638WA0000000448
B1620412820344N01623636WA0000000448
B1620422820349N01623635WA0000000449
B1620432820355N01623633WA0000000451
B1620442820362N01623630WA0000000449
B1620452820368N01623627WA0000000448
B1620462820375N01623624WA0000000446
B1620472820381N01623621WA0000000444
B1620482820388N01623618WA0000000444
B1620492820394N01623616WA0000000442
B1620502820400N01623613WA0000000439
B1620512820406N01623612WA0000000434
B1620522820413N01623610WA0000000432
B1620532820420N01623609WA0000000431
B1620542820427N01623608WA0000000431
B1620552820435N01623608WA0000000431
B1620562820442N01623607WA0000000432
B1620572820448N01623606WA0000000432
B1620582820455N01623605WA0000000431
B1620592820463N01623603WA0000000430
B1621002820471N01623601WA0000000428
B1621012820478N01623600WA0000000427
B1621022820486N01623598WA0000000427
B1621032820492N01623596WA0000000428
B1621042820498N01623594WA0000000428
B1621052820504N01623591WA0000000427
B1621062820511N01623589WA0000000424
B1621072820518N01623587WA0000000423
B1621082820525N01623585WA0000000421
B1621092820533N01623583WA0000000419
B1621102820541N01623581WA0000000417
B1621112820548N01623579WA0000000417
B1621122820557N01623577WA0000000416
B1621132820565N01623575WA0000000413
B1621142820573N01623574WA0000000413
B1621152820581N01623571WA0000000413
B1621162820589N01623570WA0000000412
B1621172820596N01623569WA0000000414
B1621182820603N01623568WA0000000415
B1621192820609N01623569WA0000000416
B1621202820615N01623568WA0000000419
B1621212820622N01623567WA0000000422
B1621222820630N01623564WA0000000423
B1621232820637N01623562WA0000000420
B1621242820644N01623560WA0000000421
B1621252820651N01623558WA0000000418
B1621262820658N01623556WA0000000417
B1621272820665N01623554WA0000000415
B1621282820672N01623552WA0000000414
B1621292820681N01623550WA0000000415
B1621302820687N01623549WA0000000412
B1621312820694N01623547WA0000000411
B1621322820701N01623545WA0000000410
B1621332820709N01623543WA0000000407
B1621342820716N01623541WA0000000405
B1621352820723N01623538WA0000000404
B1621362820730N01623536WA0000000401
B1621372820737N01623534WA0000000402
B1621382820743N01623533WA0000000402
B1621392820750N01623532WA0000000401
B1621402820758N01623530WA0000000401
B1621412820766N01623527WA0000000399
B1621422820773N01623525WA0000000396
B1621432820779N01623522WA0000000396
B1621442820786N01623520WA0000000398
B1621452820793N01623519WA0000000396
B1621472820808N01623516WA0000000397
B1621482820815N01623514WA0000000397
B1621492820821N01623513WA0000000397
B1621502820828N01623510WA0000000396
B1621512820833N01623508WA0000000393
B1621522820839N01623506WA0000000392
B1621532820846N01623503WA0000000390
B1621542820852N01623500WA0000000389
B1621552820859N01623499WA0000000390
B1621562820865N01623497WA0000000390
B1621572820871N01623495WA0000000389
B1621582820878N01623492WA0000000388
B1621592820885N01623489WA0000000385
B1622002820892N01623486WA0000000383
B1622012820899N01623483WA0000000382
B1622022820905N01623480WA0000000381
B1622032820912N01623478WA0000000382
B1622042820918N01623476WA0000000381
B1622052820925N01623474WA0000000379
B1622062820932N01623471WA0000000377
B1622072820938N01623467WA0000000375
B1622082820945N01623464WA0000000373
B1622092820952N01623460WA0000000372
B1622102820958N01623457WA0000000372
B1622112820965N01623455WA0000000371
B1622122820971N01623453WA0000000371
B1622132820978N01623450WA0000000370
B1622142820984N01623447WA0000000368
B1622152820991N01623444WA0000000367
B1622162820998N01623441WA0000000366
B1622172821005N01623438WA0000000365
B1622182821011N01623435WA0000000364
B1622192821018N01623432WA0000000364
B1622202821024N01623429WA0000000363
B1622212821030N01623424WA0000000362
B1622222821036N01623419WA0000000359
B1622232821042N01623415WA0000000361
B1622242821048N01623410WA0000000359
B1622252821053N01623406WA0000000359
B1622262821059N01623402WA0000000358
B1622272821065N01623398WA0000000357
B1622282821071N01623394WA0000000355
B1622292821077N01623390WA0000000354
B1622302821083N01623385WA0000000353
B1622312821089N01623381WA0000000353
B1622322821094N01623378WA0000000353
B1622332821100N01623374WA0000000351
B1622342821106N01623370WA0000000350
B1622352821113N01623366WA0000000349
B1622362821120N01623362WA0000000347
B1622372821126N01623360WA0000000346
B1622382821132N01623357WA0000000346
B1622392821139N01623354WA0000000345
B1622402821145N01623351WA0000000344
B1622412821152N01623348WA0000000343
B1622422821159N01623345WA0000000341
B1622432821165N01623342WA0000000340
B1622442821171N01623339WA0000000343
B1622452821178N01623336WA0000000340
B1622462821184N01623333WA0000000339
B1622472821191N01623330WA0000000338
B1622482821197N01623326WA0000000336
B1622492821204N01623322WA0000000335
B1622502821210N01623318WA0000000333
B1622512821216N01623314WA0000000332
B1622522821222N01623310WA0000000332
B1622532821228N01623306WA0000000331
B1622542821234N01623301WA0000000330
B1622552821240N01623296WA0000000327
B1622562821246N01623291WA0000000326
B1622572821252N01623287WA0000000326
B1622582821258N01623283WA0000000327
B1622592821264N01623279WA0000000326
B1623002821270N01623275WA0000000325
B1623012821276N01623271WA0000000324
B1623022821282N01623266WA0000000323
B1623032821288N01623262WA0000000322
B1623042821294N01623257WA0000000322
B1623052821299N01623253WA0000000322
B1623062821304N01623248WA0000000320
B1623072821310N01623244WA0000000320
B1623082821316N01623239WA0000000318
B1623092821322N01623234WA0000000317
B1623102821328N01623230WA0000000315
B1623112821334N01623226WA0000000315
B1623122821340N01623222WA0000000315
B1623132821345N01623218WA0000000315
B1623142821350N01623212WA0000000314
B1623152821355N01623207WA0000000312
B1623162821360N01623201WA0000000310
B1623172821365N01623196WA0000000309
B1623182821370N01623191WA0000000309
B1623192821374N01623186WA0000000309
B1623202821379N01623181WA0000000307
B1623212821385N01623175WA0000000306
B1623222821391N01623170WA0000000304
B1623232821396N01623164WA0000000304
B1623242821402N01623159WA0000000304
B1623252821408N01623153WA0000000303
B1623262821414N01623149WA0000000301
B1623272821419N01623144WA0000000300
B1623282821425N01623139WA0000000300
B1623292821431N01623134WA0000000299
B1623302821437N01623130WA0000000298
B1623312821444N01623125WA0000000297
B1623322821450N01623122WA0000000296
B1623332821456N01623118WA0000000293
B1623342821463N01623114WA0000000292
B1623352821468N01623109WA0000000292
B1623362821474N01623104WA0000000292
B1623372821479N01623100WA0000000292
B1623382821485N01623096WA0000000292
B1623392821491N01623091WA0000000291
B1623402821497N01623087WA0000000290
B1623412821504N01623082WA0000000291
B1623422821510N01623079WA0000000289
B1623432821516N01623074WA0000000290
B1623442821521N01623070WA0000000290
B1623452821527N01623067WA0000000291
B1623462821534N01623064WA0000000290
B1623472821541N01623061WA0000000288
B1623492821556N01623055WA0000000281
B1623502821562N01623053WA0000000281
B1623512821568N01623050WA0000000280
B1623522821573N01623046WA0000000277
B1623532821579N01623042WA0000000276
B1623542821585N01623037WA0000000273
B1623552821592N01623033WA0000000272
B1623562821598N01623029WA0000000271
B1623572821604N01623025WA0000000269
B1623582821610N01623021WA0000000268
B1623592821617N01623017WA0000000267
B1624002821623N01623014WA0000000265
B1624012821629N01623011WA0000000264
B1624022821635N01623008WA0000000264
B1624032821641N01623005WA0000000264
B1624042821648N01623001WA0000000266
B1624052821654N01622998WA0000000264
B1624062821659N01622994WA0000000265
B1624072821663N01622990WA0000000266
B1624082821668N01622986WA0000000265
B1624092821672N01622983WA0000000265
B1624102821677N01622979WA0000000265
B1624112821683N01622975WA0000000263
B1624122821689N01622971WA0000000262
B1624132821695N01622966WA0000000262
B1624142821700N01622962WA0000000261
B1624152821705N01622959WA0000000259
B1624162821710N01622955WA0000000259
B1624172821715N01622951WA0000000257
B1624182821721N01622947WA0000000254
B1624192821727N01622943WA0000000253
B1624202821732N01622938WA0000000252
B1624212821738N01622934WA0000000252
B1624222821742N01622930WA0000000251
B1624232821747N01622926WA0000000249
B1624242821752N01622921WA0000000247
B1624252821757N01622917WA0000000244
B1624262821763N01622911WA0000000242
B1624272821768N01622907WA0000000240
B1624282821773N01622903WA0000000239
B1624292821777N01622899WA0000000239
B1624302821782N01622894WA0000000240
B1624312821787N01622889WA0000000239
B1624322821792N01622885WA0000000239
B1624332821797N01622880WA0000000236
B1624342821802N01622875WA0000000236
B1624352821808N01622871WA0000000234
B1624362821812N01622866WA0000000234
B1624372821815N01622859WA0000000233
B1624382821818N01622853WA0000000230
B1624392821821N01622847WA0000000229
B1624402821823N01622841WA0000000228
B1624412821825N01622835WA0000000226
B1624422821826N01622829WA0000000225
B1624432821827N01622822WA0000000226
B1624442821829N01622816WA0000000226
B1624452821831N01622811WA0000000225
B1624462821834N01622806WA0000000226
B1624472821837N01622801WA0000000226
B1624482821842N01622796WA0000000225
B1624492821846N01622791WA0000000224
B1624502821849N01622786WA0000000222
B1624512821852N01622781WA0000000221
B1624522821854N01622775WA0000000221
B1624532821858N01622769WA0000000221
B1624542821862N01622764WA0000000221
B1624552821867N01622759WA0000000220
B1624562821871N01622754WA0000000219
B1624572821874N01622748WA0000000218
B1624582821876N01622743WA0000000217
B1624592821876N01622737WA0000000216
B1625002821877N01622732WA0000000215
B1625012821877N01622727WA0000000215
B1625022821877N01622721WA0000000214
B1625032821878N01622715WA0000000214
B1625042821878N01622710WA0000000214
B1625052821879N01622705WA0000000217
B1625062821879N01622700WA0000000216
B1625072821881N01622694WA0000000216
B1625082821883N01622688WA0000000214
B1625092821887N01622682WA0000000214
B1625102821891N01622677WA0000000214
B1625112821895N01622672WA0000000215
B1625122821900N01622669WA0000000218
B1625132821904N01622667WA0000000219
B1625142821908N01622663WA0000000219
B1625152821914N01622660WA0000000215
B1625162821921N01622656WA0000000212
B1625172821927N01622652WA0000000210
B1625182821933N01622647WA0000000210
B1625192821939N01622643WA0000000213
B1625202821943N01622639WA0000000213
B1625212821948N01622635WA0000000212
B1625222821952N01622631WA0000000211
B1625232821958N01622626WA0000000209
B1625242821964N01622620WA0000000207
B1625252821969N01622615WA0000000207
B1625262821975N01622611WA0000000208
B1625272821979N01622608WA0000000210
B1625282821984N01622605WA0000000210
B1625292821990N01622602WA0000000208
B1625302821995N01622598WA0000000204
B1625312822001N01622594WA0000000202
B1625322822007N01622591WA0000000202
B1625332822012N01622587WA0000000204
B1625342822016N01622584WA0000000204
B1625352822021N01622580WA0000000204
B1625362822025N01622576WA0000000203
B1625372822030N01622571WA0000000202
B1625382822034N01622567WA0000000202
B1625392822039N01622563WA0000000201
B1625402822043N01622558WA0000000202
B1625412822048N01622554WA0000000201
B1625422822053N01622550WA0000000202
B1625432822059N01622546WA0000000202
B1625442822064N01622542WA0000000202
B1625452822069N01622539WA0000000203
B1625462822074N01622535WA0000000204
B1625472822079N01622530WA0000000202
B1625492822090N01622521WA0000000199
B1625502822094N01622517WA0000000199
B1625512822099N01622513WA0000000197
B1625522822103N01622509WA0000000197
B1625532822108N01622505WA0000000196
B1625542822112N01622500WA0000000194
B1625552822116N01622495WA0000000193
B1625562822121N01622489WA0000000191
B1625572822125N01622484WA0000000190
B1625582822129N01622479WA0000000190
B1625592822134N01622476WA0000000190
B1626002822138N01622471WA0000000189
B1626012822142N01622467WA0000000190
B1626022822145N01622462WA0000000189
B1626032822149N01622457WA0000000189
B1626042822152N01622452WA0000000188
B1626052822156N01622448WA0000000187
B1626062822159N01622443WA0000000187
B1626072822163N01622439WA0000000188
B1626082822167N01622434WA0000000187
B1626092822170N01622429WA0000000186
B1626102822174N01622424WA0000000186
B1626112822178N01622419WA0000000185
B1626122822182N01622415WA0000000184
B1626132822185N01622410WA0000000183
B1626142822189N01622406WA0000000182
B1626152822192N01622401WA0000000179
B1626162822195N01622396WA0000000178
B1626172822199N01622392WA0000000178
B1626182822204N01622389WA0000000177
B1626192822209N01622386WA0000000176
B1626202822215N01622382WA0000000176
B1626212822220N01622378WA0000000174
B1626222822224N01622374WA0000000174
B1626232822228N01622370WA0000000172
B1626242822232N01622366WA0000000171
B1626252822237N01622363WA0000000172
B1626262822242N01622359WA0000000172
B1626272822246N01622355WA0000000170
B1626282822251N01622350WA0000000169
B1626292822256N01622346WA0000000167
B1626302822261N01622341WA0000000166
B1626312822266N01622337WA0000000165
B1626322822271N01622332WA0000000165
B1626332822275N01622328WA0000000165
B1626342822279N01622324WA0000000163
B1626352822284N01622320WA0000000162
B1626362822288N01622316WA0000000161
B1626372822292N01622312WA0000000159
B1626382822296N01622307WA0000000158
B1626392822299N01622302WA0000000156
B1626402822302N01622296WA0000000156
B1626412822305N01622291WA0000000155
B1626422822308N01622286WA0000000154
B1626432822310N01622281WA0000000153
B1626442822312N01622276WA0000000153
B1626452822314N01622271WA0000000152
B1626462822316N01622266WA0000000151
B1626472822320N01622260WA0000000149
B1626482822323N01622255WA0000000147
B1626492822326N01622250WA0000000147
B1626502822329N01622245WA0000000146
B1626512822332N01622240WA0000000147
B1626522822335N01622236WA0000000145
B1626532822338N01622231WA0000000144
B1626542822341N01622227WA0000000145
B1626552822345N01622222WA0000000144
B1626562822349N01622217WA0000000144
B1626572822354N01622213WA0000000145
B1626582822358N01622208WA0000000145
B1626592822362N01622203WA0000000143
B1627002822366N01622198WA0000000143
B1627012822368N01622193WA0000000141
B1627022822371N01622188WA0000000140
B1627032822372N01622183WA0000000140
B1627042822372N01622178WA0000000139
B1627052822374N01622172WA0000000138
B1627062822376N01622167WA0000000137
B1627072822378N01622162WA0000000136
B1627082822380N01622158WA0000000136
B1627092822383N01622153WA0000000134
B1627102822385N01622147WA0000000133
B1627112822387N01622141WA0000000131
B1627122822389N01622134WA0000000130
B1627132822390N01622128WA0000000129
B1627142822392N01622123WA0000000128
B1627152822394N01622117WA0000000129
B1627162822396N01622111WA0000000129
B1627172822398N01622105WA0000000128
B1627182822401N01622099WA0000000130
B1627192822404N01622093WA0000000129
B1627202822407N01622088WA0000000129
B1627212822410N01622083WA0000000130
B1627222822413N01622078WA0000000132
B1627232822417N01622074WA0000000133
B1627242822420N01622070WA0000000134
B1627252822423N01622066WA0000000133
B1627262822426N01622061WA0000000133
B1627272822428N01622056WA0000000132
B1627282822430N01622053WA0000000132
B1627292822430N01622048WA0000000133
B1627302822431N01622044WA0000000133
B1627312822430N01622040WA0000000130
B1627322822430N01622036WA0000000128
B1627332822431N01622032WA0000000126
B1627342822432N01622027WA0000000125
B1627352822434N01622022WA0000000124
B1627362822437N01622018WA0000000124
B1627372822441N01622014WA0000000124
B1627382822444N01622009WA0000000123
B1627392822448N01622005WA0000000122
B1627402822451N01622000WA0000000122
B1627412822453N01621994WA0000000122
B1627422822454N01621989WA0000000122
B1627432822454N01621984WA0000000122
B1627442822455N01621979WA0000000121
B1627452822455N01621974WA0000000122
B1627462822455N01621969WA0000000121
B1627472822454N01621964WA0000000120
B1627492822452N01621954WA0000000116
B1627502822451N01621951WA0000000116
B1627512822450N01621947WA0000000116
B1627522822450N01621942WA0000000115
B1627532822449N01621937WA0000000112
B1627542822448N01621931WA0000000109
B1627552822447N01621925WA0000000107
B1627562822445N01621921WA0000000106
B1627572822443N01621917WA0000000106
B1627582822441N01621914WA0000000106
B1627592822439N01621911WA0000000106
B1628002822436N01621908WA0000000104
B1628012822433N01621904WA0000000103
B1628022822431N01621900WA0000000101
B1628032822428N01621896WA0000000100
B1628042822425N01621892WA0000000099
B1628052822423N01621889WA0000000099
B1628062822420N01621886WA0000000099
B1628072822417N01621883WA0000000099
B1628082822415N01621880WA0000000099
B1628092822414N01621876WA0000000098
B1628102822413N01621873WA0000000098
B1628112822411N01621869WA0000000096
B1628122822410N01621865WA0000000095
B1628132822408N01621861WA0000000093
B1628142822406N01621857WA0000000093
B1628152822403N01621853WA0000000092
B1628162822400N01621851WA0000000091
B1628172822397N01621848WA0000000091
B1628182822394N01621846WA0000000092
B1628192822392N01621844WA0000000092
B1628202822389N01621843WA0000000092
B1628212822386N01621841WA0000000092
B1628222822382N01621839WA0000000090
B1628232822379N01621837WA0000000089
B1628242822377N01621834WA0000000089
B1628252822374N01621832WA0000000088
B1628262822371N01621829WA0000000087
B1628272822368N01621827WA0000000086
B1628282822366N01621825WA0000000085
B1628292822364N01621822WA0000000084
B1628302822362N01621819WA0000000083
B1628312822360N01621816WA0000000082
B1628322822358N01621812WA0000000081
B1628332822356N01621808WA0000000080
B1628342822353N01621805WA0000000080
B1628352822351N01621802WA0000000080
B1628362822350N01621799WA0000000081
B1628372822348N01621797WA0000000082
B1628382822347N01621794WA0000000082
B1628392822346N01621790WA0000000080
B1628402822345N01621786WA0000000080
B1628412822345N01621782WA0000000079
B1628422822343N01621780WA0000000078
B1628432822341N01621778WA0000000078
B1628442822340N01621776WA0000000077
B1628452822338N01621774WA0000000076
B1628462822336N01621773WA0000000076
B1628472822333N01621772WA0000000075
B1628482822330N01621770WA0000000074
B1628492822327N01621768WA0000000073
B1628502822324N01621767WA0000000072
B1628512822322N01621765WA0000000072
B1628522822319N01621763WA0000000071
B1628532822317N01621761WA0000000070
B1628542822314N01621759WA0000000070
B1628552822312N01621757WA0000000069
B1628562822309N01621755WA0000000069
B1628572822306N01621753WA0000000069
B1628582822303N01621751WA0000000068
B1628592822300N01621749WA0000000067
B1629002822297N01621747WA0000000064
B1629012822293N01621744WA0000000063
B1629022822290N01621743WA0000000062
B1629032822286N01621740WA0000000061
B1629042822283N01621738WA0000000060
B1629052822280N01621736WA0000000059
B1629062822277N01621734WA0000000059
B1629072822273N01621732WA0000000058
B1629082822270N01621731WA0000000057
B1629092822267N01621730WA0000000056
B1629102822263N01621729WA0000000055
B1629112822260N01621728WA0000000055
B1629122822257N01621727WA0000000054
B1629132822254N01621726WA0000000053
B1629142822251N01621725WA0000000052
B1629152822248N01621725WA0000000051
B1629162822244N01621724WA0000000050
B1629172822241N01621723WA0000000049
B1629182822237N01621723WA0000000049
B1629192822234N01621722WA0000000048
B1629202822231N01621721WA0000000046
B1629212822228N01621721WA0000000045
B1629222822225N01621720WA0000000044
B1629232822222N01621720WA0000000043
B1629242822219N01621718WA0000000043
B1629252822216N01621717WA0000000041
B1629262822213N01621715WA0000000039
B1629272822210N01621714WA0000000038
B1629282822207N01621712WA0000000037
B1629292822203N01621711WA0000000035
B1629302822200N01621709WA0000000034
B1629312822197N01621707WA0000000034
B1629322822194N01621705WA0000000034
B1629332822192N01621704WA0000000034
B1629342822189N01621702WA0000000034
B1629352822187N01621701WA0000000033
B1629362822184N01621700WA0000000031
B1629372822181N01621699WA0000000030
B1629382822179N01621698WA0000000030
B1629392822177N01621696WA0000000030
B1629402822175N01621694WA0000000029
B1629412822172N01621692WA0000000029
B1629422822169N01621691WA0000000028
B1629432822167N01621691WA0000000027
B1629442822164N01621691WA0000000025
B1629452822162N01621691WA0000000024
B1629462822160N01621690WA0000000022
B1629472822157N01621689WA0000000021
B1629482822156N01621689WA0000000021
B1629502822155N01621688WA0000000022
B1629512822154N01621689WA0000000022
B1629522822154N01621689WA0000000020
B1629532822153N01621689WA0000000020
B1629542822152N01621689WA0000000020
B1629552822152N01621689WA0000000020
B1629562822151N01621689WA0000000019
B1629572822151N01621689WA0000000019
B1629582822150N01621689WA0000000019
B1629592822150N01621689WA0000000019
B1630002822149N01621689WA0000000019
B1630012822149N01621689WA0000000020
B1630022822148N01621689WA0000000020
B1630032822148N01621689WA0000000020
B1630042822148N01621689WA0000000020
B1630052822148N01621689WA0000000020
LXCTSTATS eyJzdGF0cyI6eyJ0ZXJyYWluQm1wQ2FjaGUiOnsiYWxsb2MiOjE3NCwiYWxs
LXCTSTATS b2NGYWlsIjowLCJtYXhzaXplIjoxMjgsIm1heHNpemVJbml0IjoxMjgsInJl
LXCTSTATS dXNlIjo3NX0sIkdQUyI6eyJhbHRGaXhHZW9pZERpZmYiOi0zNC42NDQyNzc1
LXCTSTATS NTEyNTg3MiwiYWx0Rml4TWV0aG9kIjp7ImRpZmZBcGlHZW9pZCI6MSwiZGlm
LXCTSTATS ZkFwaU5tZWEiOjQ0LCJubWVhIjo3NTE3fSwiYWx0Rml4Tm1lYURpZmYiOi00
LXCTSTATS NS45MDIxMDIyNDg4NTk1NiwiYXBpQ250Ijo3NTYzLCJhcGlUaW1lT2ZmTVMi
LXCTSTATS OjQ5OCwiYmVhcmluZ0NvbXB1dGVkIjoxLCJubWVhQWx0Q250Ijo3NTYyLCJu
LXCTSTATS bWVhQ250IjoxMDQyNTcsIm5tZWFQb3NDbnQiOjc1NjIsInNwZWVkQ29tcHV0
LXCTSTATS ZWQiOjB9fX0=
G112C09960F1D72B1307E0D98CB9CCD38847DC5A55D1CAA88F60B9D29DC0F19EC
G200CDEB722759DF06DB368968A08E52782D0A9ECD12D86B2D8F5770D344B389C
G61BC485756731F08D32A5F88535C6C08E5A858FAE530A8A0CCEE151AD89B3596
GDDD8749812863920C7DC80F63AFF5D247CDA4F99D100B263D67C90FE233C02D2
